[[{"header":{"parameterUnit":"m.s-1","parameterCategory":1,"la1":31.0,"la2":29.5877,"lo1":-88.7671,"lo2":-86.6584,"dy":0.0162,"dx":0.0185,"nx":115,"ny":88,"refTime":"2024-07-08T12:00:00:Z","depth":0,"parameterNumber":2,"parameterNumberName":"U-component_of_WINDS"},"data":[0.0,0.0,0.0,0.0,0.0,0.0,0.0,0.0,0.0,0.0,0.0,0.0,0.0,0.0,0.0,0.0,0.0,0.0,0.0,0.0,0.0,0.0,0.0,0.0,0.0,0.0,0.0,0.0,0.0,0.0,0.0,0.0,0.0,0.0,0.0,0.0,0.0,0.0,0.0,0.0,0.0,0.0,0.0,0.0,0.0,0.0,0.0,0.0,0.0,0.0,0.0,0.0,0.0,0.0,0.0,0.0,0.0,0.0,0.0,0.0,0.0,0.0,0.0,0.0,0.0,0.0,0.0,0.0,0.0,0.0,0.0,0.0,0.0,0.0,0.0,0.0,0.0,0.0,0.0,0.0,0.0,0.0,0.0,0.0,0.0,0.0,0.0,0.0,0.0,0.0,0.0,0.0,0.0,0.0,0.0,0.0,0.0,0.0,0.0,0.0,0.0,0.0,0.0,0.0,0.0,0.0,0.0,0.0,0.0,0.0,0.0,0.0,0.0,0.0,0.0,0.0,0.0,0.0,0.0,0.0,0.0,0.0,0.0,0.0,0.0,0.0,0.0,0.0,0.0,0.0,0.0,0.0,0.0,0.0,0.0,0.0,0.0,0.0,0.0,0.0,0.0,0.0,0.0,0.0,0.0,0.0,0.0,0.0,0.0,0.0,0.0,0.0,0.0,0.0,0.0,0.0,0.0,0.0,0.0,0.0,0.0,0.0,0.0,0.0,0.0,0.0,0.0,0.0,0.0,0.0,0.0,0.0,0.0,0.0,0.0,0.0,0.0,0.0,0.0,0.0,0.0,0.0,0.0,0.0,0.0,0.0,0.0,0.0,0.0,0.0,0.0,0.0,0.0,0.0,0.0,0.0,0.0,0.0,0.0,0.0,0.0,0.0,0.0,0.0,0.0,0.0,0.0,0.0,0.0,0.0,0.0,0.0,0.0,0.0,0.0,0.0,0.0,0.0,0.0,0.0,0.0,0.0,0.0,0.0,0.0,0.0,0.0,0.0,0.0,0.0,0.0,0.0,0.0,0.0,0.0,0.0,0.0,0.0,0.0,0.0,0.0,0.0,0.0,0.0,0.0,0.0,0.0,0.0,0.0,0.0,0.0,0.0,0.0,0.0,0.0,0.0,0.0,0.0,0.0,0.0,0.0,0.0,0.0,0.0,0.0,0.0,0.0,0.0,0.0,0.0,0.0,0.0,0.0,0.0,0.0,0.0,0.0,0.0,0.0,0.0,0.0,0.0,0.0,0.0,0.0,0.0,0.0,0.0,0.0,0.0,0.0,0.0,0.0,0.0,0.0,0.0,0.0,0.0,0.0,0.0,0.0,0.0,0.0,0.0,0.0,0.0,0.0,0.0,0.0,0.0,0.0,0.0,0.0,0.0,0.0,0.0,0.0,0.0,0.0,0.0,0.0,0.0,0.0,0.0,0.0,0.0,0.0,0.0,0.0,0.0,0.0,0.0,0.0,0.0,0.0,0.0,0.0,0.0,0.0,0.0,0.0,0.0,0.0,0.0,0.0,0.0,0.0,0.0,0.0,0.0,0.0,0.0,0.0,0.0,0.0,0.0,0.0,0.0,0.0,0.0,0.0,0.0,0.0,0.0,0.0,0.0,0.0,0.0,0.0,0.0,0.0,0.0,0.0,0.0,0.0,0.0,0.0,0.0,0.0,0.0,0.0,0.0,0.0,0.0,0.0,0.0,0.0,0.0,0.0,0.0,0.0,0.0,0.0,0.0,0.0,0.0,0.0,0.0,0.0,0.0,0.0,0.0,0.0,0.0,0.0,0.0,0.0,0.0,0.0,0.0,0.0,0.0,0.0,0.0,0.0,0.0,0.0,0.0,0.0,0.0,0.0,0.0,0.0,0.0,0.0,0.0,0.0,0.0,0.0,0.0,0.0,0.0,0.0,0.0,0.0,0.0,0.0,0.0,0.0,0.0,0.0,0.0,0.0,0.0,0.0,0.0,0.0,0.0,0.0,0.0,0.0,0.0,0.0,0.0,0.0,0.0,0.0,0.0,0.0,0.0,0.0,0.0,0.0,0.0,0.0,0.0,0.0,0.0,0.0,0.0,0.0,0.0,0.0,0.0,0.0,0.0,0.0,0.0,0.0,0.0,0.0,0.0,0.0,0.0,0.0,0.0,0.0,0.0,0.0,0.0,0.0,0.0,0.0,0.0,0.0,0.0,0.0,0.0,0.0,0.0,0.0,0.0,0.0,0.0,0.0,0.0,0.0,0.0,0.0,0.0,0.0,0.0,0.0,0.0,0.0,0.0,0.0,0.0,0.0,0.0,0.0,0.0,0.0,0.0,0.0,0.0,0.0,0.0,0.0,0.0,0.0,0.0,0.0,0.0,0.0,0.0,0.0,0.0,0.0,0.0,0.0,0.0,0.0,0.0,0.0,0.0,0.0,0.0,0.0,0.0,0.0,0.0,0.0,0.0,0.0,0.0,0.0,0.0,0.0,0.0,0.0,0.0,0.0,0.0,0.0,0.0,0.0,0.0,0.0,0.0,0.0,0.0,0.0,0.0,0.0,0.0,0.0,0.0,0.0,0.0,0.0,0.0,0.0,0.0,0.0,0.0,0.0,0.0,0.0,0.0,0.0,0.0,0.0,0.0,0.0,0.0,0.0,0.0,0.0,0.0,0.0,0.0,0.0,0.0,0.0,0.0,0.0,0.0,0.0,0.0,0.0,0.0,0.0,0.0,0.0,0.0,0.0,0.0,0.0,0.0,0.0,0.0,0.0,0.0,0.0,0.0,0.0,0.0,0.0,0.0,0.0,0.0,0.0,0.0,0.0,0.0,0.0,0.0,0.0,0.0,0.0,0.0,0.0,0.0,0.0,0.0,0.0,0.0,0.0,0.0,0.0,0.0,0.0,0.0,0.0,0.0,0.0,0.0,0.0,0.0,0.0,0.0,0.0,0.0,0.0,0.0,0.0,0.0,0.0,0.0,0.0,0.0,0.0,0.0,0.0,0.0,0.0,0.0,0.0,0.0,0.0,0.0,0.0,0.0,0.0,0.0,0.0,0.0,0.0,0.0,0.0,0.0,0.0,0.0,0.0,0.0,0.0,0.0,0.0,0.0,0.0,0.0,0.0,0.0,0.0,0.0,0.0,0.0,0.0,0.0,0.0,0.0,0.0,0.0,0.0,0.0,0.0,0.0,0.0,0.0,0.0,0.0,0.0,0.0,0.0,0.0,0.0,0.0,0.0,0.0,0.0,0.0,0.0,0.0,0.0,0.0,0.0,0.0,0.0,0.0,0.0,0.0,0.0,0.0,0.0,0.0,0.0,0.0,0.0,0.0,0.0,0.0,0.0,0.0,0.0,0.0,0.0,0.0,0.0,0.0,0.0,0.0,0.0,0.0,0.0,0.0,0.0,0.0,0.0,0.0,0.0,0.0,0.0,0.0,0.0,0.0,0.0,0.0,0.0,0.0,0.0,0.0,0.0,0.0,0.0,0.0,0.0,0.0,0.0,0.0,0.0,0.0,0.0,0.0,0.0,0.0,0.0,0.0,0.0,0.0,0.0,0.0,0.0,0.0,0.0,0.0,0.0,0.0,0.0,0.0,0.0,0.0,0.0,0.0,0.0,0.0,0.0,0.0,0.0,0.0,0.0,0.0,0.0,0.0,0.0,0.0,0.0,0.0,0.0,0.0,0.0,0.0,0.0,0.0,0.0,0.0,0.0,0.0,0.0,0.0,0.0,0.0,0.0,0.0,0.0,0.0,0.0,0.0,0.0,0.0,0.0,0.0,0.0,0.0,0.0,0.0,0.0,0.0,0.0,0.0,0.0,0.0,0.0,0.0,0.0,0.0,0.0,0.0,0.0,0.0,0.0,0.0,0.0,0.0,0.0,0.0,0.0,0.0,0.0,0.0,0.0,0.0,0.0,0.0,0.0,0.0,0.0,0.0,0.0,0.0,0.0,0.0,0.0,0.0,0.0,0.0,0.0,0.0,0.0,0.0,0.0,0.0,0.0,0.0,0.0,0.0,0.0,0.0,0.0,0.0,0.0,0.0,0.0,0.0,0.0,0.0,0.0,0.0,0.0,0.0,0.0,0.0,0.0,0.0,0.0,0.0,0.0,0.0,0.0,0.0,0.0,0.0,0.0,0.0,0.0,0.0,0.0,0.0,0.0,0.0,0.0,0.0,0.0,0.0,0.0,0.0,0.0,0.0,0.0,0.0,0.0,0.0,0.0,0.0,0.0,0.0,0.0,0.0,0.0,0.0,0.0,0.0,0.0,0.0,0.0,0.0,-0.503,0.0,0.0,0.0,0.0,0.0,0.0,0.0,0.0,0.0,0.0,0.0,0.0,0.0,0.0,0.0,0.0,0.0,0.0,0.0,0.0,0.0,0.0,0.0,0.0,0.0,0.0,0.0,0.0,0.0,0.0,0.0,0.0,0.0,0.0,0.0,0.0,0.0,0.0,0.0,0.0,0.0,0.0,0.0,0.0,0.0,0.0,0.0,0.0,0.0,0.0,0.0,0.0,0.0,0.0,0.0,0.0,0.0,0.0,0.0,0.0,0.0,0.0,0.0,0.0,0.0,0.0,0.0,0.0,0.0,0.0,0.0,0.0,0.0,0.0,0.0,0.0,0.0,0.0,0.0,0.0,0.0,0.0,0.0,0.0,0.0,0.0,0.0,0.0,0.0,0.0,0.0,0.0,0.0,0.0,0.0,0.0,0.0,0.0,0.0,0.0,0.0,0.0,0.0,0.0,0.0,0.0,0.0,0.0,0.0,0.0,-0.4764,-0.499,-0.4961,-0.4941,-0.4912,0.0,0.0,0.0,0.0,0.0,0.0,0.0,0.0,0.0,0.0,0.0,0.0,0.0,0.0,0.0,0.0,0.0,0.0,0.0,0.0,0.0,0.0,0.0,0.0,0.0,0.0,0.0,0.0,0.0,0.0,0.0,0.0,0.0,0.0,0.0,0.0,0.0,0.0,0.0,0.0,0.0,0.0,0.0,0.0,0.0,0.0,0.0,0.0,0.0,0.0,0.0,0.0,0.0,0.0,0.0,0.0,0.0,0.0,0.0,0.0,0.0,0.0,0.0,0.0,0.0,0.0,0.0,0.0,0.0,0.0,0.0,0.0,0.0,0.0,0.0,0.0,0.0,0.0,0.0,0.0,0.0,0.0,0.0,0.0,0.0,0.0,0.0,0.0,0.0,0.0,0.0,0.0,0.0,0.0,0.0,0.0,0.0,0.0,0.0,0.0,0.0,0.0,0.0,0.0,0.0,0.0,0.0,0.0,0.0,0.0,0.0,0.0,-0.5005,-0.4966,-0.4954,0.0,0.0,0.0,0.0,0.0,0.0,0.0,0.0,0.0,0.0,0.0,0.0,0.0,0.0,0.0,0.0,0.0,0.0,0.0,0.0,0.0,0.0,0.0,0.0,0.0,0.0,0.0,0.0,0.0,0.0,0.0,0.0,0.0,0.0,0.0,0.0,0.0,0.0,0.0,0.0,0.0,0.0,0.0,0.0,0.0,0.0,0.0,0.0,0.0,0.0,0.0,0.0,0.0,0.0,0.0,0.0,0.0,0.0,0.0,0.0,0.0,0.0,0.0,0.0,0.0,0.0,0.0,0.0,0.0,0.0,0.0,0.0,0.0,0.0,0.0,0.0,0.0,0.0,0.0,0.0,0.0,0.0,0.0,0.0,0.0,0.0,0.0,0.0,0.0,0.0,0.0,0.0,0.0,0.0,0.0,0.0,0.0,0.0,0.0,0.0,0.0,0.0,0.0,0.0,0.0,0.0,0.0,0.0,0.0,0.0,-0.4524,-0.5142,-0.515,0.0,-0.5183,0.0,0.0,0.0,0.0,0.0,0.0,0.0,0.0,0.0,0.0,0.0,0.0,0.0,0.0,0.0,0.0,0.0,0.0,0.0,0.0,0.0,0.0,0.0,0.0,0.0,0.0,0.0,0.0,0.0,0.0,0.0,0.0,0.0,0.0,0.0,0.0,0.0,0.0,0.0,0.0,0.0,0.0,0.0,0.0,0.0,0.0,0.0,0.0,0.0,0.0,0.0,0.0,0.0,0.0,0.0,0.0,0.0,0.0,0.0,0.0,0.0,0.0,0.0,0.0,0.0,0.0,0.0,0.0,0.0,0.0,0.0,0.0,0.0,0.0,0.0,0.0,0.0,0.0,0.0,0.0,0.0,0.0,0.0,0.0,0.0,0.0,0.0,0.0,0.0,0.0,0.0,0.0,0.0,0.0,0.0,0.0,0.0,0.0,0.0,0.0,0.0,0.0,0.0,0.0,0.0,0.0,0.0,0.0,0.0,0.0,0.0,-0.5195,-0.5168,-0.5142,0.0,0.0,0.0,0.0,0.0,0.0,0.0,0.0,0.0,0.0,0.0,0.0,0.0,0.0,0.0,0.0,0.0,0.0,0.0,0.0,0.0,0.0,0.0,0.0,0.0,0.0,0.0,0.0,0.0,0.0,0.0,0.0,0.0,0.0,0.0,0.0,0.0,0.0,0.0,0.0,0.0,0.0,0.0,0.0,0.0,0.0,0.0,0.0,0.0,0.0,0.0,0.0,0.0,0.0,0.0,0.0,0.0,0.0,0.0,0.0,0.0,0.0,0.0,0.0,0.0,0.0,0.0,0.0,0.0,0.0,0.0,0.0,0.0,0.0,0.0,0.0,0.0,0.0,0.0,0.0,0.0,0.0,0.0,0.0,0.0,0.0,0.0,0.0,0.0,0.0,0.0,0.0,0.0,0.0,0.0,0.0,0.0,0.0,0.0,0.0,0.0,0.0,0.0,0.0,0.0,0.0,0.0,0.0,0.0,0.0,-0.506,0.0,-0.5462,-0.5397,-0.53,-0.5114,0.0,0.0,0.0,0.0,0.0,0.0,0.0,0.0,0.0,0.0,0.0,0.0,0.0,0.0,0.0,0.0,0.0,0.0,0.0,0.0,0.0,0.0,0.0,0.0,0.0,0.0,0.0,0.0,0.0,0.0,0.0,0.0,0.0,0.0,0.0,0.0,0.0,0.0,0.0,0.0,0.0,0.0,0.0,0.0,0.0,0.0,0.0,0.0,0.0,0.0,0.0,0.0,0.0,0.0,0.0,0.0,0.0,0.0,0.0,0.0,0.0,0.0,0.0,0.0,0.0,0.0,0.0,0.0,0.0,0.0,0.0,0.0,0.0,0.0,0.0,0.0,0.0,0.0,0.0,0.0,0.0,0.0,0.0,0.0,0.0,0.0,0.0,0.0,0.0,0.0,0.0,0.0,0.0,0.0,0.0,0.0,0.0,0.0,0.0,0.0,0.0,0.0,0.0,0.0,0.0,0.0,0.0,0.0,0.0,-0.5529,-0.551,-0.6136,-0.6075,-0.5773,0.0,0.0,0.0,0.0,0.0,0.0,0.0,0.0,0.0,0.0,0.0,0.0,0.0,0.0,0.0,0.0,0.0,0.0,0.0,0.0,0.0,0.0,0.0,0.0,0.0,0.0,0.0,0.0,0.0,0.0,0.0,0.0,0.0,0.0,0.0,0.0,0.0,0.0,0.0,0.0,0.0,0.0,0.0,0.0,0.0,0.0,0.0,0.0,0.0,0.0,0.0,0.0,0.0,0.0,0.0,0.0,0.0,0.0,0.0,0.0,0.0,0.0,0.0,0.0,0.0,0.0,0.0,0.0,0.0,0.0,0.0,0.0,0.0,0.0,0.0,0.0,0.0,0.0,0.0,0.0,0.0,0.0,0.0,0.0,0.0,0.0,0.0,0.0,0.0,0.0,0.0,0.0,0.0,0.0,0.0,0.0,0.0,0.0,0.0,0.0,0.0,0.0,0.0,0.0,0.0,0.0,0.0,0.0,0.0,-0.4941,-0.5116,-0.5731,-0.6806,-0.5958,-0.5528,0.0,0.0,0.0,0.0,0.0,0.0,0.0,0.0,0.0,0.0,0.0,0.0,0.0,0.0,0.0,0.0,0.0,0.0,0.0,0.0,0.0,0.0,0.0,0.0,0.0,0.0,0.0,0.0,0.0,0.0,0.0,0.0,0.0,0.0,0.0,0.0,0.0,0.0,0.0,0.0,0.0,0.0,0.0,0.0,0.0,0.0,0.0,0.0,0.0,0.0,0.0,0.0,0.0,0.0,0.0,0.0,0.0,0.0,0.0,0.0,0.0,0.0,0.0,0.0,0.0,0.0,0.0,0.0,0.0,0.0,0.0,0.0,0.0,0.0,0.0,0.0,0.0,0.0,0.0,0.0,0.0,0.0,0.0,0.0,0.0,0.0,0.0,0.0,0.0,0.0,0.0,0.0,0.0,0.0,0.0,0.0,0.0,0.0,0.0,0.0,0.0,0.0,0.0,0.0,0.0,0.0,0.0,0.0,0.0,-0.4758,0.0,-0.6183,0.0,-0.5823,-0.5247,0.0,0.0,0.0,0.0,0.0,0.0,0.0,0.0,0.0,0.0,0.0,0.0,0.0,0.0,0.0,0.0,0.0,0.0,0.0,0.0,0.0,0.0,0.0,0.0,0.0,0.0,0.0,0.0,0.0,0.0,0.0,0.0,0.0,0.0,0.0,0.0,0.0,0.0,0.0,0.0,0.0,0.0,0.0,0.0,0.0,0.0,0.0,0.0,0.0,0.0,0.0,0.0,0.0,0.0,0.0,0.0,0.0,0.0,0.0,0.0,0.0,0.0,0.0,0.0,0.0,0.0,0.0,0.0,0.0,0.0,0.0,0.0,0.0,0.0,0.0,0.0,0.0,0.0,0.0,0.0,0.0,0.0,0.0,0.0,0.0,0.0,0.0,0.0,0.0,0.0,0.0,0.0,0.0,0.0,0.0,0.0,0.0,0.0,0.0,0.0,0.0,0.0,0.0,0.0,0.0,0.0,0.0,0.0,-0.4574,-0.5907,-0.6737,-0.6749,-0.5863,-0.5727,-0.4913,0.0,0.0,0.0,0.0,0.0,0.0,0.0,0.0,0.0,0.0,0.0,0.0,0.0,0.0,0.0,0.0,0.0,0.0,0.0,0.0,0.0,0.0,0.0,0.0,0.0,0.0,0.0,0.0,0.0,0.0,0.0,0.0,0.0,0.0,0.0,0.0,0.0,0.0,0.0,0.0,0.0,0.0,0.0,0.0,0.0,0.0,0.0,0.0,0.0,0.0,0.0,0.0,0.0,0.0,0.0,0.0,0.0,0.0,0.0,0.0,0.0,0.0,0.0,0.0,0.0,0.0,0.0,0.0,0.0,0.0,0.0,0.0,0.0,0.0,0.0,0.0,0.0,0.0,0.0,0.0,0.0,0.0,0.0,0.0,0.0,0.0,0.0,0.0,0.0,0.0,0.0,0.0,0.0,0.0,0.0,0.0,0.0,0.0,0.0,0.0,0.0,0.0,0.0,0.0,0.0,0.0,0.0,0.0,0.0,-0.5169,-0.5674,-0.6197,-0.668,-0.5401,-0.4741,0.0,0.0,0.0,0.0,0.0,0.0,0.0,0.0,0.0,0.0,0.0,0.0,0.0,0.0,0.0,0.0,0.0,0.0,0.0,0.0,0.0,0.0,0.0,0.0,0.0,0.0,0.0,0.0,0.0,0.0,0.0,0.0,0.0,0.0,0.0,0.0,0.0,0.0,0.0,0.0,0.0,0.0,0.0,0.0,0.0,0.0,0.0,0.0,0.0,0.0,0.0,0.0,0.0,0.0,0.0,0.0,0.0,0.0,0.0,0.0,0.0,0.0,0.0,0.0,0.0,0.0,0.0,0.0,0.0,0.0,0.0,0.0,0.0,0.0,0.0,0.0,0.0,0.0,0.0,0.0,0.0,0.0,0.0,0.0,0.0,0.0,0.0,0.0,0.0,0.0,0.0,0.0,0.0,0.0,0.0,0.0,0.0,0.0,0.0,0.0,0.0,0.0,0.0,0.0,0.0,0.0,0.0,0.0,0.0,-0.5363,-0.593,-0.644,-0.6862,-0.5484,-0.4753,-0.4847,0.0,0.0,0.0,0.0,0.0,0.0,0.0,0.0,0.0,0.0,0.0,0.0,0.0,0.0,0.0,0.0,0.0,0.0,0.0,0.0,0.0,0.0,0.0,0.0,0.0,0.0,0.0,0.0,0.0,0.0,0.0,0.0,0.0,0.0,0.0,0.0,0.0,0.0,0.0,0.0,0.0,0.0,0.0,0.0,0.0,0.0,0.0,0.0,0.0,0.0,0.0,0.0,0.0,0.0,0.0,0.0,0.0,0.0,0.0,0.0,0.0,0.0,0.0,0.0,0.0,0.0,0.0,0.0,0.0,0.0,0.0,0.0,0.0,0.0,0.0,0.0,0.0,0.0,0.0,0.0,0.0,0.0,0.0,0.0,0.0,0.0,0.0,0.0,0.0,0.0,0.0,0.0,0.0,0.0,0.0,0.0,0.0,0.0,0.0,0.0,0.0,0.0,0.0,0.0,0.0,0.0,0.0,0.0,-0.6249,-0.7244,-0.7335,-0.6437,-0.5843,-0.4951,0.0,0.0,0.0,0.0,0.0,0.0,0.0,0.0,0.0,0.0,0.0,0.0,0.0,0.0,0.0,0.0,0.0,0.0,0.0,0.0,0.0,0.0,0.0,0.0,0.0,0.0,0.0,0.0,0.0,0.0,0.0,0.0,0.0,0.0,0.0,0.0,0.0,0.0,0.0,0.0,0.0,0.0,0.0,0.0,0.0,0.0,0.0,0.0,0.0,0.0,0.0,0.0,0.0,0.0,0.0,0.0,0.0,0.0,0.0,0.0,0.0,0.0,0.0,0.0,0.0,0.0,0.0,0.0,0.0,0.0,0.0,0.0,0.0,0.0,0.0,0.0,0.0,0.0,0.0,0.0,0.0,0.0,0.0,0.0,0.0,0.0,0.0,0.0,0.0,0.0,0.0,0.0,0.0,0.0,0.0,0.0,0.0,0.0,0.0,0.0,0.0,0.0,0.0,0.0,0.0,0.0,0.0,0.0,0.0,-0.5868,-0.6783,-0.7419,-0.7579,-0.5867,-0.4887,0.0,0.0,0.0,0.0,0.0,0.0,0.0,0.0,0.0,0.0,0.0,0.0,0.0,0.0,0.0,0.0,0.0,0.0,0.0,0.0,0.0,0.0,0.0,0.0,0.0,0.0,0.0,0.0,0.0,0.0,0.0,0.0,0.0,0.0,0.0,0.0,0.0,0.0,0.0,0.0,0.0,0.0,0.0,0.0,0.0,0.0,0.0,0.0,0.0,0.0,0.0,0.0,0.0,0.0,0.0,0.0,0.0,0.0,0.0,0.0,0.0,0.0,0.0,0.0,0.0,0.0,0.0,0.0,0.0,0.0,0.0,0.0,0.0,0.0,0.0,0.0,0.0,0.0,0.0,0.0,0.0,0.0,0.0,0.0,0.0,0.0,0.0,0.0,0.0,0.0,0.0,0.0,0.0,0.0,0.0,0.0,0.0,0.0,0.0,0.0,0.0,0.0,0.0,0.0,0.0,0.0,0.0,0.0,-0.5378,-0.625,-0.6717,-0.7194,-0.765,-0.6105,-0.5163,0.0,0.0,0.0,0.0,0.0,0.0,0.0,0.0,0.0,0.0,0.0,0.0,0.0,0.0,0.0,0.0,0.0,0.0,0.0,0.0,0.0,0.0,0.0,0.0,0.0,0.0,0.0,0.0,0.0,0.0,0.0,0.0,0.0,0.0,0.0,0.0,0.0,0.0,0.0,0.0,0.0,0.0,0.0,0.0,0.0,0.0,0.0,0.0,0.0,0.0,0.0,0.0,0.0,0.0,0.0,0.0,0.0,0.0,0.0,0.0,0.0,0.0,0.0,0.0,0.0,0.0,0.0,0.0,0.0,0.0,0.0,0.0,0.0,0.0,0.0,0.0,0.0,0.0,0.0,0.0,0.0,0.0,0.0,0.0,0.0,0.0,0.0,0.0,0.0,0.0,0.0,0.0,0.0,0.0,0.0,0.0,0.0,0.0,0.0,0.0,0.0,0.0,0.0,0.0,0.0,0.0,0.0,0.0,-0.5704,-0.6935,-0.6797,-0.6815,-0.6961,-0.6319,-0.5576,0.0,0.0,0.0,0.0,0.0,0.0,0.0,0.0,0.0,0.0,0.0,0.0,0.0,0.0,0.0,0.0,0.0,0.0,0.0,0.0,0.0,0.0,0.0,0.0,0.0,0.0,0.0,0.0,0.0,0.0,0.0,0.0,0.0,0.0,0.0,0.0,0.0,0.0,0.0,0.0,0.0,0.0,0.0,0.0,0.0,0.0,0.0,0.0,0.0,0.0,0.0,0.0,0.0,0.0,0.0,0.0,0.0,0.0,0.0,0.0,0.0,0.0,0.0,0.0,0.0,0.0,0.0,0.0,0.0,0.0,0.0,0.0,0.0,0.0,0.0,0.0,0.0,0.0,0.0,0.0,0.0,0.0,0.0,0.0,0.0,0.0,0.0,0.0,0.0,0.0,0.0,0.0,0.0,0.0,0.0,0.0,0.0,0.0,0.0,0.0,0.0,0.0,0.0,0.0,0.0,0.0,0.0,0.0,-0.56,-0.6155,-0.6503,-0.6598,-0.6386,-0.5923,-0.5472,0.0,0.0,0.0,0.0,0.0,0.0,0.0,0.0,0.0,0.0,0.0,0.0,0.0,0.0,0.0,0.0,0.0,0.0,0.0,0.0,0.0,0.0,0.0,0.0,0.0,0.0,0.0,0.0,0.0,0.0,0.0,0.0,0.0,0.0,0.0,0.0,0.0,0.0,0.0,0.0,0.0,0.0,0.0,0.0,0.0,0.0,0.0,0.0,-0.0615,0.0,0.0,0.0,0.0,0.0,0.0,0.0,0.0,0.0,0.0,0.0,0.0,0.0,0.0,0.0,0.0,0.0,0.0,0.0,0.0,0.0,0.0,0.0,0.0,0.0,0.0,0.0,0.0,0.0,0.0,0.0,0.0,0.0,0.0,0.0,0.0,0.0,0.0,0.0,0.0,0.0,0.0,0.0,0.0,0.0,0.0,0.0,0.0,0.0,0.0,0.0,0.0,0.0,0.0,0.0,0.0,0.0,0.0,0.0,-0.5649,-0.6232,-0.6376,-0.6391,-0.6223,-0.6015,-0.561,0.0,0.0,0.0,0.0,0.0,0.0,0.0,0.0,0.0,0.0,0.0,0.0,0.0,0.0,0.0,0.0,0.0,0.0,0.0,0.0,0.0,0.0,0.0,0.0,0.0,0.0,0.0,0.0,0.0,0.0,0.0,0.0,0.0,0.0,0.0,0.0,0.0,0.0,0.0,0.0,0.0,0.0,0.0,0.0,0.0,0.0,0.0,0.0,0.0,0.0,0.0,0.0,0.0,0.0,0.0,0.0,0.0,0.0,0.0,0.0,0.0,0.0,0.0,0.0,0.0,0.0,0.0,0.0,0.0,0.0,0.0,0.0,0.0,0.0,0.0,0.0,0.0,0.0,0.0,0.0,0.0,0.0,0.0,0.0,0.0,0.0,0.0,0.0,0.0,0.0,0.0,0.0,0.0,0.0,0.0,0.0,0.0,0.0,0.0,0.0,0.0,0.0,0.0,0.0,0.0,0.0,0.0,-0.5101,-0.5702,-0.6563,-0.6337,-0.6173,-0.6173,-0.6173,-0.5845,-0.5023,0.0,0.0,0.0,0.0,0.0,0.0,0.0,0.0,0.0,0.0,0.0,0.0,0.0,0.0,0.0,0.0,0.0,0.0,0.0,0.0,0.0,0.0,0.0,0.0,0.0,0.0,0.0,0.0,0.0,0.0,0.0,0.0,0.0,0.0,0.0,0.0,0.0,0.0,-0.0783,-0.0986,0.0,0.0,0.0,0.0,0.0,0.0,0.0,0.0,-0.0721,0.0,0.0,0.0,0.0,0.0,0.0,0.0,0.0,0.0,0.0,0.0,0.0,0.0,0.0,0.0,0.0,0.0,0.0,0.0,0.0,0.0,0.0,0.0,0.0,0.0,0.0,0.0,0.0,0.0,0.0,0.0,0.0,0.0,0.0,0.0,0.0,0.0,0.0,0.0,0.0,0.0,0.0,0.0,0.0,0.0,0.0,0.0,0.0,0.0,0.0,0.0,0.0,0.0,0.0,0.0,0.0,-0.4947,-0.5029,-0.5472,-0.6258,-0.6232,-0.6173,-0.6173,-0.6173,-0.584,-0.5027,0.0,0.0,0.0,0.0,0.0,0.0,0.0,0.0,0.0,0.0,0.0,0.0,0.0,0.0,0.0,0.0,0.0,0.0,0.0,0.0,0.0,0.0,0.0,0.0,0.0,0.0,0.0,0.0,0.0,0.0,0.0,0.0,0.0,0.0,0.0,0.0,0.0,0.0,0.0,-0.0963,-0.0991,0.0,0.0,0.0,0.0,0.0,0.0,0.0,0.0,-0.0745,0.0,0.0,0.0,0.0,0.0,0.0,0.0,0.0,0.0,0.0,0.0,0.0,0.0,0.0,0.0,0.0,0.0,0.0,0.0,0.0,0.0,0.0,0.0,0.0,0.0,0.0,0.0,0.0,0.0,0.0,0.0,0.0,0.0,0.0,0.0,0.0,0.0,0.0,0.0,0.0,0.0,0.0,0.0,0.0,0.0,0.0,0.0,0.0,0.0,0.0,0.0,0.0,0.0,0.0,0.0,-0.4838,-0.5245,-0.5713,-0.6154,-0.6173,-0.6173,-0.6168,-0.5972,-0.5564,0.0,0.0,0.0,0.0,0.0,0.0,0.0,0.0,0.0,0.0,0.0,0.0,0.0,0.0,0.0,0.0,0.0,0.0,0.0,0.0,0.0,0.0,0.0,0.0,0.0,0.0,0.0,0.0,0.0,0.0,0.0,0.0,0.0,0.0,0.0,0.0,0.0,0.0,0.0,0.0,-0.1015,-0.1122,-0.109,0.0,0.0,0.0,0.0,0.0,0.0,-0.0753,-0.068,0.0,0.0,0.0,0.0,0.0,0.0,0.0,0.0,0.0,0.0,0.0,0.0,0.0,0.0,0.0,0.0,0.0,0.0,0.0,0.0,0.0,0.0,0.0,0.0,0.0,0.0,0.0,0.0,0.0,0.0,0.0,0.0,0.0,0.0,0.0,0.0,0.0,0.0,0.0,0.0,0.0,0.0,0.0,0.0,0.0,0.0,0.0,0.0,0.0,0.0,0.0,0.0,0.0,0.0,0.0,-0.4709,-0.5405,-0.593,-0.6159,-0.6173,-0.6173,-0.6168,-0.5906,-0.5346,0.0,0.0,0.0,0.0,0.0,0.0,0.0,0.0,0.0,0.0,0.0,0.0,0.0,0.0,0.0,0.0,0.0,0.0,0.0,0.0,0.0,0.0,0.0,0.0,0.0,0.0,0.0,0.0,0.0,0.0,0.0,0.0,0.0,0.0,0.0,0.0,0.0,0.0,0.0,0.0,0.0,-0.1148,-0.1221,-0.1133,0.0,0.0,0.0,0.0,-0.0875,-0.076,0.0,0.0,0.0,0.0,0.0,0.0,0.0,0.0,0.0,0.0,0.0,0.0,0.0,0.0,0.0,0.0,0.0,0.0,0.0,0.0,0.0,0.0,0.0,0.0,0.0,0.0,0.0,0.0,0.0,0.0,0.0,0.0,0.0,0.0,0.0,0.0,0.0,0.0,0.0,0.0,0.0,0.0,0.0,0.0,0.0,0.0,0.0,0.0,0.0,0.0,0.0,0.0,0.0,0.0,0.0,0.0,-0.4685,-0.5122,-0.5642,-0.614,-0.6173,-0.6173,-0.6173,-0.6131,-0.5631,0.0,0.0,0.0,0.0,0.0,0.0,0.0,0.0,0.0,0.0,0.0,0.0,0.0,0.0,0.0,0.0,0.0,0.0,0.0,0.0,0.0,0.0,0.0,0.0,0.0,0.0,0.0,0.0,0.0,0.0,0.0,0.0,0.0,0.0,0.0,0.0,0.0,0.0,0.0,0.0,0.0,-0.1028,-0.095,-0.0946,-0.0898,0.0,0.0,-0.0904,-0.0985,-0.091,0.0,0.0,0.0,0.0,0.0,0.0,0.0,0.0,0.0,0.0,0.0,0.0,0.0,0.0,0.0,0.0,0.0,0.0,0.0,0.0,0.0,0.0,0.0,0.0,0.0,0.0,0.0,0.0,0.0,0.0,0.0,0.0,0.0,0.0,0.0,0.0,0.0,0.0,0.0,0.0,0.0,0.0,0.0,0.0,0.0,0.0,0.0,0.0,0.0,0.0,0.0,0.0,0.0,0.0,0.0,-0.429,-0.4843,-0.549,-0.5954,-0.6164,-0.6173,-0.6173,-0.6173,-0.5953,-0.5441,0.0,0.0,0.0,0.0,0.0,0.0,0.0,0.0,0.0,0.0,0.0,0.0,0.0,0.0,0.0,0.0,0.0,0.0,0.0,0.0,0.0,0.0,0.0,0.0,0.0,0.0,0.0,0.0,0.0,0.0,0.0,0.0,0.0,0.0,0.0,0.0,0.0,0.0,0.0,0.0,0.0,0.0,-0.1215,-0.1169,0.0,0.0,0.0,-0.0935,-0.0962,0.0,0.0,0.0,0.0,0.0,0.0,0.0,0.0,0.0,0.0,0.0,0.0,0.0,0.0,0.0,0.0,0.0,0.0,0.0,0.0,0.0,0.0,0.0,0.0,0.0,0.0,0.0,0.0,0.0,0.0,0.0,0.0,0.0,0.0,0.0,0.0,0.0,0.0,0.0,0.0,0.0,0.0,0.0,0.0,0.0,0.0,0.0,0.0,0.0,0.0,0.0,0.0,0.0,0.0,0.0,0.0,0.0,-0.499,-0.5812,-0.6173,-0.6173,-0.6173,-0.6173,-0.6168,-0.593,0.0,0.0,0.0,0.0,0.0,0.0,0.0,0.0,0.0,0.0,0.0,0.0,0.0,0.0,0.0,0.0,0.0,0.0,0.0,0.0,0.0,0.0,0.0,0.0,0.0,0.0,0.0,-0.1957,0.0,0.0,0.0,0.0,0.0,0.0,0.0,0.0,0.0,0.0,0.0,0.0,0.0,0.0,-0.1269,-0.1448,-0.1424,-0.1384,0.0,0.0,-0.1004,-0.1061,-0.1036,-0.1021,0.0,0.0,0.0,0.0,0.0,0.0,0.0,0.0,0.0,0.0,0.0,0.0,0.0,0.0,0.0,0.0,0.0,0.0,0.0,0.0,0.0,0.0,0.0,0.0,0.0,0.0,0.0,0.0,0.0,0.0,0.0,0.0,0.0,0.0,0.0,0.0,0.0,0.0,0.0,0.0,0.0,0.0,0.0,0.0,0.0,0.0,0.0,0.0,0.0,0.0,0.0,0.0,0.0,0.0,0.0,-0.4999,-0.5812,-0.6232,-0.6178,-0.6173,-0.6173,-0.6173,-0.6145,-0.5641,0.0,0.0,0.0,0.0,0.0,0.0,0.0,0.0,0.0,0.0,0.0,0.0,0.0,0.0,0.0,0.0,0.0,0.0,0.0,0.0,0.0,0.0,0.0,0.0,0.0,0.0,0.0,0.0,0.0,0.0,0.0,0.0,0.0,0.0,0.0,0.0,0.0,0.0,0.0,0.0,0.0,-0.1279,-0.1397,-0.1471,-0.1465,0.0,0.0,-0.1173,-0.1168,-0.1028,-0.0866,-0.0825,0.0,0.0,0.0,0.0,0.0,0.0,0.0,0.0,0.0,0.0,0.0,0.0,0.0,0.0,0.0,0.0,0.0,0.0,0.0,0.0,0.0,0.0,0.0,0.0,0.0,0.0,0.0,0.0,0.0,0.0,0.0,0.0,0.0,0.0,0.0,0.0,0.0,0.0,0.0,0.0,0.0,0.0,0.0,0.0,0.0,0.0,0.0,0.0,0.0,0.0,0.0,0.0,0.0,-0.4759,-0.5033,-0.6005,-0.6495,-0.6495,-0.6282,-0.6391,-0.6766,-0.6391,-0.5831,0.0,0.0,0.0,0.0,0.0,0.0,0.0,0.0,0.0,0.0,0.0,0.0,0.0,0.0,0.0,0.0,0.0,0.0,0.0,0.0,0.0,0.0,0.0,0.0,0.0,0.0,0.0,0.0,-0.21,-0.2079,-0.2046,0.0,0.0,0.0,0.0,0.0,0.0,0.0,0.0,0.0,0.0,-0.1916,-0.1616,-0.162,0.0,0.0,-0.1612,-0.1486,-0.1519,-0.1381,-0.122,-0.1126,-0.109,0.0,0.0,0.0,0.0,0.0,0.0,0.0,0.0,0.0,0.0,0.0,0.0,0.0,0.0,0.0,0.0,0.0,0.0,0.0,0.0,0.0,0.0,0.0,0.0,0.0,0.0,0.0,0.0,0.0,0.0,0.0,0.0,0.0,0.0,0.0,0.0,0.0,0.0,0.0,0.0,0.0,0.0,0.0,0.0,0.0,0.0,0.0,0.0,0.0,0.0,0.0,0.0,-0.4913,-0.5154,-0.6314,-0.6913,-0.6968,-0.6704,-0.6814,-0.7187,-0.6742,-0.6247,0.0,0.0,0.0,0.0,0.0,0.0,0.0,0.0,0.0,0.0,0.0,0.0,0.0,0.0,0.0,0.0,0.0,0.0,0.0,0.0,0.0,0.0,0.0,0.0,0.0,0.0,0.0,0.0,-0.217,-0.2107,-0.1901,0.0,0.0,0.0,0.0,0.0,0.0,0.0,0.0,0.0,0.0,-0.2272,-0.2111,-0.1988,-0.1899,-0.2027,-0.1855,-0.1659,-0.1732,-0.1603,-0.1452,-0.1362,0.0,0.0,0.0,0.0,0.0,0.0,0.0,0.0,0.0,0.0,0.0,0.0,0.0,0.0,0.0,0.0,0.0,0.0,0.0,0.0,0.0,0.0,0.0,0.0,0.0,0.0,0.0,-0.2817,0.0,0.0,-0.2562,0.0,0.0,0.0,0.0,0.0,0.0,0.0,0.0,0.0,0.0,0.0,0.0,0.0,0.0,0.0,0.0,0.0,0.0,0.0,0.0,0.0,0.0,-0.4992,-0.541,-0.6774,-0.748,-0.748,-0.748,-0.748,-0.7526,-0.7203,-0.6905,-0.6455,0.0,0.0,0.0,0.0,0.0,0.0,0.0,0.0,0.0,0.0,0.0,0.0,0.0,0.0,0.0,0.0,0.0,0.0,0.0,0.0,0.0,0.0,0.0,0.0,0.0,0.0,-0.2124,-0.2271,-0.2311,0.0,0.0,0.0,0.0,0.0,0.0,0.0,0.0,0.0,0.0,-0.214,-0.2115,-0.2943,-0.2571,-0.2149,-0.2218,-0.1971,-0.179,-0.174,-0.1604,-0.1448,0.0,0.0,0.0,0.0,0.0,0.0,0.0,0.0,0.0,0.0,0.0,0.0,0.0,0.0,0.0,0.0,0.0,0.0,0.0,0.0,0.0,0.0,0.0,0.0,0.0,0.0,0.0,-0.4894,-0.4653,0.0,0.0,0.0,0.0,0.0,0.0,0.0,0.0,0.0,0.0,0.0,-0.7125,-0.7546,0.0,0.0,0.0,0.0,0.0,0.0,0.0,0.0,0.0,0.0,0.0,0.0,-0.5465,-0.5909,-0.71,-0.7852,-0.801,-0.7846,-0.7838,-0.801,-0.7577,-0.705,-0.6316,0.0,0.0,0.0,0.0,0.0,0.0,0.0,0.0,0.0,0.0,0.0,0.0,0.0,0.0,0.0,0.0,0.0,0.0,0.0,0.0,0.0,0.0,0.0,0.0,0.0,-0.2481,0.0,0.0,0.0,0.0,0.0,0.0,0.0,0.0,0.0,0.0,0.0,-0.3308,-0.2927,-0.3088,-0.3073,-0.2576,-0.2312,-0.2228,0.0,0.0,0.0,0.0,0.0,0.0,0.0,0.0,0.0,0.0,0.0,0.0,0.0,0.0,-0.1869,-0.1569,-0.1349,-0.1247,-0.133,0.0,0.0,0.0,0.0,0.0,0.0,0.0,0.0,0.0,0.0,0.0,0.0,0.0,0.0,-0.6237,0.0,-0.5849,0.0,0.0,0.0,0.0,0.0,0.0,0.0,0.0,-0.7944,-0.8493,-0.8489,-0.8848,-0.8749,0.0,-0.7891,-0.7001,0.0,0.0,0.0,0.0,0.0,0.0,0.0,0.0,-0.6186,-0.6553,-0.772,-0.8405,-0.8562,-0.84,-0.8345,-0.8429,-0.7908,-0.7359,-0.6729,-0.6208,-0.5638,0.0,0.0,0.0,0.0,0.0,0.0,0.0,0.0,0.0,0.0,0.0,0.0,0.0,0.0,0.0,0.0,0.0,0.0,0.0,0.0,0.0,0.0,0.0,-0.2707,0.0,0.0,0.0,0.0,0.0,0.0,0.0,0.0,0.0,-0.4316,-0.4402,-0.4368,-0.403,-0.4167,-0.4051,-0.3582,0.0,0.0,0.0,0.0,0.0,0.0,0.0,-0.1972,-0.2095,-0.1892,-0.1787,-0.1835,-0.2025,-0.2127,-0.2106,0.0,0.0,-0.1905,-0.1782,-0.179,-0.1894,-0.1854,-0.186,-0.1801,-0.1831,-0.1723,0.0,0.0,0.0,0.0,0.0,0.0,0.0,0.0,-0.7149,-0.7195,0.0,-0.695,0.0,0.0,0.0,0.0,0.0,-0.7256,0.0,0.0,-0.936,-0.991,-0.9886,-0.9676,-0.967,-0.9886,-0.985,-0.9253,-0.8043,-0.6269,0.0,0.0,0.0,0.0,0.0,0.0,-0.7112,-0.7361,-0.8485,-0.9126,-0.9138,-0.9082,-0.895,-0.8675,-0.8189,-0.7793,-0.7613,-0.7144,-0.6573,-0.5867,-0.5,0.0,0.0,0.0,0.0,0.0,0.0,0.0,0.0,0.0,0.0,0.0,0.0,0.0,0.0,0.0,0.0,0.0,0.0,0.0,0.0,-0.2825,0.0,0.0,0.0,0.0,0.0,0.0,0.0,0.0,0.0,0.0,-0.5119,-0.4734,-0.4795,-0.5675,0.0,0.0,0.0,0.0,-0.4514,-0.373,-0.3582,-0.3266,-0.2343,-0.2235,-0.2249,-0.2202,0.0,0.0,-0.2199,-0.2236,-0.2261,-0.2202,-0.2248,-0.2332,-0.2283,-0.224,-0.2238,-0.2258,-0.22,-0.2228,-0.2225,-0.215,-0.2154,-0.9192,0.0,0.0,0.0,0.0,-0.8354,-0.8788,-0.9346,-0.9544,-0.9473,-0.9048,-0.8794,0.0,0.0,0.0,0.0,0.0,0.0,-0.9149,-0.9724,-1.0395,-1.0773,-1.0779,-1.0906,-1.0803,-1.0496,-1.0239,-0.9898,-0.9342,-0.8646,-0.7466,-0.5815,0.0,0.0,0.0,0.0,-0.7489,-0.8096,-0.8759,-0.9166,-0.9358,-0.9364,-0.9142,-0.8687,-0.8357,-0.8057,-0.7846,-0.7581,-0.7145,-0.6597,-0.5837,0.0,0.0,0.0,0.0,0.0,0.0,0.0,0.0,0.0,0.0,0.0,0.0,0.0,0.0,0.0,0.0,0.0,0.0,0.0,-0.334,-0.3397,-0.3625,0.0,0.0,0.0,0.0,0.0,0.0,0.0,0.0,0.0,-0.704,-0.6603,-0.6135,0.0,0.0,-0.551,-0.54,-0.4667,-0.4031,-0.3932,-0.3392,0.0,-0.2567,-0.2506,-0.2484,-0.2552,-0.2578,-0.2583,-0.2567,-0.2579,-0.2585,-0.2564,-0.2579,-0.256,-0.2459,-0.2369,-0.2327,-0.2346,-0.2317,-0.2285,-0.2283,-0.2283,-0.2285,-1.1459,-1.0443,-0.9439,-0.9234,-0.9541,-0.9855,-1.029,-1.0736,-1.0965,-1.0924,-1.0707,-1.0377,-1.0001,-0.9358,-0.8998,0.0,0.0,0.0,-1.0253,-1.0828,-1.1238,-1.1431,-1.1443,-1.1606,-1.1516,-1.119,-1.093,-1.0671,-1.0329,-1.0071,-0.9211,-0.7715,0.0,0.0,-0.7548,-0.7874,-0.8291,-0.8792,-0.9086,-0.931,-0.9478,-0.9376,-0.9118,-0.8693,-0.8429,-0.8165,-0.7907,-0.7798,-0.753,-0.7217,-0.6572,-0.5896,0.0,0.0,0.0,0.0,0.0,0.0,0.0,0.0,0.0,0.0,0.0,-0.3321,0.0,0.0,0.0,0.0,-0.3364,-0.3756,-0.4267,-0.4459,0.0,0.0,0.0,0.0,0.0,0.0,0.0,-0.7031,-0.761,-0.7997,-0.8156,-0.7979,-0.7629,-0.706,-0.6995,-0.6915,-0.6627,0.0,-0.5669,-0.5333,-0.4853,-0.4274,-0.3857,-0.3609,-0.3336,-0.326,-0.3276,-0.3278,-0.3278,-0.3276,-0.3276,-0.3276,-0.3276,-0.3084,-0.2676,-0.2758,-0.2866,-0.2584,-0.2493,-0.2478,-0.2477,-0.2477,-0.2477,-1.3411,-1.3037,-1.0995,-1.0497,-1.093,-1.1172,-1.1437,-1.1685,-1.1691,-1.1811,-1.1999,-1.1763,-1.1492,-1.1178,-1.0683,0.0,-1.0828,-1.1087,-1.1347,-1.16,-1.186,-1.1974,-1.1956,-1.195,-1.1944,-1.1914,-1.1673,-1.1425,-1.1166,-1.0906,-1.0544,-0.9994,-0.9518,-0.9235,-0.9163,-0.9188,-0.9331,-0.9538,-0.955,-0.9532,-0.9514,-0.9244,-0.8968,-0.8687,-0.8447,-0.8189,-0.7919,-0.7901,-0.7834,-0.7638,-0.7179,-0.666,-0.5926,0.0,0.0,0.0,0.0,0.0,0.0,0.0,0.0,0.0,0.0,0.0,0.0,0.0,0.0,0.0,-0.447,0.0,-0.532,-0.5708,0.0,0.0,0.0,-0.6455,-0.647,-0.7187,-0.7785,-0.7927,0.0,0.0,-0.8759,-0.8927,-0.8968,-0.8808,-0.8704,-0.8686,-0.8704,-0.8526,-0.8288,-0.7224,-0.6968,-0.6552,-0.5412,-0.489,-0.4471,-0.4147,-0.413,-0.4059,-0.4059,-0.4059,-0.4053,-0.4059,-0.4135,-0.3882,-0.3043,-0.354,-0.388,-0.3037,-0.2857,-0.2853,-0.2758,-0.2838,-0.2836,-1.3779,-1.3664,-1.2937,-1.2589,-1.256,-1.262,-1.2795,-1.3043,-1.3049,-1.297,-1.2831,-1.2777,-1.2475,-1.2011,-1.1691,-1.1582,-1.1655,-1.1908,-1.2065,-1.2143,-1.2397,-1.2415,-1.2222,-1.2222,-1.2113,-1.1926,-1.186,-1.1799,-1.1715,-1.1467,-1.1274,-1.1129,-1.061,-1.0107,-0.9718,-0.9712,-0.9808,-1.0077,-1.014,-0.9982,-0.9784,-0.952,-0.916,-0.8687,-0.8615,-0.8369,-0.7925,-0.7901,-0.7871,-0.7805,-0.7599,-0.7267,-0.688,-0.5875,0.0,0.0,0.0,0.0,0.0,0.0,0.0,0.0,0.0,-0.4724,-0.3492,0.0,-0.4857,0.0,-0.4895,-0.5377,-0.5954,-0.6095,0.0,0.0,-0.7248,-0.7489,-0.8047,-0.829,-0.8562,-0.8702,-0.9133,-0.9414,-0.9414,-0.9592,-0.9719,-0.9714,-0.9117,-0.873,-0.8866,-0.8295,-0.7831,-0.7595,-0.6663,-0.5714,-0.5534,-0.4844,-0.4404,-0.4234,-0.4232,-0.4234,-0.4234,-0.4234,-0.4234,-0.4234,-0.4236,-0.4236,-0.4322,-0.4324,-0.4322,-0.423,-0.4042,-0.361,-0.3278,-0.353,-0.3528,-1.4081,-1.4063,-1.3924,-1.3779,-1.3634,-1.3405,-1.3375,-1.3513,-1.3513,-1.3435,-1.3296,-1.3302,-1.3127,-1.285,-1.2699,-1.2632,-1.2644,-1.2783,-1.2789,-1.2687,-1.2819,-1.2747,-1.2487,-1.2487,-1.2409,-1.227,-1.2149,-1.2095,-1.2083,-1.183,-1.1703,-1.1697,-1.1286,-1.0936,-1.0647,-1.0297,-1.0173,-1.0502,-1.0387,-1.0137,-0.988,-0.973,-0.934,-0.8705,-0.8675,-0.8435,-0.7919,-0.7901,-0.7901,-0.7901,-0.781,-0.7656,-0.7382,-0.6586,-0.5954,0.0,0.0,0.0,0.0,0.0,0.0,0.0,0.0,0.0,0.0,0.0,-0.5547,-0.55,-0.5963,-0.6478,-0.7002,-0.731,-0.7669,-0.8141,-0.825,-0.8439,-0.8807,-0.9011,-0.9167,-0.9289,-0.9667,-0.9927,-0.9927,-1.0102,-1.023,-1.0225,-0.986,-0.9511,-0.9443,-0.8996,-0.8685,-0.8519,-0.7834,-0.7037,-0.6511,-0.5983,-0.5542,-0.5015,-0.4926,-0.4926,-0.4926,-0.4926,-0.4924,-0.4926,-0.4926,-0.5015,-0.5196,-0.5107,-0.5015,-0.5092,-0.5012,-0.459,-0.3978,-0.3978,-0.3976,-1.4298,-1.4298,-1.4298,-1.4298,-1.4262,-1.3809,-1.3616,-1.3616,-1.3616,-1.3616,-1.3616,-1.358,-1.3568,-1.3568,-1.3532,-1.3513,-1.3513,-1.3513,-1.3393,-1.3181,-1.3175,-1.3031,-1.2759,-1.2759,-1.2741,-1.2693,-1.2475,-1.2367,-1.2355,-1.2101,-1.1974,-1.1962,-1.1709,-1.1582,-1.1546,-1.0846,-1.058,-1.0761,-1.0508,-1.0266,-1.0043,-0.9977,-0.952,-0.8819,-0.8717,-0.8453,-0.7979,-0.7949,-0.7949,-0.7949,-0.7949,-0.7841,-0.7704,-0.7217,-0.6783,0.0,-0.5941,0.0,0.0,0.0,0.0,0.0,0.0,0.0,0.0,-0.609,-0.628,-0.6695,-0.7281,-0.7792,-0.8165,-0.8694,-0.8973,-0.885,-0.9148,-0.9304,-0.9181,-0.9488,-0.9729,-0.9644,-1.0069,-1.031,-1.031,-1.0466,-1.057,-1.0546,-1.0518,-1.0386,-1.0116,-1.0041,-0.9874,-0.9768,-0.968,-0.8831,-0.7841,-0.7563,-0.7207,-0.6317,-0.5975,-0.5869,-0.5882,-0.5787,-0.5695,-0.5697,-0.5705,-0.57,-0.5779,-0.5697,-0.5695,-0.5703,-0.5697,-0.5402,-0.465,-0.4461,-0.4389,-1.4298,-1.4298,-1.4298,-1.4298,-1.4286,-1.4189,-1.4147,-1.4147,-1.4147,-1.4147,-1.4129,-1.393,-1.3833,-1.3815,-1.361,-1.3513,-1.3513,-1.3513,-1.3489,-1.3441,-1.3441,-1.3296,-1.3055,-1.3049,-1.2922,-1.2711,-1.2656,-1.2632,-1.262,-1.2367,-1.224,-1.2234,-1.1974,-1.1848,-1.183,0.0,0.0,0.0,-1.0779,-1.0622,-1.0562,-1.0089,-0.97,-0.934,-0.8908,0.0,-0.8237,-0.8213,-0.8213,-0.8213,-0.8213,0.0,0.0,0.0,0.0,0.0,0.0,0.0,0.0,0.0,0.0,0.0,-0.7616,-0.7207,-0.6625,-0.6929,-0.7338,-0.7754,-0.8203,-0.8576,-0.8817,-0.8949,-0.9148,-0.9353,-0.954,-0.9634,-0.9762,-0.9998,-1.0154,-1.0159,-1.0367,-1.0518,-1.0523,-1.0556,-1.0579,-1.0594,-1.0575,-1.0546,-1.0475,-1.0442,-1.0452,-1.036,-0.9958,-0.9238,-0.8417,-0.8313,-0.8302,-0.7962,-0.7409,-0.7034,-0.6935,-0.6383,-0.6015,-0.601,-0.6018,-0.6013,-0.601,-0.6018,-0.6005,-0.6015,-0.6013,-0.5773,-0.5049,-0.5193,-0.5196,-1.4298,0.0,-1.4298,-1.4298,0.0,-1.4298,-1.4298,-1.4298,-1.4298,-1.4298,-1.4286,-1.4533,-1.4659,-1.4653,-1.4515,-1.4638,-1.5008,-1.5015,-1.493,-1.4793,-1.4787,-1.4463,-1.3849,-1.3849,-1.3523,-1.2916,-1.2916,-1.2837,-1.2705,-1.2572,-1.2506,-1.2506,-1.2246,-1.2119,-1.2107,-1.1854,-1.1522,-1.1117,-1.0979,-1.0852,-1.0719,-1.0459,-1.0073,-0.9502,-0.922,0.0,0.0,0.0,0.0,0.0,0.0,0.0,0.0,0.0,0.0,-0.8158,-0.81,-0.7949,-0.7765,-0.8007,-0.8445,-0.9089,-0.9165,-0.8898,-0.811,-0.7921,-0.8195,-0.9163,-0.9718,-0.9887,-0.9653,-0.9751,-0.9814,-0.9771,-0.9894,-0.9998,-1.0112,-1.0291,-1.0419,-1.0442,-1.0608,-1.0735,-1.0731,-1.083,-1.0877,-1.0882,-1.0882,-1.0872,-1.0858,-1.0702,-1.057,-1.0565,-1.0228,-0.9749,-0.9161,-0.9418,-0.9328,-0.8629,-0.7865,-0.7399,-0.7308,-0.6649,-0.6086,-0.6086,-0.6086,-0.6086,-0.6086,-0.6086,-0.6086,-0.6086,-0.6086,-0.5959,-0.5644,-0.5723,-0.5812,-1.4298,-1.4298,-1.4388,-1.449,-1.449,-1.4675,-1.4675,-1.4675,0.0,0.0,0.0,-1.4962,-1.5242,-1.5343,-1.5242,-1.5629,-1.6393,-1.6197,-1.606,-1.5906,-1.5814,-1.5382,-1.4488,-1.4482,-1.3981,-1.32,-1.3194,-1.3049,-1.2783,-1.2777,-1.2753,-1.2693,-1.2487,-1.2367,-1.23,-1.2182,-1.1824,-1.1274,-1.1208,-1.1051,-1.0797,-1.0815,-1.0557,-0.9903,-0.9916,-0.9838,-0.9735,-0.9366,-0.9288,-0.9643,-0.9179,-0.9126,-0.9577,-0.9244,-0.9238,-0.9577,-0.9326,-0.9217,-0.937,-0.9307,-0.9514,-1.0109,-1.0423,-1.0393,-0.9658,-0.9073,-0.915,-1.0426,-1.105,-1.1177,-1.0619,-1.0677,-1.0717,-1.0406,-1.0488,-1.0595,-1.061,-1.0779,-1.0998,-1.0925,-1.1099,-1.1139,-1.1144,-1.1172,-1.1194,-1.1189,-1.1161,-1.1194,-1.1156,-1.091,-1.0721,-1.0716,-1.0576,-1.0403,-1.001,-1.031,-1.0333,-0.9313,-0.8437,-0.7763,-0.7478,-0.6908,-0.6339,-0.6168,-0.6151,-0.6157,-0.6154,-0.6165,-0.6146,-0.6149,-0.6146,-0.6146,-0.6146,-0.6149,-0.613,-1.4298,-1.4388,-1.4956,-1.5242,-1.5337,-1.6008,-1.6298,-1.6204,-1.4867,-1.4298,-1.4298,-1.4388,-1.4771,-1.5337,-1.4771,-1.4867,-1.5534,-1.4867,-1.4657,-1.462,-1.4524,-1.4383,-1.4037,-1.4037,-1.3805,-1.3477,-1.3465,-1.3326,-1.3091,-1.3061,-1.2946,-1.2729,-1.2662,-1.2536,-1.2324,-1.2839,-1.2662,-1.1811,-1.1582,-1.1341,-1.1057,-1.1342,-1.1462,-1.1326,-1.1383,-1.1149,-1.0652,-1.073,-1.0664,-1.024,-0.9929,-0.9849,-1.0151,-1.0255,-1.0343,-1.0276,-1.0712,-1.0873,-1.0588,-1.0294,-1.0387,-1.09,-1.1199,-1.1112,-1.0461,-1.0707,-1.0935,-1.0968,-1.1426,-1.1673,-1.1481,-1.1535,-1.1631,-1.1716,-1.1791,-1.1812,-1.1817,-1.2019,-1.2062,-1.2068,-1.198,-1.1823,-1.1823,-1.1468,-1.1292,-1.1194,-1.1194,-1.1194,-1.1184,-1.1151,-1.1109,-1.1109,-1.1094,-1.109,-1.0868,-1.1011,-1.0997,-1.0919,-1.0011,-0.9209,-0.8619,-0.7831,-0.7143,-0.6476,-0.6361,-0.6369,-0.6372,-0.6388,-0.6366,-0.6361,-0.6358,-0.6366,-0.6361,-0.6361,-0.6312,-1.4298,-1.4394,-1.5057,-1.5439,-1.5439,-1.6298,-1.6588,-1.6588,-1.5825,-1.554,-1.5629,-1.5994,-1.6372,-1.656,-1.6278,-1.656,-1.7225,-1.6936,-1.6749,-1.6749,-1.6749,-1.6483,-1.5992,-1.5985,-1.5636,-1.5008,-1.4995,-1.4843,-1.4573,-1.4401,-1.4256,-1.4111,-1.3881,-1.3736,-1.3618,-1.3944,-1.3796,-1.3166,-1.2733,-1.2285,-1.1853,-1.2104,-1.2247,-1.209,-1.2144,-1.2048,-1.1871,-1.1744,-1.1549,-1.1234,-1.1149,-1.1135,-1.1213,-1.1039,-1.1019,-1.1213,-1.0942,-1.0821,-1.0761,-1.0887,-1.1081,-1.1329,-1.1721,-1.1822,-1.1459,-1.1605,-1.1758,-1.1911,-1.2371,-1.2514,-1.2154,-1.217,-1.2298,-1.2129,-1.2156,-1.2231,-1.2258,-1.2447,-1.2592,-1.2603,-1.2496,-1.2467,-1.2467,-1.2175,-1.1883,-1.1683,-1.1389,-1.1194,-1.1194,-1.1194,-1.1194,-1.1194,-1.1194,-1.1194,-1.1194,-1.1194,-1.1194,-1.1194,-1.0511,-0.992,-0.9422,-0.8528,-0.7528,-0.7129,-0.6736,-0.6437,-0.6437,-0.6437,-0.6437,-0.6437,-0.6437,-0.6437,-0.6437,-0.6437,-0.6396,-1.4352,-1.4394,-1.5248,-1.5818,-1.619,-1.6857,-1.7052,-1.7153,-1.7145,-1.7052,-1.7145,-1.7419,-1.7505,-1.7684,-1.7505,-1.7885,-1.845,-1.8357,-1.8272,-1.8272,-1.8265,-1.7986,-1.7505,-1.7419,-1.6993,-1.6324,-1.6303,-1.6141,-1.5934,-1.5592,-1.5395,-1.5247,-1.4881,-1.4734,-1.4734,-1.4817,-1.4781,-1.4423,-1.4123,-1.3662,-1.2749,-1.3077,-1.3105,-1.2956,-1.2913,-1.2972,-1.2998,-1.2719,-1.2485,-1.2279,-1.2276,-1.2269,-1.2279,-1.1875,-1.1902,-1.2234,-1.1547,-1.1108,-1.1113,-1.1347,-1.1642,-1.1709,-1.2077,-1.2337,-1.2379,-1.2216,-1.2288,-1.2759,-1.3181,-1.3207,-1.2907,-1.2933,-1.2883,-1.2662,-1.2736,-1.2842,-1.2869,-1.303,-1.3147,-1.3147,-1.305,-1.2958,-1.2953,-1.2856,-1.2565,-1.2175,-1.178,-1.1585,-1.1585,-1.1585,-1.1585,-1.1492,-1.1394,-1.1194,-1.1194,-1.1194,-1.1194,-1.1194,-1.0703,-1.0314,-0.992,-0.8924,-0.8028,-0.773,-0.7132,-0.6736,-0.6437,-0.6437,-0.6437,-0.6437,-0.6437,-0.6437,-0.6437,-0.6437,-0.6434,-1.4533,-1.4508,-1.5838,-1.7232,-1.8357,-1.855,-1.8542,-1.855,-1.8542,-1.8635,-1.845,-1.7232,-1.7138,-1.7505,-1.7044,-1.7232,-1.7785,-1.7138,-1.6864,-1.6965,-1.677,-1.677,-1.6864,-1.677,-1.6662,-1.6626,-1.6619,-1.6536,-1.6344,-1.6189,-1.5899,-1.5296,-1.4881,-1.4741,-1.4817,-1.5318,-1.5304,-1.4685,-1.5491,-1.523,-1.391,-1.3994,-1.4119,-1.4171,-1.4309,-1.4212,-1.3792,-1.3808,-1.3646,-1.3137,-1.2877,-1.2847,-1.3053,-1.3167,-1.3294,-1.3561,-1.3519,-1.3148,-1.2329,-1.2023,-1.1986,-1.221,-1.2352,-1.2421,-1.2632,-1.2638,-1.2747,-1.3049,-1.3212,-1.3381,-1.3686,-1.3758,-1.3761,-1.3939,-1.4017,-1.416,-1.4052,-1.4184,-1.4202,-1.4202,-1.3727,-1.3443,-1.3437,-1.3152,-1.2861,-1.2764,-1.2565,-1.2467,-1.2467,-1.2467,-1.2467,-1.2375,-1.1883,-1.1292,-1.1292,-1.1194,-1.1194,-1.1194,-1.1096,-1.0801,-1.0216,-0.9821,-0.9422,-0.823,-0.7531,-0.7232,-0.6736,-0.6437,-0.6437,-0.6437,-0.6437,-0.6437,-0.6437,-0.6437,-0.6437,-1.4793,-1.4643,-1.6175,-1.7596,-1.8751,-1.8827,-1.8827,-1.8827,-1.8827,-1.8827,-1.8735,-1.8172,-1.8079,-1.835,-1.7986,-1.8079,-1.8357,-1.7986,-1.7893,-1.7893,-1.7893,-1.7893,-1.7893,-1.7893,-1.7893,-1.7893,-1.7893,-1.7817,-1.7758,-1.7576,-1.7143,-1.6543,-1.6346,-1.6103,-1.5914,-1.6154,-1.6147,-1.5899,-1.6261,-1.6194,-1.5606,-1.5281,-1.5156,-1.5124,-1.4985,-1.4885,-1.4626,-1.4474,-1.4143,-1.3637,-1.3706,-1.3776,-1.3558,-1.3637,-1.378,-1.4022,-1.3938,-1.3703,-1.329,-1.326,-1.34,-1.3519,-1.3616,-1.3607,-1.3288,-1.296,-1.288,-1.3308,-1.3664,-1.39,-1.3924,-1.4045,-1.4183,-1.428,-1.4298,-1.4298,-1.4298,-1.4298,-1.4298,-1.4298,-1.4106,-1.401,-1.3913,-1.3534,-1.3249,-1.3152,-1.3055,-1.2856,-1.2764,-1.2759,-1.2759,-1.2764,-1.237,-1.2078,-1.1785,-1.1683,-1.1585,-1.1292,-1.1194,-1.0998,-1.0806,-1.0216,-0.9723,-0.9023,-0.8226,-0.763,-0.7232,-0.6637,-0.6437,-0.6437,-0.6437,-0.6437,-0.6437,-0.6437,-0.6437,-1.5557,-1.5703,-1.6884,-1.7911,-1.8735,-1.8827,-1.8827,-1.8827,-1.8827,-1.8827,-1.8827,-1.8827,-1.8827,-1.8827,-1.8827,-1.8827,-1.8827,-1.8827,-1.8827,-1.8827,-1.8827,-1.8827,-1.8827,-1.8827,-1.8827,-1.8827,-1.8735,-1.8735,-1.8788,-1.847,-1.8041,-1.7604,-1.7469,-1.7239,-1.6921,-1.6889,-1.6833,-1.6656,-1.673,-1.673,-1.6577,-1.623,-1.592,-1.5809,-1.5491,-1.5316,-1.5308,-1.507,-1.4773,-1.4324,-1.4699,-1.4699,-1.4324,-1.4324,-1.4439,-1.4615,-1.4384,-1.4166,-1.4008,-1.4054,-1.4056,-1.3905,-1.4025,-1.401,-1.356,-1.3003,-1.2988,-1.3562,-1.4032,-1.4189,-1.4081,-1.4183,-1.4292,-1.4298,-1.4298,-1.4298,-1.4298,-1.4298,-1.4298,-1.4298,-1.4298,-1.4298,-1.4304,-1.4016,-1.3727,-1.3727,-1.3437,-1.3244,-1.3244,-1.3244,-1.3244,-1.3244,-1.3244,-1.2948,-1.237,-1.2175,-1.198,-1.178,-1.1683,-1.1683,-1.1394,-1.0801,-0.9916,-0.9316,-0.8425,-0.763,-0.7135,-0.6736,-0.6437,-0.6437,-0.6437,-0.6437,-0.6437,-0.6437,-0.6437,-1.7042,-1.7435,-1.7925,-1.8392,-1.8835,-1.8827,-1.8827,-1.8827,-1.8827,-1.8827,-1.8827,-1.8827,-1.8827,-1.8827,-1.8827,-1.8827,-1.8827,-1.8827,-1.8827,-1.8827,-1.8827,-1.8827,-1.8827,-1.8827,-1.8827,-1.8827,-1.8827,-1.8827,-1.8804,-1.8494,-1.8287,-1.8224,-1.7906,-1.7588,-1.7294,-1.7231,-1.7072,-1.681,-1.6746,-1.673,-1.673,-1.669,-1.6492,-1.6182,-1.584,-1.5658,-1.565,-1.5634,-1.561,-1.5618,-1.5586,-1.5594,-1.5602,-1.561,-1.5541,-1.5528,-1.5347,-1.4889,-1.436,-1.4027,-1.3685,-1.3099,-1.3215,-1.2991,-1.3461,-1.3256,-1.3385,-1.3908,-1.4395,-1.4465,-1.4447,-1.4364,-1.4298,-1.4298,-1.4298,-1.4298,-1.4298,-1.4298,-1.4298,-1.4298,-1.4298,-1.4298,-1.4298,-1.4298,-1.4202,-1.4208,-1.4202,-1.41,-1.4106,-1.4106,-1.4106,-1.4106,-1.4106,-1.3913,-1.305,-1.2764,-1.2764,-1.2565,-1.237,-1.2467,-1.1975,-1.1385,-1.0498,-0.9612,-0.8627,-0.7836,-0.7138,-0.6639,-0.6437,-0.6437,-0.6437,-0.6437,-0.6437,-0.6437,-0.6437,-1.8065,-1.8533,-1.8312,-1.8601,-1.9161,-1.8931,-1.8827,-1.8827,-1.8827,-1.8827,-1.8827,-1.8827,-1.8827,-1.8827,-1.8827,-1.8827,-1.8827,-1.8827,-1.8827,-1.8827,-1.8827,-1.8827,-1.8827,-1.8827,-1.8827,-1.8827,-1.8827,-1.8827,-1.8819,-1.8692,-1.8518,-1.8311,-1.8176,-1.7938,-1.762,-1.739,-1.7207,-1.7072,-1.6865,-1.673,-1.6746,-1.673,-1.6667,-1.6532,-1.6198,-1.6015,-1.6015,-1.5793,-1.5674,-1.5674,-1.5674,-1.5674,-1.569,-1.5888,-1.6015,-1.6047,-1.61,-1.6044,-1.5822,-1.5253,-1.5068,-1.5235,-1.4569,-1.4462,-1.5043,-1.521,-1.5239,-1.5416,-1.5926,-1.6089,-1.5629,-1.4962,-1.4298,-1.4298,-1.4298,-1.4298,-1.4298,-1.4298,-1.4298,-1.4298,-1.4298,-1.4298,-1.4298,-1.4298,-1.4298,-1.4298,-1.4298,-1.4298,-1.4298,-1.4298,-1.4298,-1.4298,-1.4298,-1.4202,-1.3913,-1.3437,-1.3152,-1.2861,-1.2759,-1.2764,-1.237,-1.178,-1.089,-1.0498,-0.9414,-0.8035,-0.7338,-0.6739,-0.6537,-0.6437,-0.6437,-0.6437,-0.6437,-0.6437,-0.6437,-1.9368,-1.9406,-1.8964,-1.8969,-1.9336,-1.8986,-1.8827,-1.8827,-1.8827,-1.8827,-1.8827,-1.8827,-1.8827,-1.8827,-1.8827,-1.8827,-1.8827,-1.8827,-1.8827,-1.8827,-1.8827,-1.8827,-1.8827,-1.8827,-1.8827,-1.8827,-1.8827,-1.8827,-1.8827,-1.8827,-1.87,-1.8486,-1.847,-1.8295,-1.7962,-1.7715,-1.7564,-1.7405,-1.7088,-1.6913,-1.6897,-1.6786,-1.673,-1.6698,-1.65,-1.6381,-1.6373,-1.6142,-1.6023,-1.6015,-1.6023,-1.6023,-1.6047,-1.6238,-1.6373,-1.6404,-1.6595,-1.6566,-1.6417,-1.6088,-1.5981,-1.6156,-1.5755,-1.5632,-1.6199,-1.6491,-1.6559,-1.6515,-1.6514,-1.6669,-1.6109,-1.5057,-1.4388,-1.4586,-1.449,-1.4298,-1.4298,-1.4298,-1.4298,-1.4298,-1.4298,-1.4298,-1.4298,-1.4298,-1.4298,-1.4298,-1.4298,-1.4298,-1.4298,-1.4298,-1.4298,-1.4298,-1.4298,-1.4298,-1.4202,-1.3919,-1.3727,-1.3534,-1.334,-1.3244,-1.2856,-1.2073,-1.1482,-1.1086,-1.01,-0.8722,-0.7633,-0.6936,-0.6539,-0.6437,-0.6437,-0.6437,-0.6437,-0.6437,-0.6437,-2.0617,-2.0292,-2.0011,-1.9685,-1.9391,-1.9034,-1.8843,-1.8835,-1.8827,-1.8827,-1.8827,-1.8827,-1.8827,-1.8827,-1.8827,-1.8827,-1.8827,-1.8827,-1.8827,-1.8827,-1.8827,-1.8827,-1.8827,-1.8827,-1.8827,-1.8827,-1.8827,-1.8827,-1.8827,-1.8827,-1.8804,-1.8812,-1.878,-1.8613,-1.8303,-1.8224,-1.8081,-1.7779,-1.7531,-1.7363,-1.7239,-1.6961,-1.6794,-1.677,-1.6714,-1.669,-1.6698,-1.6683,-1.6643,-1.6659,-1.6667,-1.6714,-1.6643,-1.6683,-1.6706,-1.669,-1.6722,-1.6402,-1.5959,-1.6132,-1.6019,-1.5835,-1.5732,-1.5934,-1.648,-1.6733,-1.6795,-1.6729,-1.6365,-1.592,-1.5534,-1.486,-1.458,-1.5146,-1.4675,-1.4298,-1.4298,-1.4298,-1.4298,-1.4298,-1.4298,-1.4298,-1.4298,-1.4298,-1.4298,-1.4298,-1.4298,-1.4298,-1.4298,-1.4298,-1.4298,-1.4298,-1.4298,-1.4298,-1.4298,-1.4298,-1.4298,-1.4202,-1.4106,-1.3913,-1.3431,-1.2845,-1.2252,-1.1663,-0.9993,-0.8616,-0.7335,-0.6736,-0.6537,-0.6437,-0.6437,-0.6437,-0.6437,-0.6437,-0.6437,-2.0861,-2.0718,-2.0377,-2.0027,-1.9685,-1.9344,-1.9074,-1.8835,-1.8827,-1.8827,-1.8827,-1.8827,-1.8827,-1.8827,-1.8827,-1.8827,-1.8827,-1.8827,-1.8827,-1.8827,-1.8827,-1.8827,-1.8827,-1.8827,-1.8827,-1.8827,-1.8827,-1.8827,-1.8827,-1.8827,-1.8827,-1.8827,-1.8827,-1.878,-1.8637,-1.8701,-1.858,-1.8201,-1.8151,-1.7965,-1.7674,-1.7286,-1.7111,-1.708,-1.6873,-1.673,-1.673,-1.673,-1.673,-1.673,-1.673,-1.673,-1.673,-1.673,-1.673,-1.673,-1.673,-1.6783,-1.6744,-1.6537,-1.6627,-1.6737,-1.6491,-1.6696,-1.7394,-1.7469,-1.7427,-1.7404,-1.7225,-1.685,-1.6292,-1.5534,-1.5051,-1.4675,-1.4484,-1.4394,-1.4394,-1.4298,-1.4298,-1.4298,-1.4298,-1.4298,-1.4298,-1.4298,-1.4298,-1.4298,-1.4298,-1.4298,-1.4298,-1.4298,-1.4298,-1.4298,-1.4298,-1.4298,-1.4298,-1.4298,-1.4298,-1.4298,-1.4298,-1.4298,-1.3913,-1.3522,-1.2931,-1.1945,-1.0181,-0.8707,-0.7428,-0.6736,-0.6539,-0.6437,-0.6437,-0.6437,-0.6437,-0.6437,-0.6437,-2.0925,-2.0877,-2.0543,-2.0186,-1.9844,-1.9519,-1.9161,-1.8859,-1.8827,-1.8827,-1.8827,-1.8827,-1.8827,-1.8827,-1.8827,-1.8827,-1.8827,-1.8827,-1.8827,-1.8827,-1.8827,-1.8827,-1.8827,-1.8827,-1.8827,-1.8827,-1.8827,-1.8912,-1.9096,-1.892,-1.892,-1.9104,-1.892,-1.8827,-1.8812,-1.8894,-1.8765,-1.8528,-1.8604,-1.8496,-1.8073,-1.7808,-1.7576,-1.7347,-1.7056,-1.6881,-1.6754,-1.673,-1.673,-1.673,-1.673,-1.673,-1.673,-1.673,-1.673,-1.6754,-1.6873,-1.7048,-1.727,-1.7188,-1.7296,-1.7713,-1.747,-1.7568,-1.8261,-1.8264,-1.8156,-1.8156,-1.7785,-1.7505,-1.7037,-1.6292,-1.5629,-1.5248,-1.4962,-1.4777,-1.4682,-1.4484,-1.4298,-1.4298,-1.4298,-1.4298,-1.4298,-1.4298,-1.4298,-1.4298,-1.4298,-1.4298,-1.4298,-1.4298,-1.4298,-1.4298,-1.4298,-1.4298,-1.4298,-1.4298,-1.4298,-1.4298,-1.4298,-1.4298,-1.4106,-1.3811,-1.3414,-1.2339,-1.0769,-0.9497,-0.8315,-0.7135,-0.6642,-0.6539,-0.6439,-0.6437,-0.6437,-0.6437,-0.6437,-2.0925,-2.0877,-2.0543,-2.0194,-1.9836,-1.9511,-1.9169,-1.8859,-1.8827,-1.8827,-1.8827,-1.8827,-1.8827,-1.8827,-1.8827,-1.8827,-1.8827,-1.8827,-1.8827,-1.8827,-1.8827,-1.8827,-1.8827,-1.8912,-1.892,-1.892,-1.892,-1.9188,-1.9546,-1.9279,-1.9096,-1.9554,-1.9196,-1.892,-1.9096,-1.8912,-1.9063,-1.8999,-1.9109,-1.8953,-1.8482,-1.8417,-1.8124,-1.7491,-1.7334,-1.7151,-1.6873,-1.6826,-1.6786,-1.6738,-1.673,-1.673,-1.673,-1.673,-1.6656,-1.6802,-1.7096,-1.7286,-1.7469,-1.7794,-1.8158,-1.8245,-1.8498,-1.8827,-1.8696,-1.8703,-1.855,-1.845,-1.7978,-1.7598,-1.7412,-1.6951,-1.6487,-1.6574,-1.5913,-1.5534,-1.5343,-1.4771,-1.449,-1.4394,-1.4298,-1.4298,-1.4298,-1.4298,-1.4298,-1.4298,-1.4298,-1.4298,-1.4298,-1.4298,-1.4298,-1.4298,-1.4298,-1.4298,-1.4298,-1.4298,-1.4298,-1.4298,-1.4298,-1.4298,-1.4298,-1.41,-1.3607,-1.2533,-1.1556,-1.028,-0.9103,-0.7925,-0.7039,-0.6742,-0.6639,-0.6437,-0.6437,-0.6437,-0.6437,-2.0925,-2.0885,-2.0543,-2.0186,-1.9844,-1.9511,-1.9169,-1.8851,-1.8827,-1.8827,-1.8827,-1.8827,-1.8827,-1.8827,-1.8827,-1.8827,-1.8827,-1.8827,-1.8827,-1.8827,-1.8827,-1.8827,-1.892,-1.9188,-1.9371,-1.9463,-1.9654,-2.0011,-2.011,-1.9928,-1.992,-2.0102,-1.9928,-1.9828,-1.9928,-2.0192,-2.0184,-2.0011,-2.0288,-2.003,-1.9249,-1.8962,-1.858,-1.8121,-1.7779,-1.7477,-1.7175,-1.7135,-1.7,-1.6754,-1.673,-1.673,-1.6778,-1.6778,-1.6889,-1.7119,-1.7247,-1.7533,-1.7946,-1.8192,-1.8414,-1.8661,-1.8756,-1.8827,-1.8827,-1.8827,-1.855,-1.8164,-1.7777,-1.7505,-1.7044,-1.677,-1.6864,-1.7232,-1.6756,-1.6103,-1.5527,-1.5242,-1.4962,-1.4394,-1.4298,-1.4298,-1.4298,-1.4298,-1.4298,-1.4298,-1.4298,-1.4298,-1.4298,-1.4298,-1.4298,-1.4298,-1.4298,-1.4298,-1.4298,-1.4298,-1.4298,-1.4298,-1.4298,-1.4298,-1.4298,-1.4202,-1.3613,-1.2823,-1.2042,-1.0872,-0.9792,-0.8616,-0.7928,-0.6942,-0.6742,-0.6642,-0.6439,-0.6437,-0.6437,-2.0925,-2.0893,-2.0543,-2.0186,-1.9844,-1.9511,-1.9161,-1.8875,-1.8827,-1.8827,-1.8827,-1.8827,-1.8827,-1.8827,-1.8827,-1.8827,-1.8835,-1.9004,-1.9104,-1.9196,-1.9379,-1.9379,-1.9279,-1.9646,-1.992,-1.992,-2.0192,-2.0374,-2.0555,-2.0382,-2.0382,-2.0555,-2.0382,-2.0292,-2.0292,-2.0555,-2.0555,-2.0382,-2.0564,-2.0374,-1.9613,-1.9356,-1.8881,-1.8401,-1.8081,-1.7834,-1.754,-1.7485,-1.7326,-1.708,-1.7088,-1.7175,-1.7175,-1.7175,-1.727,-1.7485,-1.762,-1.7914,-1.8216,-1.8422,-1.8613,-1.878,-1.8827,-1.8827,-1.8827,-1.8827,-1.8542,-1.8257,-1.8156,-1.7978,-1.7613,-1.752,-1.7699,-1.7978,-1.78,-1.7052,-1.6008,-1.5622,-1.5051,-1.458,-1.4298,-1.4298,-1.4298,-1.4298,-1.4298,-1.4298,-1.4298,-1.4298,-1.4298,-1.4298,-1.4298,-1.4298,-1.4298,-1.4298,-1.4298,-1.4298,-1.4298,-1.4298,-1.4298,-1.4298,-1.4298,-1.4298,-1.4004,-1.3318,-1.2436,-1.156,-1.0382,-0.9209,-0.7935,-0.7244,-0.7045,-0.6745,-0.6642,-0.6439,-0.6439,-2.0901,-2.0837,-2.048,-2.0138,-1.9773,-1.9455,-1.9105,-1.8867,-1.8827,-1.8827,-1.8827,-1.8827,-1.8827,-1.8827,-1.8827,-1.8819,-1.892,-1.9363,-1.9554,-1.9737,-2.0011,-2.0102,-1.9911,-2.0192,-2.0374,-2.0374,-2.0382,-2.0736,-2.0916,-2.0645,-2.0736,-2.0907,-2.0645,-2.0473,-2.0654,-2.0564,-2.0473,-2.0555,-2.0654,-2.0464,-2.0002,-1.9861,-1.9455,-1.8709,-1.8295,-1.8112,-1.7898,-1.7811,-1.7699,-1.7397,-1.7644,-1.7683,-1.7723,-1.7747,-1.7795,-1.785,-1.8057,-1.8255,-1.839,-1.8653,-1.8804,-1.8827,-1.8827,-1.8827,-1.8827,-1.8827,-1.8735,-1.8635,-1.8827,-1.8635,-1.8635,-1.8735,-1.8643,-1.8643,-1.8643,-1.8079,-1.6864,-1.5913,-1.5242,-1.449,-1.4298,-1.4298,-1.4298,-1.4298,-1.4298,-1.4298,-1.4298,-1.4298,-1.4298,-1.4298,-1.4298,-1.4298,-1.4298,-1.4298,-1.4298,-1.4298,-1.4298,-1.4298,-1.4298,-1.4298,-1.4298,-1.4298,-1.4298,-1.3908,-1.3221,-1.2242,-1.1068,-0.9801,-0.8528,-0.7547,-0.7247,-0.7045,-0.6745,-0.6642,-0.6539,-2.0758,-2.048,-2.0122,-1.9789,-1.9447,-1.9105,-1.8907,-1.8827,-1.8827,-1.8827,-1.8827,-1.8827,-1.8827,-1.8827,-1.892,-1.9004,-1.9371,-1.9646,-1.9737,-2.0201,-2.0645,-2.0817,-2.0718,-2.0817,-2.0817,-2.0916,-2.1284,-2.1463,-2.1463,-2.1374,-2.1463,-2.1463,-2.1374,-2.1374,-2.1374,-2.1284,-2.1374,-2.1374,-2.1374,-2.1006,-2.0718,-2.0546,-2.0141,-1.929,-1.8627,-1.8287,-1.8216,-1.8184,-1.8152,-1.8057,-1.7906,-1.7858,-1.785,-1.7826,-1.7946,-1.8152,-1.8247,-1.843,-1.8653,-1.8764,-1.8827,-1.8827,-1.8827,-1.8827,-1.8827,-1.8827,-1.8827,-1.8827,-1.8827,-1.8827,-1.8827,-1.8827,-1.8827,-1.8827,-1.8735,-1.8272,-1.6958,-1.64,-1.5724,-1.4682,-1.4298,-1.4298,-1.4298,-1.4298,-1.4298,-1.4298,-1.4298,-1.4298,-1.4298,-1.4298,-1.4298,-1.4298,-1.4298,-1.4298,-1.4298,-1.4298,-1.4298,-1.4298,-1.4298,-1.4298,-1.4298,-1.4298,-1.4298,-1.4298,-1.41,-1.2926,-1.1658,-1.0779,-0.9608,-0.8528,-0.7547,-0.7247,-0.7045,-0.6842,-0.6642,-2.0567,-2.0345,-1.9852,-1.9534,-1.9328,-1.8986,-1.8827,-1.8827,-1.8827,-1.8827,-1.8827,-1.8827,-1.892,-1.9188,-1.9188,-1.9463,-1.992,-2.0184,-2.0546,-2.0925,-2.1275,-2.1275,-2.1365,-2.1365,-2.1365,-2.1365,-2.1544,-2.1642,-2.1731,-2.1731,-2.1642,-2.1731,-2.1731,-2.1642,-2.1731,-2.1731,-2.1642,-2.1553,-2.1454,-2.1266,-2.0997,-2.0727,-2.0365,-1.9629,-1.891,-1.8541,-1.8549,-1.8541,-1.8549,-1.8494,-1.8359,-1.8255,-1.8263,-1.8263,-1.8367,-1.8494,-1.8549,-1.8613,-1.8788,-1.8827,-1.8827,-1.8827,-1.8827,-1.8827,-1.8827,-1.8827,-1.8827,-1.8827,-1.8827,-1.8827,-1.8827,-1.8827,-1.8827,-1.8827,-1.8827,-1.8265,-1.7326,-1.677,-1.6015,-1.4777,-1.4298,-1.4298,-1.4298,-1.4298,-1.4298,-1.4298,-1.4298,-1.4298,-1.4298,-1.4298,-1.4298,-1.4298,-1.4298,-1.4298,-1.4298,-1.4298,-1.4298,-1.4298,-1.4298,-1.4298,-1.4298,-1.4298,-1.4298,-1.4202,-1.41,-1.3318,-1.2145,-1.1365,-1.0489,-0.9312,-0.8233,-0.7743,-0.7247,-0.7045,-0.6842,-2.0281,-2.0194,-1.9606,-1.9352,-1.9248,-1.8962,-1.8827,-1.8827,-1.8827,-1.8827,-1.8827,-1.8827,-1.9004,-1.9371,-1.9554,-1.9828,-2.0374,-2.0817,-2.1275,-2.1553,-2.1553,-2.1642,-2.1642,-2.1642,-2.1642,-2.1731,-2.1731,-2.1731,-2.1731,-2.1731,-2.1731,-2.1731,-2.1731,-2.1731,-2.1731,-2.1731,-2.1731,-2.1642,-2.1454,-2.1266,-2.1186,-2.0826,-2.0374,-1.972,-1.9072,-1.8772,-1.8772,-1.878,-1.8804,-1.8827,-1.8827,-1.8827,-1.8827,-1.8827,-1.8827,-1.8812,-1.878,-1.8796,-1.8804,-1.8827,-1.8827,-1.8827,-1.8827,-1.8827,-1.8827,-1.8827,-1.8827,-1.8827,-1.8827,-1.8827,-1.8827,-1.8827,-1.8827,-1.8827,-1.8827,-1.845,-1.7792,-1.7138,-1.6197,-1.4867,-1.4394,-1.4298,-1.4298,-1.4298,-1.4298,-1.4298,-1.4298,-1.4298,-1.4298,-1.4298,-1.4298,-1.4298,-1.4298,-1.4298,-1.4298,-1.4298,-1.4298,-1.4298,-1.4298,-1.4298,-1.4298,-1.4298,-1.4298,-1.41,-1.3806,-1.3221,-1.2538,-1.176,-1.0783,-0.9706,-0.892,-0.8333,-0.7739,-0.7244,-0.7045,-1.9789,-1.9534,-1.9415,-1.9201,-1.8939,-1.8851,-1.8827,-1.8827,-1.8827,-1.8827,-1.8827,-1.8827,-1.892,-1.9096,-1.9455,-2.0093,-2.0826,-2.1275,-2.1553,-2.1731,-2.1731,-2.1731,-2.1731,-2.1731,-2.1731,-2.1731,-2.1731,-2.1731,-2.1731,-2.1731,-2.1731,-2.1731,-2.1731,-2.1731,-2.1731,-2.1731,-2.1731,-2.1731,-2.1553,-2.1553,-2.1463,-2.1284,-2.0925,-2.0102,-1.9279,-1.8912,-1.8827,-1.8827,-1.8827,-1.8827,-1.8827,-1.8827,-1.8827,-1.8827,-1.8827,-1.8827,-1.8827,-1.8827,-1.8827,-1.8827,-1.8827,-1.8827,-1.8827,-1.8827,-1.8827,-1.8827,-1.8827,-1.8827,-1.8827,-1.8827,-1.8827,-1.8827,-1.8827,-1.8827,-1.8735,-1.8542,-1.7971,-1.7412,-1.6763,-1.5432,-1.4867,-1.4298,-1.4298,-1.4298,-1.4298,-1.4298,-1.4298,-1.4298,-1.4298,-1.4298,-1.4298,-1.4298,-1.4298,-1.4298,-1.4298,-1.4298,-1.4298,-1.4298,-1.4298,-1.4298,-1.4298,-1.4298,-1.4202,-1.41,-1.4004,-1.3613,-1.2931,-1.2247,-1.1365,-1.0386,-0.9608,-0.8924,-0.8333,-0.7836,-0.7341,-1.9519,-1.936,-1.9177,-1.8994,-1.8843,-1.8827,-1.8827,-1.8827,-1.8827,-1.8827,-1.892,-1.9096,-1.9371,-1.9646,-2.0102,-2.0736,-2.1275,-2.1553,-2.1731,-2.1731,-2.1731,-2.1731,-2.1731,-2.1731,-2.1731,-2.1731,-2.1731,-2.1731,-2.1731,-2.1731,-2.1731,-2.1731,-2.1731,-2.1731,-2.1731,-2.1731,-2.1731,-2.1731,-2.1731,-2.1731,-2.1642,-2.1463,-2.0916,-2.0292,-1.9646,-1.9096,-1.8827,-1.8827,-1.8827,-1.8827,-1.8827,-1.8827,-1.8827,-1.8827,-1.8827,-1.8827,-1.8827,-1.8827,-1.8827,-1.8827,-1.8827,-1.8827,-1.8827,-1.8827,-1.8827,-1.8827,-1.8827,-1.8827,-1.8827,-1.8827,-1.8827,-1.8827,-1.8827,-1.8827,-1.8827,-1.8635,-1.8164,-1.7606,-1.6857,-1.6001,-1.5439,-1.4777,-1.4298,-1.4298,-1.4298,-1.4298,-1.4298,-1.4298,-1.4298,-1.4298,-1.4298,-1.4298,-1.4298,-1.4298,-1.4298,-1.4298,-1.4298,-1.4298,-1.4298,-1.4298,-1.4298,-1.4298,-1.4298,-1.4298,-1.4106,-1.3908,-1.3613,-1.2931,-1.2047,-1.1165,-1.0681,-1.01,-0.9118,-0.8428,-0.7836,-1.9264,-1.9241,-1.8947,-1.8827,-1.8827,-1.8827,-1.8827,-1.8827,-1.892,-1.9004,-1.9004,-1.9463,-1.992,-2.0283,-2.0736,-2.1186,-2.1642,-2.1731,-2.1731,-2.1731,-2.1731,-2.1731,-2.1731,-2.1731,-2.1731,-2.1731,-2.1731,-2.1731,-2.1731,-2.1731,-2.1731,-2.1731,-2.1731,-2.1731,-2.1731,-2.1731,-2.1731,-2.1731,-2.1731,-2.1731,-2.1553,-2.1275,-2.0817,-2.0382,-1.992,-1.9371,-1.9288,-1.892,-1.892,-1.892,-1.892,-1.8827,-1.8827,-1.8827,-1.8827,-1.892,-1.8819,-1.8827,-1.8827,-1.8827,-1.8827,-1.8827,-1.8827,-1.8827,-1.8827,-1.8827,-1.8827,-1.8827,-1.8827,-1.8827,-1.8827,-1.8827,-1.8827,-1.8827,-1.8827,-1.8735,-1.845,-1.7893,-1.7052,-1.6386,-1.5818,-1.5153,-1.449,-1.4298,-1.4298,-1.4298,-1.4298,-1.4298,-1.4298,-1.4298,-1.4298,-1.4298,-1.4298,-1.4298,-1.4298,-1.4298,-1.4298,-1.4298,-1.4298,-1.4298,-1.4298,-1.4298,-1.4298,-1.4298,-1.4298,-1.4106,-1.3908,-1.3811,-1.3221,-1.2538,-1.1955,-1.0979,-0.9706,-0.8726,-0.8038,-1.8891,-1.8891,-1.8851,-1.8827,-1.8827,-1.8827,-1.8827,-1.892,-1.9371,-1.9455,-1.9554,-2.0011,-2.0283,-2.0464,-2.0826,-2.1275,-2.1553,-2.1731,-2.1731,-2.1731,-2.1731,-2.1731,-2.1731,-2.1731,-2.1731,-2.1731,-2.1731,-2.1731,-2.1731,-2.1731,-2.1731,-2.1731,-2.1731,-2.1731,-2.1731,-2.1731,-2.1731,-2.1731,-2.1731,-2.1731,-2.1642,-2.1275,-2.0997,-2.0727,-2.0184,-1.9828,-1.9828,-1.9371,-1.9104,-1.9463,-1.9096,-1.8819,-1.8827,-1.8827,-1.9096,-1.9188,-1.9104,-1.8827,-1.8827,-1.8827,-1.8827,-1.8827,-1.8827,-1.8827,-1.8827,-1.8827,-1.8827,-1.8827,-1.8827,-1.8827,-1.8827,-1.8827,-1.8827,-1.8827,-1.8827,-1.8827,-1.8643,-1.7707,-1.6958,-1.6386,-1.5724,-1.5057,-1.4394,-1.4394,-1.4298,-1.4298,-1.4298,-1.4298,-1.4298,-1.4298,-1.4298,-1.4298,-1.4298,-1.4298,-1.4298,-1.4298,-1.4298,-1.4298,-1.4298,-1.4298,-1.4298,-1.4298,-1.4298,-1.4298,-1.4298,-1.4298,-1.4202,-1.4106,-1.4202,-1.3709,-1.2834,-1.1365,-0.9801,-0.9019,-0.863,-1.9654,-1.9646,-1.9654,-1.9646,-1.9654,-1.9654,-1.9654,-1.9654,-1.992,-2.0011,-2.0102,-2.0456,-2.0826,-2.1015,-2.1365,-2.1463,-2.1642,-2.1731,-2.1731,-2.1731,-2.1731,-2.1731,-2.1731,-2.1731,-2.1731,-2.1731,-2.1731,-2.1731,-2.1731,-2.1731,-2.1731,-2.1731,-2.1731,-2.1731,-2.1731,-2.1731,-2.1731,-2.1731,-2.1731,-2.1731,-2.1642,-2.1454,-2.1266,-2.0997,-2.0546,-2.0374,-2.0192,-2.0019,-1.9745,-1.9928,-1.9737,-1.9646,-1.9646,-1.9646,-1.9737,-1.992,-1.9837,-1.9563,-1.9279,-1.9004,-1.8819,-1.8827,-1.8827,-1.8827,-1.8827,-1.8827,-1.8827,-1.8827,-1.8827,-1.8827,-1.8827,-1.8827,-1.8827,-1.8827,-1.8827,-1.8827,-1.855,-1.752,-1.677,-1.6197,-1.5629,-1.4962,-1.449,-1.4394,-1.4298,-1.4298,-1.4298,-1.4298,-1.4298,-1.4298,-1.4298,-1.4298,-1.4298,-1.4298,-1.4298,-1.4298,-1.4298,-1.4298,-1.4298,-1.4298,-1.4298,-1.4298,-1.4298,-1.4298,-1.4298,-1.4298,-1.4298,-1.4298,-1.4202,-1.3908,-1.3613,-1.2145,-1.0779,-1.0391,-0.9706,-2.0654,-2.0654,-2.0382,-2.0292,-2.0292,-2.0292,-2.0292,-2.0292,-2.0464,-2.0464,-2.0654,-2.1006,-2.1365,-2.1651,-2.1642,-2.1642,-2.1731,-2.1731,-2.1731,-2.1731,-2.1731,-2.1731,-2.1731,-2.1731,-2.1731,-2.1731,-2.1731,-2.1731,-2.1731,-2.1731,-2.1731,-2.1731,-2.1731,-2.1731,-2.1731,-2.1731,-2.1731,-2.1731,-2.1731,-2.1731,-2.1731,-2.1731,-2.1454,-2.1275,-2.0997,-2.0916,-2.0654,-2.0292,-2.0292,-2.0473,-2.0292,-2.011,-2.0201,-2.011,-2.0283,-2.0374,-2.0283,-2.0102,-1.982,-1.9455,-1.9004,-1.8827,-1.8827,-1.8827,-1.8827,-1.8827,-1.8827,-1.8827,-1.8827,-1.8827,-1.8827,-1.8827,-1.8827,-1.8827,-1.8827,-1.8827,-1.8643,-1.78,-1.6958,-1.6393,-1.5724,-1.4867,-1.449,-1.4394,-1.4298,-1.4298,-1.4298,-1.4298,-1.4298,-1.4298,-1.4298,-1.4298,-1.4298,-1.4298,-1.4298,-1.4298,-1.4298,-1.4298,-1.4298,-1.4298,-1.4298,-1.4298,-1.4298,-1.4298,-1.4298,-1.4298,-1.4298,-1.4298,-1.4298,-1.4004,-1.3613,-1.2931,-1.2052,-1.1463,-1.0391,-2.1642,-2.1562,-2.0654,-2.0382,-2.0382,-2.0292,-2.0292,-2.0473,-2.0817,-2.0907,-2.0997,-2.1365,-2.1642,-2.1731,-2.1731,-2.1731,-2.1731,-2.1731,-2.1731,-2.1731,-2.1731,-2.1731,-2.1731,-2.1731,-2.1731,-2.1731,-2.1731,-2.1731,-2.1731,-2.1731,-2.1731,-2.1731,-2.1731,-2.1731,-2.1731,-2.1731,-2.1731,-2.1731,-2.1731,-2.1731,-2.1731,-2.1731,-2.1642,-2.1553,-2.1275,-2.1186,-2.1463,-2.0835,-2.0564,-2.0916,-2.0645,-2.0473,-2.0564,-2.0564,-2.0645,-2.0826,-2.0645,-2.0645,-2.0456,-2.0002,-1.9371,-1.9012,-1.8827,-1.8827,-1.8827,-1.8827,-1.8827,-1.8827,-1.8827,-1.8827,-1.8827,-1.8827,-1.8827,-1.8827,-1.8827,-1.8827,-1.8643,-1.8265,-1.7419,-1.6676,-1.592,-1.5057,-1.4586,-1.449,-1.4298,-1.4298,-1.4298,-1.4298,-1.4298,-1.4298,-1.4298,-1.4298,-1.4298,-1.4298,-1.4298,-1.4298,-1.4298,-1.4298,-1.4298,-1.4298,-1.4298,-1.4298,-1.4298,-1.4298,-1.4298,-1.4298,-1.4298,-1.4298,-1.4202,-1.41,-1.3613,-1.3028,-1.2052,-1.0979,-0.9801,-2.1731,-2.1642,-2.1275,-2.1195,-2.1195,-2.1195,-2.1186,-2.1195,-2.1374,-2.1454,-2.1463,-2.1642,-2.1731,-2.1731,-2.1731,-2.1731,-2.1731,-2.1731,-2.1731,-2.1731,-2.1731,-2.1731,-2.1731,-2.1731,-2.1731,-2.1731,-2.1731,-2.1731,-2.1731,-2.1731,-2.1731,-2.1731,-2.1731,-2.1731,-2.1731,-2.1731,-2.1731,-2.1731,-2.1731,-2.1731,-2.1731,-2.1731,-2.1731,-2.1642,-2.1642,-2.1463,-2.1651,-2.1374,-2.1284,-2.1284,-2.1186,-2.1105,-2.1105,-2.1105,-2.1195,-2.1365,-2.1096,-2.1096,-2.0916,-2.0374,-1.9837,-1.9379,-1.9012,-1.8827,-1.8827,-1.8827,-1.8827,-1.8827,-1.8827,-1.8827,-1.8827,-1.8827,-1.8827,-1.8827,-1.8827,-1.8827,-1.8643,-1.8357,-1.7885,-1.7138,-1.619,-1.5242,-1.4867,-1.458,-1.449,-1.4298,-1.4298,-1.4298,-1.4298,-1.4298,-1.4298,-1.4298,-1.4298,-1.4298,-1.4298,-1.4298,-1.4298,-1.4298,-1.4298,-1.4298,-1.4298,-1.4298,-1.4298,-1.4298,-1.4298,-1.4298,-1.4298,-1.4298,-1.4202,-1.4106,-1.3811,-1.3227,-1.2052,-1.0783,-0.9608,-2.1731,-2.1731,-2.1731,-2.1731,-2.1731,-2.1731,-2.1731,-2.1731,-2.1642,-2.1731,-2.1731,-2.1731,-2.1731,-2.1731,-2.1731,-2.1731,-2.1731,-2.1731,-2.1731,-2.1731,-2.1731,-2.1731,-2.1731,-2.1731,-2.1731,-2.1731,-2.1731,-2.1731,-2.1731,-2.1731,-2.1731,-2.1731,-2.1731,-2.1731,-2.1731,-2.1731,-2.1731,-2.1731,-2.1731,-2.1731,-2.1731,-2.1731,-2.1731,-2.1731,-2.1642,-2.1642,-2.1651,-2.1553,-2.1642,-2.1642,-2.1642,-2.1642,-2.1642,-2.1731,-2.1731,-2.1731,-2.1642,-2.1544,-2.1186,-2.0645,-2.011,-1.9554,-1.9279,-1.9004,-1.8827,-1.8827,-1.8827,-1.8827,-1.8827,-1.8827,-1.8827,-1.8827,-1.8827,-1.8827,-1.8827,-1.8827,-1.8827,-1.8542,-1.8164,-1.7598,-1.6749,-1.6089,-1.5534,-1.5153,-1.4675,-1.449,-1.4298,-1.4298,-1.4298,-1.4298,-1.4298,-1.4298,-1.4298,-1.4298,-1.4298,-1.4298,-1.4298,-1.4298,-1.4298,-1.4298,-1.4298,-1.4298,-1.4298,-1.4298,-1.4298,-1.4298,-1.4298,-1.4298,-1.4298,-1.4298,-1.3908,-1.3613,-1.2538,-1.1268,-1.01,-2.1731,-2.1731,-2.1731,-2.1731,-2.1731,-2.1731,-2.1731,-2.1731,-2.1731,-2.1731,-2.1731,-2.1731,-2.1731,-2.1731,-2.1731,-2.1731,-2.1731,-2.1731,-2.1731,-2.1731,-2.1731,-2.1731,-2.1731,-2.1731,-2.1731,-2.1731,-2.1731,-2.1731,-2.1731,-2.1731,-2.1731,-2.1731,-2.182,-2.182,-2.1731,-2.1731,-2.1731,-2.1731,-2.1731,-2.1731,-2.1731,-2.1731,-2.1731,-2.1731,-2.1731,-2.1731,-2.1731,-2.1731,-2.1731,-2.1731,-2.1731,-2.1731,-2.1731,-2.1731,-2.1731,-2.1731,-2.1731,-2.1642,-2.1642,-2.0835,-2.0283,-1.992,-1.9729,-1.9463,-1.9012,-1.892,-1.892,-1.9004,-1.8827,-1.8827,-1.8827,-1.8827,-1.8827,-1.8827,-1.8827,-1.8827,-1.8827,-1.8827,-1.835,-1.8064,-1.7785,-1.7311,-1.6567,-1.5818,-1.5057,-1.4675,-1.4394,-1.4298,-1.4298,-1.4298,-1.4298,-1.4298,-1.4298,-1.4298,-1.4298,-1.4298,-1.4298,-1.4298,-1.4298,-1.4298,-1.4298,-1.4298,-1.4298,-1.4298,-1.4298,-1.4298,-1.4298,-1.4298,-1.4298,-1.4298,-1.4298,-1.3908,-1.2829,-1.1853,-1.0779,-2.1731,-2.1731,-2.1731,-2.1731,-2.1731,-2.1731,-2.1731,-2.1731,-2.1731,-2.1731,-2.1731,-2.1731,-2.1731,-2.1731,-2.1731,-2.1731,-2.1731,-2.1731,-2.1731,-2.1731,-2.1731,-2.1731,-2.1731,-2.1731,-2.1731,-2.1731,-2.1731,-2.1731,-2.1731,-2.1731,-2.1731,-2.1731,-2.2176,-2.2087,-2.182,-2.1731,-2.1731,-2.1731,-2.1731,-2.1731,-2.1731,-2.1731,-2.1731,-2.1731,-2.1731,-2.1731,-2.1731,-2.1731,-2.1731,-2.1731,-2.1731,-2.1731,-2.1731,-2.1731,-2.1731,-2.1731,-2.1731,-2.1731,-2.1642,-2.1284,-2.0997,-2.0637,-2.0184,-2.0011,-1.9828,-1.9554,-1.9463,-1.9188,-1.892,-1.8827,-1.8827,-1.8827,-1.8827,-1.8827,-1.8827,-1.8827,-1.8827,-1.8827,-1.8635,-1.8357,-1.8164,-1.7512,-1.6763,-1.6204,-1.5439,-1.4867,-1.4586,-1.4394,-1.4298,-1.4298,-1.4298,-1.4298,-1.4298,-1.4298,-1.4298,-1.4298,-1.4298,-1.4298,-1.4298,-1.4298,-1.4298,-1.4298,-1.4298,-1.4298,-1.4298,-1.4298,-1.4298,-1.4298,-1.4298,-1.4298,-1.4298,-1.4004,-1.3125,-1.2436,-1.1853,-2.1731,-2.1731,-2.1731,-2.1731,-2.1731,-2.1731,-2.1731,-2.1731,-2.1731,-2.1731,-2.1731,-2.1731,-2.1731,-2.1731,-2.1731,-2.1731,-2.1731,-2.1731,-2.1731,-2.1731,-2.1731,-2.1731,-2.1731,-2.1731,-2.1731,-2.1731,-2.1741,-2.183,-2.2176,-2.2087,-2.2255,-2.2599,-2.2862,-2.2862,-2.2599,-2.2334,-2.1998,-2.182,-2.1731,-2.1731,-2.1731,-2.1731,-2.1731,-2.1731,-2.1731,-2.1731,-2.1731,-2.1731,-2.1731,-2.1731,-2.1731,-2.1731,-2.1731,-2.1731,-2.1731,-2.1731,-2.1731,-2.1731,-2.1642,-2.1642,-2.1365,-2.1186,-2.0826,-2.0473,-2.0283,-1.9911,-1.9729,-1.9463,-1.9096,-1.892,-1.8827,-1.8827,-1.8827,-1.8827,-1.8827,-1.8827,-1.8827,-1.8827,-1.8827,-1.8542,-1.845,-1.7707,-1.7052,-1.6393,-1.5825,-1.5248,-1.4771,-1.4586,-1.4298,-1.4298,-1.4298,-1.4298,-1.4298,-1.4298,-1.4298,-1.4298,-1.4298,-1.4298,-1.4298,-1.4298,-1.4298,-1.4298,-1.4298,-1.4298,-1.4298,-1.4298,-1.4298,-1.4298,-1.4298,-1.4298,-1.4298,-1.3908,-1.3318,-1.2926,-1.2533,-2.1731,-2.1731,-2.1731,-2.1731,-2.1731,-2.1731,-2.1731,-2.1731,-2.1731,-2.1731,-2.1731,-2.1731,-2.1731,-2.1731,-2.1731,-2.1731,-2.1731,-2.1731,-2.182,-2.182,-2.1919,-2.1909,-2.183,-2.183,-2.183,-2.1741,-2.183,-2.2185,-2.2715,-2.2784,-2.3125,-2.3627,-2.38,-2.3714,-2.3551,-2.3212,-2.2608,-2.2176,-2.1909,-2.1909,-2.1731,-2.1731,-2.1731,-2.1731,-2.1731,-2.1731,-2.1731,-2.1731,-2.1731,-2.1731,-2.1731,-2.1731,-2.1731,-2.1731,-2.1731,-2.1731,-2.1731,-2.1731,-2.1731,-2.1731,-2.1731,-2.1553,-2.1275,-2.0826,-2.0555,-2.0374,-2.0184,-1.982,-1.9463,-1.9188,-1.892,-1.892,-1.892,-1.8827,-1.8827,-1.8827,-1.8827,-1.8827,-1.8827,-1.8735,-1.8735,-1.8265,-1.7699,-1.7044,-1.6109,-1.5635,-1.5057,-1.449,-1.4298,-1.4298,-1.4298,-1.4298,-1.4298,-1.4298,-1.4298,-1.4298,-1.4298,-1.4298,-1.4298,-1.4298,-1.4298,-1.4298,-1.4298,-1.4298,-1.4298,-1.4298,-1.4298,-1.4298,-1.4298,-1.4298,-1.4298,-1.4202,-1.3709,-1.3414,-1.2926,-2.1731,-2.1731,-2.1731,-2.1731,-2.1731,-2.1731,-2.1731,-2.1731,-2.1731,-2.1731,-2.1731,-2.1731,-2.1731,-2.1731,-2.1731,-2.1731,-2.1731,-2.1731,-2.2087,-2.2264,-2.2362,-2.2441,-2.2441,-2.2441,-2.2185,-2.2097,-2.2264,-2.2618,-2.2882,-2.3222,-2.3907,-2.4423,-2.4594,-2.4594,-2.4509,-2.4348,-2.3484,-2.2784,-2.253,-2.2176,-2.182,-2.1731,-2.1731,-2.1731,-2.1731,-2.1731,-2.1731,-2.1731,-2.1731,-2.1731,-2.1731,-2.1731,-2.1731,-2.1731,-2.1731,-2.1731,-2.1731,-2.1731,-2.1731,-2.1731,-2.1731,-2.1731,-2.1553,-2.1463,-2.1284,-2.1105,-2.0826,-2.0365,-2.0093,-1.9828,-1.9371,-1.9188,-1.9004,-1.8827,-1.8827,-1.8827,-1.8827,-1.8827,-1.8827,-1.8827,-1.8827,-1.8735,-1.8164,-1.7232,-1.6298,-1.592,-1.535,-1.4682,-1.4298,-1.4298,-1.4298,-1.4298,-1.4298,-1.4298,-1.4298,-1.4298,-1.4298,-1.4298,-1.4298,-1.4298,-1.4298,-1.4298,-1.4298,-1.4298,-1.4298,-1.4298,-1.4298,-1.4298,-1.4298,-1.4298,-1.4298,-1.4298,-1.4202,-1.3806,-1.3607,-2.1731,-2.1731,-2.1731,-2.1731,-2.1731,-2.1731,-2.1731,-2.1731,-2.1731,-2.1731,-2.1731,-2.1731,-2.1731,-2.1731,-2.1741,-2.183,-2.2176,-2.2264,-2.253,-2.3038,-2.2979,-2.3047,-2.3047,-2.2969,-2.2784,-2.2696,-2.295,-2.3387,-2.3657,-2.4251,-2.4935,-2.5211,-2.5295,-2.5285,-2.5285,-2.5126,-2.469,-2.3831,-2.3135,-2.2618,-2.2176,-2.182,-2.1731,-2.1731,-2.1731,-2.1731,-2.1731,-2.1731,-2.1731,-2.1731,-2.1731,-2.1731,-2.1731,-2.1731,-2.1731,-2.1731,-2.1731,-2.1731,-2.1731,-2.1731,-2.1731,-2.1731,-2.1731,-2.1642,-2.1642,-2.1463,-2.1275,-2.0907,-2.0826,-2.0555,-2.0002,-1.9546,-1.9188,-1.8827,-1.8827,-1.8827,-1.8827,-1.8827,-1.8827,-1.8827,-1.8827,-1.8827,-1.8265,-1.7232,-1.6487,-1.6109,-1.5445,-1.4586,-1.4298,-1.4298,-1.4298,-1.4298,-1.4298,-1.4298,-1.4298,-1.4298,-1.4298,-1.4298,-1.4298,-1.4298,-1.4298,-1.4298,-1.4298,-1.4298,-1.4298,-1.4298,-1.4298,-1.4298,-1.4298,-1.4298,-1.4298,-1.4298,-1.4298,-1.4202,-1.41,-2.1731,-2.1731,-2.1731,-2.1731,-2.1731,-2.1731,-2.1731,-2.1741,-2.182,-2.183,-2.182,-2.182,-2.1909,-2.2167,-2.2167,-2.2432,-2.2696,-2.2872,-2.3212,-2.38,-2.3484,-2.3484,-2.3647,-2.3387,-2.3387,-2.3627,-2.3973,-2.4166,-2.4946,-2.5295,-2.5549,-2.5895,-2.5812,-2.5728,-2.5728,-2.5728,-2.5295,-2.4775,-2.3831,-2.3057,-2.2618,-2.2176,-2.1731,-2.1731,-2.1731,-2.1731,-2.1731,-2.1731,-2.1731,-2.1731,-2.1731,-2.1731,-2.1731,-2.1731,-2.1731,-2.1731,-2.1731,-2.1731,-2.1731,-2.1731,-2.1731,-2.1731,-2.1731,-2.1731,-2.1731,-2.1731,-2.1454,-2.1365,-2.1186,-2.0736,-2.0192,-1.9828,-1.9554,-1.9104,-1.8827,-1.8827,-1.8827,-1.8827,-1.8827,-1.8827,-1.8827,-1.8827,-1.855,-1.7613,-1.7044,-1.6487,-1.5635,-1.4682,-1.449,-1.449,-1.4394,-1.4394,-1.4298,-1.4298,-1.4298,-1.4298,-1.4298,-1.4298,-1.4298,-1.4298,-1.4298,-1.4298,-1.4298,-1.4298,-1.4298,-1.4298,-1.4298,-1.4298,-1.4298,-1.4298,-1.4298,-1.4298,-1.4298,-1.4298,-1.4298,-2.1731,-2.1731,-2.1731,-2.1731,-2.1731,-2.1731,-2.1731,-2.1731,-2.2274,-2.2539,-2.2539,-2.2618,-2.2775,-2.3105,-2.3115,-2.329,-2.3464,-2.3647,-2.3993,-2.4423,-2.4348,-2.4262,-2.4594,-2.4337,-2.4166,-2.4069,-2.4327,-2.4946,-2.5464,-2.5812,-2.5895,-2.5895,-2.5895,-2.5895,-2.5895,-2.5895,-2.5728,-2.5475,-2.4775,-2.3744,-2.3057,-2.2706,-2.2353,-2.1909,-2.1731,-2.1731,-2.1731,-2.1731,-2.1731,-2.1731,-2.1731,-2.1731,-2.1731,-2.1731,-2.1731,-2.1731,-2.1731,-2.1731,-2.1731,-2.1731,-2.1731,-2.1731,-2.1731,-2.1731,-2.1731,-2.1731,-2.1642,-2.1642,-2.1374,-2.0916,-2.0464,-2.0192,-1.9828,-1.9279,-1.8827,-1.8827,-1.8827,-1.8827,-1.8827,-1.8827,-1.8827,-1.8735,-1.855,-1.8172,-1.7699,-1.685,-1.5906,-1.5146,-1.4962,-1.4867,-1.4586,-1.4586,-1.4298,-1.4298,-1.4298,-1.4298,-1.4298,-1.4298,-1.4298,-1.4298,-1.4298,-1.4298,-1.4298,-1.4298,-1.4298,-1.4298,-1.4298,-1.4298,-1.4298,-1.4298,-1.4298,-1.4298,-1.4298,-1.4298,-1.4298,-2.1731,-2.1731,-2.1731,-2.1909,-2.2176,-2.2176,-2.2344,-2.2687,-2.3038,-2.3387,-2.3657,-2.3474,-2.3464,-2.38,-2.38,-2.4145,-2.4231,-2.4241,-2.4765,-2.5115,-2.5115,-2.5115,-2.5115,-2.5031,-2.5031,-2.485,-2.5115,-2.5549,-2.5895,-2.5895,-2.5895,-2.5895,-2.5895,-2.5895,-2.5895,-2.5895,-2.5895,-2.5895,-2.5464,-2.4775,-2.3667,-2.3232,-2.2706,-2.2176,-2.1909,-2.182,-2.1731,-2.1731,-2.1731,-2.1731,-2.1731,-2.1731,-2.1731,-2.1731,-2.1731,-2.1731,-2.1731,-2.1731,-2.1731,-2.1731,-2.1731,-2.1731,-2.1731,-2.1731,-2.1731,-2.1731,-2.1731,-2.1642,-2.1642,-2.1186,-2.0736,-2.0464,-2.0011,-1.9463,-1.9004,-1.8827,-1.8827,-1.8827,-1.8827,-1.8827,-1.8827,-1.8827,-1.855,-1.8172,-1.7699,-1.7412,-1.6466,-1.6001,-1.5717,-1.5439,-1.5153,-1.4777,-1.4682,-1.4394,-1.4298,-1.4298,-1.4298,-1.4298,-1.4298,-1.4298,-1.4298,-1.4298,-1.4298,-1.4298,-1.4298,-1.4298,-1.4298,-1.4298,-1.4298,-1.4298,-1.4298,-1.4298,-1.4298,-1.4298,-1.4298,-2.1998,-2.1998,-2.1989,-2.2353,-2.2882,-2.2882,-2.3212,-2.3714,-2.3887,-2.4251,-2.469,-2.4327,-2.4059,-2.4059,-2.4059,-2.4498,-2.485,-2.4946,-2.5464,-2.5549,-2.5295,-2.5464,-2.5464,-2.538,-2.538,-2.5549,-2.5728,-2.5812,-2.5895,-2.5895,-2.5895,-2.5895,-2.5895,-2.5895,-2.5895,-2.5895,-2.5895,-2.5895,-2.5728,-2.5559,-2.469,-2.3831,-2.3309,-2.2784,-2.2353,-2.1998,-2.1989,-2.1989,-2.1989,-2.1909,-2.1998,-2.1998,-2.1998,-2.1998,-2.182,-2.182,-2.1731,-2.1731,-2.1731,-2.1731,-2.1731,-2.1731,-2.1731,-2.1731,-2.1731,-2.1731,-2.1731,-2.1731,-2.1731,-2.1463,-2.1006,-2.0546,-2.0093,-1.9637,-1.9188,-1.8827,-1.8827,-1.8827,-1.8827,-1.8827,-1.8827,-1.8827,-1.8542,-1.8071,-1.7885,-1.7699,-1.7326,-1.6951,-1.6574,-1.6197,-1.5913,-1.5439,-1.5057,-1.4873,-1.4394,-1.4298,-1.4298,-1.4298,-1.4298,-1.4298,-1.4298,-1.4298,-1.4298,-1.4298,-1.4298,-1.4298,-1.4298,-1.4298,-1.4298,-1.4298,-1.4298,-1.4298,-1.4298,-1.4298,-1.4298,-2.3367,-2.3367,-2.3367,-2.3464,-2.3627,-2.3637,-2.3714,-2.3887,-2.4509,-2.4775,-2.5031,-2.5464,-2.5454,-2.5454,-2.5454,-2.5633,-2.5464,-2.5559,-2.5644,-2.5812,-2.5644,-2.5812,-2.5812,-2.5644,-2.5812,-2.5895,-2.5895,-2.5895,-2.5895,-2.5895,-2.5895,-2.5895,-2.5895,-2.5895,-2.5895,-2.5895,-2.5895,-2.5895,-2.5895,-2.5728,-2.5644,-2.4861,-2.4241,-2.381,-2.3454,-2.3367,-2.3367,-2.3367,-2.3038,-2.2794,-2.2539,-2.253,-2.2441,-2.2441,-2.2176,-2.182,-2.1731,-2.1731,-2.1731,-2.1731,-2.1731,-2.1731,-2.1731,-2.1731,-2.1731,-2.1731,-2.1731,-2.1731,-2.1642,-2.1463,-2.1096,-2.0645,-2.0201,-1.9737,-1.9279,-1.9012,-1.892,-1.8827,-1.8827,-1.8827,-1.8827,-1.8827,-1.8735,-1.8542,-1.8542,-1.8265,-1.7885,-1.7606,-1.7419,-1.7044,-1.6669,-1.6197,-1.5724,-1.4968,-1.449,-1.4298,-1.4298,-1.4298,-1.4298,-1.4298,-1.4298,-1.4298,-1.4298,-1.4298,-1.4298,-1.4298,-1.4298,-1.4298,-1.4298,-1.4298,-1.4298,-1.4298,-1.4298,-1.4298,-1.4298]},{"header":{"parameterUnit":"m.s-1","parameterCategory":1,"la1":31.0,"la2":29.5877,"lo1":-88.7671,"lo2":-86.6584,"dy":0.0162,"dx":0.0185,"nx":115,"ny":88,"refTime":"2024-07-08T12:00:00:Z","depth":0,"parameterNumber":3,"parameterNumberName":"V-component_of_WINDS"},"data":[0.0,0.0,0.0,0.0,0.0,0.0,0.0,0.0,0.0,0.0,0.0,0.0,0.0,0.0,0.0,0.0,0.0,0.0,0.0,0.0,0.0,0.0,0.0,0.0,0.0,0.0,0.0,0.0,0.0,0.0,0.0,0.0,0.0,0.0,0.0,0.0,0.0,0.0,0.0,0.0,0.0,0.0,0.0,0.0,0.0,0.0,0.0,0.0,0.0,0.0,0.0,0.0,0.0,0.0,0.0,0.0,0.0,0.0,0.0,0.0,0.0,0.0,0.0,0.0,0.0,0.0,0.0,0.0,0.0,0.0,0.0,0.0,0.0,0.0,0.0,0.0,0.0,0.0,0.0,0.0,0.0,0.0,0.0,0.0,0.0,0.0,0.0,0.0,0.0,0.0,0.0,0.0,0.0,0.0,0.0,0.0,0.0,0.0,0.0,0.0,0.0,0.0,0.0,0.0,0.0,0.0,0.0,0.0,0.0,0.0,0.0,0.0,0.0,0.0,0.0,0.0,0.0,0.0,0.0,0.0,0.0,0.0,0.0,0.0,0.0,0.0,0.0,0.0,0.0,0.0,0.0,0.0,0.0,0.0,0.0,0.0,0.0,0.0,0.0,0.0,0.0,0.0,0.0,0.0,0.0,0.0,0.0,0.0,0.0,0.0,0.0,0.0,0.0,0.0,0.0,0.0,0.0,0.0,0.0,0.0,0.0,0.0,0.0,0.0,0.0,0.0,0.0,0.0,0.0,0.0,0.0,0.0,0.0,0.0,0.0,0.0,0.0,0.0,0.0,0.0,0.0,0.0,0.0,0.0,0.0,0.0,0.0,0.0,0.0,0.0,0.0,0.0,0.0,0.0,0.0,0.0,0.0,0.0,0.0,0.0,0.0,0.0,0.0,0.0,0.0,0.0,0.0,0.0,0.0,0.0,0.0,0.0,0.0,0.0,0.0,0.0,0.0,0.0,0.0,0.0,0.0,0.0,0.0,0.0,0.0,0.0,0.0,0.0,0.0,0.0,0.0,0.0,0.0,0.0,0.0,0.0,0.0,0.0,0.0,0.0,0.0,0.0,0.0,0.0,0.0,0.0,0.0,0.0,0.0,0.0,0.0,0.0,0.0,0.0,0.0,0.0,0.0,0.0,0.0,0.0,0.0,0.0,0.0,0.0,0.0,0.0,0.0,0.0,0.0,0.0,0.0,0.0,0.0,0.0,0.0,0.0,0.0,0.0,0.0,0.0,0.0,0.0,0.0,0.0,0.0,0.0,0.0,0.0,0.0,0.0,0.0,0.0,0.0,0.0,0.0,0.0,0.0,0.0,0.0,0.0,0.0,0.0,0.0,0.0,0.0,0.0,0.0,0.0,0.0,0.0,0.0,0.0,0.0,0.0,0.0,0.0,0.0,0.0,0.0,0.0,0.0,0.0,0.0,0.0,0.0,0.0,0.0,0.0,0.0,0.0,0.0,0.0,0.0,0.0,0.0,0.0,0.0,0.0,0.0,0.0,0.0,0.0,0.0,0.0,0.0,0.0,0.0,0.0,0.0,0.0,0.0,0.0,0.0,0.0,0.0,0.0,0.0,0.0,0.0,0.0,0.0,0.0,0.0,0.0,0.0,0.0,0.0,0.0,0.0,0.0,0.0,0.0,0.0,0.0,0.0,0.0,0.0,0.0,0.0,0.0,0.0,0.0,0.0,0.0,0.0,0.0,0.0,0.0,0.0,0.0,0.0,0.0,0.0,0.0,0.0,0.0,0.0,0.0,0.0,0.0,0.0,0.0,0.0,0.0,0.0,0.0,0.0,0.0,0.0,0.0,0.0,0.0,0.0,0.0,0.0,0.0,0.0,0.0,0.0,0.0,0.0,0.0,0.0,0.0,0.0,0.0,0.0,0.0,0.0,0.0,0.0,0.0,0.0,0.0,0.0,0.0,0.0,0.0,0.0,0.0,0.0,0.0,0.0,0.0,0.0,0.0,0.0,0.0,0.0,0.0,0.0,0.0,0.0,0.0,0.0,0.0,0.0,0.0,0.0,0.0,0.0,0.0,0.0,0.0,0.0,0.0,0.0,0.0,0.0,0.0,0.0,0.0,0.0,0.0,0.0,0.0,0.0,0.0,0.0,0.0,0.0,0.0,0.0,0.0,0.0,0.0,0.0,0.0,0.0,0.0,0.0,0.0,0.0,0.0,0.0,0.0,0.0,0.0,0.0,0.0,0.0,0.0,0.0,0.0,0.0,0.0,0.0,0.0,0.0,0.0,0.0,0.0,0.0,0.0,0.0,0.0,0.0,0.0,0.0,0.0,0.0,0.0,0.0,0.0,0.0,0.0,0.0,0.0,0.0,0.0,0.0,0.0,0.0,0.0,0.0,0.0,0.0,0.0,0.0,0.0,0.0,0.0,0.0,0.0,0.0,0.0,0.0,0.0,0.0,0.0,0.0,0.0,0.0,0.0,0.0,0.0,0.0,0.0,0.0,0.0,0.0,0.0,0.0,0.0,0.0,0.0,0.0,0.0,0.0,0.0,0.0,0.0,0.0,0.0,0.0,0.0,0.0,0.0,0.0,0.0,0.0,0.0,0.0,0.0,0.0,0.0,0.0,0.0,0.0,0.0,0.0,0.0,0.0,0.0,0.0,0.0,0.0,0.0,0.0,0.0,0.0,0.0,0.0,0.0,0.0,0.0,0.0,0.0,0.0,0.0,0.0,0.0,0.0,0.0,0.0,0.0,0.0,0.0,0.0,0.0,0.0,0.0,0.0,0.0,0.0,0.0,0.0,0.0,0.0,0.0,0.0,0.0,0.0,0.0,0.0,0.0,0.0,0.0,0.0,0.0,0.0,0.0,0.0,0.0,0.0,0.0,0.0,0.0,0.0,0.0,0.0,0.0,0.0,0.0,0.0,0.0,0.0,0.0,0.0,0.0,0.0,0.0,0.0,0.0,0.0,0.0,0.0,0.0,0.0,0.0,0.0,0.0,0.0,0.0,0.0,0.0,0.0,0.0,0.0,0.0,0.0,0.0,0.0,0.0,0.0,0.0,0.0,0.0,0.0,0.0,0.0,0.0,0.0,0.0,0.0,0.0,0.0,0.0,0.0,0.0,0.0,0.0,0.0,0.0,0.0,0.0,0.0,0.0,0.0,0.0,0.0,0.0,0.0,0.0,0.0,0.0,0.0,0.0,0.0,0.0,0.0,0.0,0.0,0.0,0.0,0.0,0.0,0.0,0.0,0.0,0.0,0.0,0.0,0.0,0.0,0.0,0.0,0.0,0.0,0.0,0.0,0.0,0.0,0.0,0.0,0.0,0.0,0.0,0.0,0.0,0.0,0.0,0.0,0.0,0.0,0.0,0.0,0.0,0.0,0.0,0.0,0.0,0.0,0.0,0.0,0.0,0.0,0.0,0.0,0.0,0.0,0.0,0.0,0.0,0.0,0.0,0.0,0.0,0.0,0.0,0.0,0.0,0.0,0.0,0.0,0.0,0.0,0.0,0.0,0.0,0.0,0.0,0.0,0.0,0.0,0.0,0.0,0.0,0.0,0.0,0.0,0.0,0.0,0.0,0.0,0.0,0.0,0.0,0.0,0.0,0.0,0.0,0.0,0.0,0.0,0.0,0.0,0.0,0.0,0.0,0.0,0.0,0.0,0.0,0.0,0.0,0.0,0.0,0.0,0.0,0.0,0.0,0.0,0.0,0.0,0.0,0.0,0.0,0.0,0.0,0.0,0.0,0.0,0.0,0.0,0.0,0.0,0.0,0.0,0.0,0.0,0.0,0.0,0.0,0.0,0.0,0.0,0.0,0.0,0.0,0.0,0.0,0.0,0.0,0.0,0.0,0.0,0.0,0.0,0.0,0.0,0.0,0.0,0.0,0.0,0.0,0.0,0.0,0.0,0.0,0.0,0.0,0.0,0.0,0.0,0.0,0.0,0.0,0.0,0.0,0.0,0.0,0.0,0.0,0.0,0.0,0.0,0.0,0.0,0.0,0.0,0.0,0.0,0.0,0.0,0.0,0.0,0.0,0.0,0.0,0.0,0.0,0.0,0.0,0.0,0.0,0.0,0.0,0.0,0.0,0.0,0.0,0.0,0.0,0.0,0.0,0.0,0.0,0.0,0.0,0.0,0.0,0.0,0.0,0.0,0.0,0.0,0.0,0.0,0.0,0.0,0.0,0.0,0.0,0.0,0.0,0.0,0.0,0.0,0.0,0.0,0.0,0.0,0.0,0.0,0.0,0.0,0.0,0.0,0.0,0.0,0.0,0.0,0.0,0.0,0.0,-0.8936,0.0,0.0,0.0,0.0,0.0,0.0,0.0,0.0,0.0,0.0,0.0,0.0,0.0,0.0,0.0,0.0,0.0,0.0,0.0,0.0,0.0,0.0,0.0,0.0,0.0,0.0,0.0,0.0,0.0,0.0,0.0,0.0,0.0,0.0,0.0,0.0,0.0,0.0,0.0,0.0,0.0,0.0,0.0,0.0,0.0,0.0,0.0,0.0,0.0,0.0,0.0,0.0,0.0,0.0,0.0,0.0,0.0,0.0,0.0,0.0,0.0,0.0,0.0,0.0,0.0,0.0,0.0,0.0,0.0,0.0,0.0,0.0,0.0,0.0,0.0,0.0,0.0,0.0,0.0,0.0,0.0,0.0,0.0,0.0,0.0,0.0,0.0,0.0,0.0,0.0,0.0,0.0,0.0,0.0,0.0,0.0,0.0,0.0,0.0,0.0,0.0,0.0,0.0,0.0,0.0,0.0,0.0,0.0,0.0,0.0,-0.9102,-0.9002,-0.8996,-0.9007,-0.9001,0.0,0.0,0.0,0.0,0.0,0.0,0.0,0.0,0.0,0.0,0.0,0.0,0.0,0.0,0.0,0.0,0.0,0.0,0.0,0.0,0.0,0.0,0.0,0.0,0.0,0.0,0.0,0.0,0.0,0.0,0.0,0.0,0.0,0.0,0.0,0.0,0.0,0.0,0.0,0.0,0.0,0.0,0.0,0.0,0.0,0.0,0.0,0.0,0.0,0.0,0.0,0.0,0.0,0.0,0.0,0.0,0.0,0.0,0.0,0.0,0.0,0.0,0.0,0.0,0.0,0.0,0.0,0.0,0.0,0.0,0.0,0.0,0.0,0.0,0.0,0.0,0.0,0.0,0.0,0.0,0.0,0.0,0.0,0.0,0.0,0.0,0.0,0.0,0.0,0.0,0.0,0.0,0.0,0.0,0.0,0.0,0.0,0.0,0.0,0.0,0.0,0.0,0.0,0.0,0.0,0.0,0.0,0.0,0.0,0.0,0.0,0.0,-0.9615,-0.9591,-0.9619,0.0,0.0,0.0,0.0,0.0,0.0,0.0,0.0,0.0,0.0,0.0,0.0,0.0,0.0,0.0,0.0,0.0,0.0,0.0,0.0,0.0,0.0,0.0,0.0,0.0,0.0,0.0,0.0,0.0,0.0,0.0,0.0,0.0,0.0,0.0,0.0,0.0,0.0,0.0,0.0,0.0,0.0,0.0,0.0,0.0,0.0,0.0,0.0,0.0,0.0,0.0,0.0,0.0,0.0,0.0,0.0,0.0,0.0,0.0,0.0,0.0,0.0,0.0,0.0,0.0,0.0,0.0,0.0,0.0,0.0,0.0,0.0,0.0,0.0,0.0,0.0,0.0,0.0,0.0,0.0,0.0,0.0,0.0,0.0,0.0,0.0,0.0,0.0,0.0,0.0,0.0,0.0,0.0,0.0,0.0,0.0,0.0,0.0,0.0,0.0,0.0,0.0,0.0,0.0,0.0,0.0,0.0,0.0,0.0,0.0,-1.0044,-1.1415,-1.1433,0.0,-1.1439,0.0,0.0,0.0,0.0,0.0,0.0,0.0,0.0,0.0,0.0,0.0,0.0,0.0,0.0,0.0,0.0,0.0,0.0,0.0,0.0,0.0,0.0,0.0,0.0,0.0,0.0,0.0,0.0,0.0,0.0,0.0,0.0,0.0,0.0,0.0,0.0,0.0,0.0,0.0,0.0,0.0,0.0,0.0,0.0,0.0,0.0,0.0,0.0,0.0,0.0,0.0,0.0,0.0,0.0,0.0,0.0,0.0,0.0,0.0,0.0,0.0,0.0,0.0,0.0,0.0,0.0,0.0,0.0,0.0,0.0,0.0,0.0,0.0,0.0,0.0,0.0,0.0,0.0,0.0,0.0,0.0,0.0,0.0,0.0,0.0,0.0,0.0,0.0,0.0,0.0,0.0,0.0,0.0,0.0,0.0,0.0,0.0,0.0,0.0,0.0,0.0,0.0,0.0,0.0,0.0,0.0,0.0,0.0,0.0,0.0,0.0,-1.1669,-1.1745,-1.1757,0.0,0.0,0.0,0.0,0.0,0.0,0.0,0.0,0.0,0.0,0.0,0.0,0.0,0.0,0.0,0.0,0.0,0.0,0.0,0.0,0.0,0.0,0.0,0.0,0.0,0.0,0.0,0.0,0.0,0.0,0.0,0.0,0.0,0.0,0.0,0.0,0.0,0.0,0.0,0.0,0.0,0.0,0.0,0.0,0.0,0.0,0.0,0.0,0.0,0.0,0.0,0.0,0.0,0.0,0.0,0.0,0.0,0.0,0.0,0.0,0.0,0.0,0.0,0.0,0.0,0.0,0.0,0.0,0.0,0.0,0.0,0.0,0.0,0.0,0.0,0.0,0.0,0.0,0.0,0.0,0.0,0.0,0.0,0.0,0.0,0.0,0.0,0.0,0.0,0.0,0.0,0.0,0.0,0.0,0.0,0.0,0.0,0.0,0.0,0.0,0.0,0.0,0.0,0.0,0.0,0.0,0.0,0.0,0.0,0.0,-1.1366,0.0,-1.2341,-1.2413,-1.2263,-1.1833,0.0,0.0,0.0,0.0,0.0,0.0,0.0,0.0,0.0,0.0,0.0,0.0,0.0,0.0,0.0,0.0,0.0,0.0,0.0,0.0,0.0,0.0,0.0,0.0,0.0,0.0,0.0,0.0,0.0,0.0,0.0,0.0,0.0,0.0,0.0,0.0,0.0,0.0,0.0,0.0,0.0,0.0,0.0,0.0,0.0,0.0,0.0,0.0,0.0,0.0,0.0,0.0,0.0,0.0,0.0,0.0,0.0,0.0,0.0,0.0,0.0,0.0,0.0,0.0,0.0,0.0,0.0,0.0,0.0,0.0,0.0,0.0,0.0,0.0,0.0,0.0,0.0,0.0,0.0,0.0,0.0,0.0,0.0,0.0,0.0,0.0,0.0,0.0,0.0,0.0,0.0,0.0,0.0,0.0,0.0,0.0,0.0,0.0,0.0,0.0,0.0,0.0,0.0,0.0,0.0,0.0,0.0,0.0,0.0,-1.2418,-1.2448,-1.3944,-1.4056,-1.3357,0.0,0.0,0.0,0.0,0.0,0.0,0.0,0.0,0.0,0.0,0.0,0.0,0.0,0.0,0.0,0.0,0.0,0.0,0.0,0.0,0.0,0.0,0.0,0.0,0.0,0.0,0.0,0.0,0.0,0.0,0.0,0.0,0.0,0.0,0.0,0.0,0.0,0.0,0.0,0.0,0.0,0.0,0.0,0.0,0.0,0.0,0.0,0.0,0.0,0.0,0.0,0.0,0.0,0.0,0.0,0.0,0.0,0.0,0.0,0.0,0.0,0.0,0.0,0.0,0.0,0.0,0.0,0.0,0.0,0.0,0.0,0.0,0.0,0.0,0.0,0.0,0.0,0.0,0.0,0.0,0.0,0.0,0.0,0.0,0.0,0.0,0.0,0.0,0.0,0.0,0.0,0.0,0.0,0.0,0.0,0.0,0.0,0.0,0.0,0.0,0.0,0.0,0.0,0.0,0.0,0.0,0.0,0.0,0.0,-1.1034,-1.1491,-1.2948,-1.5377,-1.3702,-1.2867,0.0,0.0,0.0,0.0,0.0,0.0,0.0,0.0,0.0,0.0,0.0,0.0,0.0,0.0,0.0,0.0,0.0,0.0,0.0,0.0,0.0,0.0,0.0,0.0,0.0,0.0,0.0,0.0,0.0,0.0,0.0,0.0,0.0,0.0,0.0,0.0,0.0,0.0,0.0,0.0,0.0,0.0,0.0,0.0,0.0,0.0,0.0,0.0,0.0,0.0,0.0,0.0,0.0,0.0,0.0,0.0,0.0,0.0,0.0,0.0,0.0,0.0,0.0,0.0,0.0,0.0,0.0,0.0,0.0,0.0,0.0,0.0,0.0,0.0,0.0,0.0,0.0,0.0,0.0,0.0,0.0,0.0,0.0,0.0,0.0,0.0,0.0,0.0,0.0,0.0,0.0,0.0,0.0,0.0,0.0,0.0,0.0,0.0,0.0,0.0,0.0,0.0,0.0,0.0,0.0,0.0,0.0,0.0,0.0,-1.0944,0.0,-1.4051,0.0,-1.3718,-1.2667,0.0,0.0,0.0,0.0,0.0,0.0,0.0,0.0,0.0,0.0,0.0,0.0,0.0,0.0,0.0,0.0,0.0,0.0,0.0,0.0,0.0,0.0,0.0,0.0,0.0,0.0,0.0,0.0,0.0,0.0,0.0,0.0,0.0,0.0,0.0,0.0,0.0,0.0,0.0,0.0,0.0,0.0,0.0,0.0,0.0,0.0,0.0,0.0,0.0,0.0,0.0,0.0,0.0,0.0,0.0,0.0,0.0,0.0,0.0,0.0,0.0,0.0,0.0,0.0,0.0,0.0,0.0,0.0,0.0,0.0,0.0,0.0,0.0,0.0,0.0,0.0,0.0,0.0,0.0,0.0,0.0,0.0,0.0,0.0,0.0,0.0,0.0,0.0,0.0,0.0,0.0,0.0,0.0,0.0,0.0,0.0,0.0,0.0,0.0,0.0,0.0,0.0,0.0,0.0,0.0,0.0,0.0,0.0,-1.1043,-1.4,-1.5493,-1.5615,-1.442,-1.4264,-1.2884,0.0,0.0,0.0,0.0,0.0,0.0,0.0,0.0,0.0,0.0,0.0,0.0,0.0,0.0,0.0,0.0,0.0,0.0,0.0,0.0,0.0,0.0,0.0,0.0,0.0,0.0,0.0,0.0,0.0,0.0,0.0,0.0,0.0,0.0,0.0,0.0,0.0,0.0,0.0,0.0,0.0,0.0,0.0,0.0,0.0,0.0,0.0,0.0,0.0,0.0,0.0,0.0,0.0,0.0,0.0,0.0,0.0,0.0,0.0,0.0,0.0,0.0,0.0,0.0,0.0,0.0,0.0,0.0,0.0,0.0,0.0,0.0,0.0,0.0,0.0,0.0,0.0,0.0,0.0,0.0,0.0,0.0,0.0,0.0,0.0,0.0,0.0,0.0,0.0,0.0,0.0,0.0,0.0,0.0,0.0,0.0,0.0,0.0,0.0,0.0,0.0,0.0,0.0,0.0,0.0,0.0,0.0,0.0,0.0,-1.2636,-1.4222,-1.5633,-1.6639,-1.4161,-1.3115,0.0,0.0,0.0,0.0,0.0,0.0,0.0,0.0,0.0,0.0,0.0,0.0,0.0,0.0,0.0,0.0,0.0,0.0,0.0,0.0,0.0,0.0,0.0,0.0,0.0,0.0,0.0,0.0,0.0,0.0,0.0,0.0,0.0,0.0,0.0,0.0,0.0,0.0,0.0,0.0,0.0,0.0,0.0,0.0,0.0,0.0,0.0,0.0,0.0,0.0,0.0,0.0,0.0,0.0,0.0,0.0,0.0,0.0,0.0,0.0,0.0,0.0,0.0,0.0,0.0,0.0,0.0,0.0,0.0,0.0,0.0,0.0,0.0,0.0,0.0,0.0,0.0,0.0,0.0,0.0,0.0,0.0,0.0,0.0,0.0,0.0,0.0,0.0,0.0,0.0,0.0,0.0,0.0,0.0,0.0,0.0,0.0,0.0,0.0,0.0,0.0,0.0,0.0,0.0,0.0,0.0,0.0,0.0,0.0,-1.4343,-1.5861,-1.7109,-1.7994,-1.538,-1.4103,-1.4381,0.0,0.0,0.0,0.0,0.0,0.0,0.0,0.0,0.0,0.0,0.0,0.0,0.0,0.0,0.0,0.0,0.0,0.0,0.0,0.0,0.0,0.0,0.0,0.0,0.0,0.0,0.0,0.0,0.0,0.0,0.0,0.0,0.0,0.0,0.0,0.0,0.0,0.0,0.0,0.0,0.0,0.0,0.0,0.0,0.0,0.0,0.0,0.0,0.0,0.0,0.0,0.0,0.0,0.0,0.0,0.0,0.0,0.0,0.0,0.0,0.0,0.0,0.0,0.0,0.0,0.0,0.0,0.0,0.0,0.0,0.0,0.0,0.0,0.0,0.0,0.0,0.0,0.0,0.0,0.0,0.0,0.0,0.0,0.0,0.0,0.0,0.0,0.0,0.0,0.0,0.0,0.0,0.0,0.0,0.0,0.0,0.0,0.0,0.0,0.0,0.0,0.0,0.0,0.0,0.0,0.0,0.0,0.0,-1.8278,-1.9769,-1.9882,-1.8564,-1.759,-1.5703,0.0,0.0,0.0,0.0,0.0,0.0,0.0,0.0,0.0,0.0,0.0,0.0,0.0,0.0,0.0,0.0,0.0,0.0,0.0,0.0,0.0,0.0,0.0,0.0,0.0,0.0,0.0,0.0,0.0,0.0,0.0,0.0,0.0,0.0,0.0,0.0,0.0,0.0,0.0,0.0,0.0,0.0,0.0,0.0,0.0,0.0,0.0,0.0,0.0,0.0,0.0,0.0,0.0,0.0,0.0,0.0,0.0,0.0,0.0,0.0,0.0,0.0,0.0,0.0,0.0,0.0,0.0,0.0,0.0,0.0,0.0,0.0,0.0,0.0,0.0,0.0,0.0,0.0,0.0,0.0,0.0,0.0,0.0,0.0,0.0,0.0,0.0,0.0,0.0,0.0,0.0,0.0,0.0,0.0,0.0,0.0,0.0,0.0,0.0,0.0,0.0,0.0,0.0,0.0,0.0,0.0,0.0,0.0,0.0,-1.9344,-2.1514,-2.2335,-2.1703,-1.8895,-1.6905,0.0,0.0,0.0,0.0,0.0,0.0,0.0,0.0,0.0,0.0,0.0,0.0,0.0,0.0,0.0,0.0,0.0,0.0,0.0,0.0,0.0,0.0,0.0,0.0,0.0,0.0,0.0,0.0,0.0,0.0,0.0,0.0,0.0,0.0,0.0,0.0,0.0,0.0,0.0,0.0,0.0,0.0,0.0,0.0,0.0,0.0,0.0,0.0,0.0,0.0,0.0,0.0,0.0,0.0,0.0,0.0,0.0,0.0,0.0,0.0,0.0,0.0,0.0,0.0,0.0,0.0,0.0,0.0,0.0,0.0,0.0,0.0,0.0,0.0,0.0,0.0,0.0,0.0,0.0,0.0,0.0,0.0,0.0,0.0,0.0,0.0,0.0,0.0,0.0,0.0,0.0,0.0,0.0,0.0,0.0,0.0,0.0,0.0,0.0,0.0,0.0,0.0,0.0,0.0,0.0,0.0,0.0,0.0,-1.8451,-2.1269,-2.3045,-2.3902,-2.3719,-2.0945,-1.8776,0.0,0.0,0.0,0.0,0.0,0.0,0.0,0.0,0.0,0.0,0.0,0.0,0.0,0.0,0.0,0.0,0.0,0.0,0.0,0.0,0.0,0.0,0.0,0.0,0.0,0.0,0.0,0.0,0.0,0.0,0.0,0.0,0.0,0.0,0.0,0.0,0.0,0.0,0.0,0.0,0.0,0.0,0.0,0.0,0.0,0.0,0.0,0.0,0.0,0.0,0.0,0.0,0.0,0.0,0.0,0.0,0.0,0.0,0.0,0.0,0.0,0.0,0.0,0.0,0.0,0.0,0.0,0.0,0.0,0.0,0.0,0.0,0.0,0.0,0.0,0.0,0.0,0.0,0.0,0.0,0.0,0.0,0.0,0.0,0.0,0.0,0.0,0.0,0.0,0.0,0.0,0.0,0.0,0.0,0.0,0.0,0.0,0.0,0.0,0.0,0.0,0.0,0.0,0.0,0.0,0.0,0.0,0.0,-2.0227,-2.3225,-2.4302,-2.4783,-2.4682,-2.3177,-2.0809,0.0,0.0,0.0,0.0,0.0,0.0,0.0,0.0,0.0,0.0,0.0,0.0,0.0,0.0,0.0,0.0,0.0,0.0,0.0,0.0,0.0,0.0,0.0,0.0,0.0,0.0,0.0,0.0,0.0,0.0,0.0,0.0,0.0,0.0,0.0,0.0,0.0,0.0,0.0,0.0,0.0,0.0,0.0,0.0,0.0,0.0,0.0,0.0,0.0,0.0,0.0,0.0,0.0,0.0,0.0,0.0,0.0,0.0,0.0,0.0,0.0,0.0,0.0,0.0,0.0,0.0,0.0,0.0,0.0,0.0,0.0,0.0,0.0,0.0,0.0,0.0,0.0,0.0,0.0,0.0,0.0,0.0,0.0,0.0,0.0,0.0,0.0,0.0,0.0,0.0,0.0,0.0,0.0,0.0,0.0,0.0,0.0,0.0,0.0,0.0,0.0,0.0,0.0,0.0,0.0,0.0,0.0,0.0,-2.0539,-2.2574,-2.4058,-2.4842,-2.4917,-2.3322,-2.1159,0.0,0.0,0.0,0.0,0.0,0.0,0.0,0.0,0.0,0.0,0.0,0.0,0.0,0.0,0.0,0.0,0.0,0.0,0.0,0.0,0.0,0.0,0.0,0.0,0.0,0.0,0.0,0.0,0.0,0.0,0.0,0.0,0.0,0.0,0.0,0.0,0.0,0.0,0.0,0.0,0.0,0.0,0.0,0.0,0.0,0.0,0.0,0.0,-1.225,0.0,0.0,0.0,0.0,0.0,0.0,0.0,0.0,0.0,0.0,0.0,0.0,0.0,0.0,0.0,0.0,0.0,0.0,0.0,0.0,0.0,0.0,0.0,0.0,0.0,0.0,0.0,0.0,0.0,0.0,0.0,0.0,0.0,0.0,0.0,0.0,0.0,0.0,0.0,0.0,0.0,0.0,0.0,0.0,0.0,0.0,0.0,0.0,0.0,0.0,0.0,0.0,0.0,0.0,0.0,0.0,0.0,0.0,0.0,-2.1456,-2.3464,-2.4436,-2.4936,-2.4959,-2.4125,-2.2293,0.0,0.0,0.0,0.0,0.0,0.0,0.0,0.0,0.0,0.0,0.0,0.0,0.0,0.0,0.0,0.0,0.0,0.0,0.0,0.0,0.0,0.0,0.0,0.0,0.0,0.0,0.0,0.0,0.0,0.0,0.0,0.0,0.0,0.0,0.0,0.0,0.0,0.0,0.0,0.0,0.0,0.0,0.0,0.0,0.0,0.0,0.0,0.0,0.0,0.0,0.0,0.0,0.0,0.0,0.0,0.0,0.0,0.0,0.0,0.0,0.0,0.0,0.0,0.0,0.0,0.0,0.0,0.0,0.0,0.0,0.0,0.0,0.0,0.0,0.0,0.0,0.0,0.0,0.0,0.0,0.0,0.0,0.0,0.0,0.0,0.0,0.0,0.0,0.0,0.0,0.0,0.0,0.0,0.0,0.0,0.0,0.0,0.0,0.0,0.0,0.0,0.0,0.0,0.0,0.0,0.0,0.0,-1.9904,-2.225,-2.471,-2.495,-2.4991,-2.4991,-2.4991,-2.3442,-2.0145,0.0,0.0,0.0,0.0,0.0,0.0,0.0,0.0,0.0,0.0,0.0,0.0,0.0,0.0,0.0,0.0,0.0,0.0,0.0,0.0,0.0,0.0,0.0,0.0,0.0,0.0,0.0,0.0,0.0,0.0,0.0,0.0,0.0,0.0,0.0,0.0,0.0,0.0,-1.1947,-1.4106,0.0,0.0,0.0,0.0,0.0,0.0,0.0,0.0,-1.4357,0.0,0.0,0.0,0.0,0.0,0.0,0.0,0.0,0.0,0.0,0.0,0.0,0.0,0.0,0.0,0.0,0.0,0.0,0.0,0.0,0.0,0.0,0.0,0.0,0.0,0.0,0.0,0.0,0.0,0.0,0.0,0.0,0.0,0.0,0.0,0.0,0.0,0.0,0.0,0.0,0.0,0.0,0.0,0.0,0.0,0.0,0.0,0.0,0.0,0.0,0.0,0.0,0.0,0.0,0.0,0.0,-1.9479,-1.9982,-2.1744,-2.4869,-2.4996,-2.4991,-2.4991,-2.4991,-2.3423,-2.0164,0.0,0.0,0.0,0.0,0.0,0.0,0.0,0.0,0.0,0.0,0.0,0.0,0.0,0.0,0.0,0.0,0.0,0.0,0.0,0.0,0.0,0.0,0.0,0.0,0.0,0.0,0.0,0.0,0.0,0.0,0.0,0.0,0.0,0.0,0.0,0.0,0.0,0.0,0.0,-1.5752,-1.6807,0.0,0.0,0.0,0.0,0.0,0.0,0.0,0.0,-1.4845,0.0,0.0,0.0,0.0,0.0,0.0,0.0,0.0,0.0,0.0,0.0,0.0,0.0,0.0,0.0,0.0,0.0,0.0,0.0,0.0,0.0,0.0,0.0,0.0,0.0,0.0,0.0,0.0,0.0,0.0,0.0,0.0,0.0,0.0,0.0,0.0,0.0,0.0,0.0,0.0,0.0,0.0,0.0,0.0,0.0,0.0,0.0,0.0,0.0,0.0,0.0,0.0,0.0,0.0,0.0,-1.9225,-2.1036,-2.2912,-2.4915,-2.4991,-2.4991,-2.4972,-2.4176,-2.2526,0.0,0.0,0.0,0.0,0.0,0.0,0.0,0.0,0.0,0.0,0.0,0.0,0.0,0.0,0.0,0.0,0.0,0.0,0.0,0.0,0.0,0.0,0.0,0.0,0.0,0.0,0.0,0.0,0.0,0.0,0.0,0.0,0.0,0.0,0.0,0.0,0.0,0.0,0.0,0.0,-1.7216,-1.8345,-1.9188,0.0,0.0,0.0,0.0,0.0,0.0,-1.7249,-1.6392,0.0,0.0,0.0,0.0,0.0,0.0,0.0,0.0,0.0,0.0,0.0,0.0,0.0,0.0,0.0,0.0,0.0,0.0,0.0,0.0,0.0,0.0,0.0,0.0,0.0,0.0,0.0,0.0,0.0,0.0,0.0,0.0,0.0,0.0,0.0,0.0,0.0,0.0,0.0,0.0,0.0,0.0,0.0,0.0,0.0,0.0,0.0,0.0,0.0,0.0,0.0,0.0,0.0,0.0,0.0,-1.8713,-2.168,-2.3784,-2.4934,-2.4991,-2.4991,-2.4972,-2.3689,-2.2057,0.0,0.0,0.0,0.0,0.0,0.0,0.0,0.0,0.0,0.0,0.0,0.0,0.0,0.0,0.0,0.0,0.0,0.0,0.0,0.0,0.0,0.0,0.0,0.0,0.0,0.0,0.0,0.0,0.0,0.0,0.0,0.0,0.0,0.0,0.0,0.0,0.0,0.0,0.0,0.0,0.0,-2.0221,-2.0706,-2.075,0.0,0.0,0.0,0.0,-2.0039,-1.9341,0.0,0.0,0.0,0.0,0.0,0.0,0.0,0.0,0.0,0.0,0.0,0.0,0.0,0.0,0.0,0.0,0.0,0.0,0.0,0.0,0.0,0.0,0.0,0.0,0.0,0.0,0.0,0.0,0.0,0.0,0.0,0.0,0.0,0.0,0.0,0.0,0.0,0.0,0.0,0.0,0.0,0.0,0.0,0.0,0.0,0.0,0.0,0.0,0.0,0.0,0.0,0.0,0.0,0.0,0.0,0.0,-1.8619,-2.0543,-2.2628,-2.4858,-2.4991,-2.4991,-2.4991,-2.482,-2.3233,0.0,0.0,0.0,0.0,0.0,0.0,0.0,0.0,0.0,0.0,0.0,0.0,0.0,0.0,0.0,0.0,0.0,0.0,0.0,0.0,0.0,0.0,0.0,0.0,0.0,0.0,0.0,0.0,0.0,0.0,0.0,0.0,0.0,0.0,0.0,0.0,0.0,0.0,0.0,0.0,0.0,-2.2418,-2.1757,-2.1659,-2.1641,0.0,0.0,-2.1798,-2.2557,-2.1934,0.0,0.0,0.0,0.0,0.0,0.0,0.0,0.0,0.0,0.0,0.0,0.0,0.0,0.0,0.0,0.0,0.0,0.0,0.0,0.0,0.0,0.0,0.0,0.0,0.0,0.0,0.0,0.0,0.0,0.0,0.0,0.0,0.0,0.0,0.0,0.0,0.0,0.0,0.0,0.0,0.0,0.0,0.0,0.0,0.0,0.0,0.0,0.0,0.0,0.0,0.0,0.0,0.0,0.0,0.0,-1.7047,-1.9425,-2.2021,-2.3878,-2.4953,-2.4991,-2.4991,-2.4991,-2.41,-2.2235,0.0,0.0,0.0,0.0,0.0,0.0,0.0,0.0,0.0,0.0,0.0,0.0,0.0,0.0,0.0,0.0,0.0,0.0,0.0,0.0,0.0,0.0,0.0,0.0,0.0,0.0,0.0,0.0,0.0,0.0,0.0,0.0,0.0,0.0,0.0,0.0,0.0,0.0,0.0,0.0,0.0,0.0,-2.3191,-2.3271,0.0,0.0,0.0,-2.381,-2.3203,0.0,0.0,0.0,0.0,0.0,0.0,0.0,0.0,0.0,0.0,0.0,0.0,0.0,0.0,0.0,0.0,0.0,0.0,0.0,0.0,0.0,0.0,0.0,0.0,0.0,0.0,0.0,0.0,0.0,0.0,0.0,0.0,0.0,0.0,0.0,0.0,0.0,0.0,0.0,0.0,0.0,0.0,0.0,0.0,0.0,0.0,0.0,0.0,0.0,0.0,0.0,0.0,0.0,0.0,0.0,0.0,0.0,-2.0012,-2.331,-2.4991,-2.4991,-2.4991,-2.4991,-2.4972,-2.3784,0.0,0.0,0.0,0.0,0.0,0.0,0.0,0.0,0.0,0.0,0.0,0.0,0.0,0.0,0.0,0.0,0.0,0.0,0.0,0.0,0.0,0.0,0.0,0.0,0.0,0.0,0.0,-0.9109,0.0,0.0,0.0,0.0,0.0,0.0,0.0,0.0,0.0,0.0,0.0,0.0,0.0,0.0,-2.3247,-2.4547,-2.5077,-2.5353,0.0,0.0,-2.5566,-2.4293,-2.4978,-2.4608,0.0,0.0,0.0,0.0,0.0,0.0,0.0,0.0,0.0,0.0,0.0,0.0,0.0,0.0,0.0,0.0,0.0,0.0,0.0,0.0,0.0,0.0,0.0,0.0,0.0,0.0,0.0,0.0,0.0,0.0,0.0,0.0,0.0,0.0,0.0,0.0,0.0,0.0,0.0,0.0,0.0,0.0,0.0,0.0,0.0,0.0,0.0,0.0,0.0,0.0,0.0,0.0,0.0,0.0,0.0,-2.005,-2.331,-2.4996,-2.501,-2.4991,-2.4991,-2.4991,-2.4877,-2.3271,0.0,0.0,0.0,0.0,0.0,0.0,0.0,0.0,0.0,0.0,0.0,0.0,0.0,0.0,0.0,0.0,0.0,0.0,0.0,0.0,0.0,0.0,0.0,0.0,0.0,0.0,0.0,0.0,0.0,0.0,0.0,0.0,0.0,0.0,0.0,0.0,0.0,0.0,0.0,0.0,0.0,-2.5476,-2.5587,-2.6952,-2.795,0.0,0.0,-2.6869,-2.6752,-2.6152,-2.4809,-2.2231,0.0,0.0,0.0,0.0,0.0,0.0,0.0,0.0,0.0,0.0,0.0,0.0,0.0,0.0,0.0,0.0,0.0,0.0,0.0,0.0,0.0,0.0,0.0,0.0,0.0,0.0,0.0,0.0,0.0,0.0,0.0,0.0,0.0,0.0,0.0,0.0,0.0,0.0,0.0,0.0,0.0,0.0,0.0,0.0,0.0,0.0,0.0,0.0,0.0,0.0,0.0,0.0,0.0,-1.8237,-2.0001,-2.322,-2.4889,-2.4889,-2.4964,-2.4936,-2.4817,-2.4936,-2.3386,0.0,0.0,0.0,0.0,0.0,0.0,0.0,0.0,0.0,0.0,0.0,0.0,0.0,0.0,0.0,0.0,0.0,0.0,0.0,0.0,0.0,0.0,0.0,0.0,0.0,0.0,0.0,0.0,-1.0096,-1.022,-1.0526,0.0,0.0,0.0,0.0,0.0,0.0,0.0,0.0,0.0,0.0,-2.5788,-2.6415,-2.7472,0.0,0.0,-2.8392,-2.8359,-2.783,-2.7504,-2.6613,-2.4564,-2.3784,0.0,0.0,0.0,0.0,0.0,0.0,0.0,0.0,0.0,0.0,0.0,0.0,0.0,0.0,0.0,0.0,0.0,0.0,0.0,0.0,0.0,0.0,0.0,0.0,0.0,0.0,0.0,0.0,0.0,0.0,0.0,0.0,0.0,0.0,0.0,0.0,0.0,0.0,0.0,0.0,0.0,0.0,0.0,0.0,0.0,0.0,0.0,0.0,0.0,0.0,0.0,0.0,-1.8176,-1.993,-2.3361,-2.5141,-2.5126,-2.5238,-2.5209,-2.5064,-2.4945,-2.352,0.0,0.0,0.0,0.0,0.0,0.0,0.0,0.0,0.0,0.0,0.0,0.0,0.0,0.0,0.0,0.0,0.0,0.0,0.0,0.0,0.0,0.0,0.0,0.0,0.0,0.0,0.0,0.0,-1.0321,-1.0354,-1.0136,0.0,0.0,0.0,0.0,0.0,0.0,0.0,0.0,0.0,0.0,-2.6641,-2.7595,-2.8427,-2.8981,-2.8992,-2.9277,-2.9211,-2.8326,-2.8236,-2.7696,-2.598,0.0,0.0,0.0,0.0,0.0,0.0,0.0,0.0,0.0,0.0,0.0,0.0,0.0,0.0,0.0,0.0,0.0,0.0,0.0,0.0,0.0,0.0,0.0,0.0,0.0,0.0,0.0,-1.1194,0.0,0.0,-1.009,0.0,0.0,0.0,0.0,0.0,0.0,0.0,0.0,0.0,0.0,0.0,0.0,0.0,0.0,0.0,0.0,0.0,0.0,0.0,0.0,0.0,0.0,-1.8154,-1.9842,-2.3821,-2.5874,-2.5874,-2.5874,-2.5874,-2.582,-2.512,-2.3885,-2.2145,0.0,0.0,0.0,0.0,0.0,0.0,0.0,0.0,0.0,0.0,0.0,0.0,0.0,0.0,0.0,0.0,0.0,0.0,0.0,0.0,0.0,0.0,0.0,0.0,0.0,0.0,-1.0211,-1.0799,-1.099,0.0,0.0,0.0,0.0,0.0,0.0,0.0,0.0,0.0,0.0,-2.6456,-2.8457,-2.9227,-3.0144,-3.0726,-3.076,-3.0072,-2.9262,-2.8443,-2.8255,-2.7638,0.0,0.0,0.0,0.0,0.0,0.0,0.0,0.0,0.0,0.0,0.0,0.0,0.0,0.0,0.0,0.0,0.0,0.0,0.0,0.0,0.0,0.0,0.0,0.0,0.0,0.0,0.0,-1.5884,-1.51,0.0,0.0,0.0,0.0,0.0,0.0,0.0,0.0,0.0,0.0,0.0,-2.3861,-2.4877,0.0,0.0,0.0,0.0,0.0,0.0,0.0,0.0,0.0,0.0,0.0,0.0,-1.9218,-2.1488,-2.4357,-2.609,-2.6614,-2.6703,-2.6461,-2.5797,-2.5581,-2.4189,-2.1494,0.0,0.0,0.0,0.0,0.0,0.0,0.0,0.0,0.0,0.0,0.0,0.0,0.0,0.0,0.0,0.0,0.0,0.0,0.0,0.0,0.0,0.0,0.0,0.0,0.0,-1.1193,0.0,0.0,0.0,0.0,0.0,0.0,0.0,0.0,0.0,0.0,0.0,-2.3913,-2.5693,-2.764,-2.9233,-3.0203,-3.1106,-3.1856,0.0,0.0,0.0,0.0,0.0,0.0,0.0,0.0,0.0,0.0,0.0,0.0,0.0,0.0,-2.8513,-2.3933,-2.287,-2.2837,-2.3419,0.0,0.0,0.0,0.0,0.0,0.0,0.0,0.0,0.0,0.0,0.0,0.0,0.0,0.0,-1.9782,0.0,-1.841,0.0,0.0,0.0,0.0,0.0,0.0,0.0,0.0,-2.5388,-2.6935,-2.755,-2.8277,-2.796,0.0,-2.5609,-2.2899,0.0,0.0,0.0,0.0,0.0,0.0,0.0,0.0,-2.0717,-2.2665,-2.5252,-2.686,-2.7364,-2.7475,-2.7083,-2.6135,-2.5665,-2.426,-2.1838,-2.0466,-1.8883,0.0,0.0,0.0,0.0,0.0,0.0,0.0,0.0,0.0,0.0,0.0,0.0,0.0,0.0,0.0,0.0,0.0,0.0,0.0,0.0,0.0,0.0,0.0,-1.1843,0.0,0.0,0.0,0.0,0.0,0.0,0.0,0.0,0.0,-2.512,-2.5621,-2.6458,-2.8229,-2.965,-3.077,-3.1437,0.0,0.0,0.0,0.0,0.0,0.0,0.0,-3.1129,-3.1963,-3.0938,-3.0299,-3.1118,-3.1967,-3.245,-3.2138,0.0,0.0,-2.7238,-2.6307,-2.6424,-2.7082,-2.7379,-2.7457,-2.748,-2.7928,-2.817,0.0,0.0,0.0,0.0,0.0,0.0,0.0,0.0,-2.3752,-2.3718,0.0,-2.2731,0.0,0.0,0.0,0.0,0.0,-2.3188,0.0,0.0,-2.9241,-3.0727,-3.0652,-3.0002,-2.9983,-3.0652,-3.0541,-2.8907,-2.5705,-2.0345,0.0,0.0,0.0,0.0,0.0,0.0,-2.2558,-2.3524,-2.6507,-2.8086,-2.8123,-2.8161,-2.7752,-2.6897,-2.5392,-2.4165,-2.3258,-2.2486,-2.1007,-1.8609,-1.7015,0.0,0.0,0.0,0.0,0.0,0.0,0.0,0.0,0.0,0.0,0.0,0.0,0.0,0.0,0.0,0.0,0.0,0.0,0.0,0.0,-1.2116,0.0,0.0,0.0,0.0,0.0,0.0,0.0,0.0,0.0,0.0,-2.8668,-2.907,-2.9852,-3.1385,0.0,0.0,0.0,0.0,-3.3171,-3.3386,-3.3382,-3.316,-3.2494,-3.2991,-3.3205,-3.2504,0.0,0.0,-3.2465,-3.301,-3.338,-3.2504,-3.3186,-3.3356,-3.2655,-3.2031,-3.2012,-3.2284,-3.1466,-3.0896,-3.0857,-3.0745,-3.0804,-3.0541,0.0,0.0,0.0,0.0,-2.7326,-2.8521,-3.0331,-3.0269,-2.9595,-2.848,-2.768,0.0,0.0,0.0,0.0,0.0,0.0,-2.8796,-3.015,-3.2232,-3.3157,-3.3175,-3.3566,-3.325,-3.2302,-3.1749,-3.0689,-2.9186,-2.7009,-2.3859,-1.9951,0.0,0.0,0.0,0.0,-2.3934,-2.5872,-2.7363,-2.8422,-2.9016,-2.9035,-2.8347,-2.6935,-2.5912,-2.4983,-2.4148,-2.3331,-2.2322,-2.1082,-1.8945,0.0,0.0,0.0,0.0,0.0,0.0,0.0,0.0,0.0,0.0,0.0,0.0,0.0,0.0,0.0,0.0,0.0,0.0,0.0,-1.3781,-1.4149,-1.5098,0.0,0.0,0.0,0.0,0.0,0.0,0.0,0.0,0.0,-3.2088,-3.1403,-3.1199,0.0,0.0,-3.3376,-3.4581,-3.4865,-3.5377,-3.6645,-3.6915,0.0,-3.6707,-3.583,-3.5519,-3.6493,-3.6863,-3.6941,-3.6707,-3.6883,-3.696,-3.6668,-3.6883,-3.661,-3.5168,-3.3882,-3.3278,-3.3551,-3.3142,-3.2674,-3.2655,-3.2655,-3.2674,-3.6342,-3.3631,-3.0874,-3.0202,-3.0966,-3.1257,-3.2389,-3.4051,-3.3998,-3.3621,-3.2953,-3.2177,-3.0779,-2.9016,-2.7901,0.0,0.0,0.0,-3.2032,-3.3324,-3.4587,-3.5182,-3.5219,-3.572,-3.5442,-3.4439,-3.364,-3.2841,-3.2028,-3.1229,-2.8776,-2.4845,0.0,0.0,-2.508,-2.5164,-2.6097,-2.7885,-2.8386,-2.8868,-2.9388,-2.9072,-2.8273,-2.6953,-2.6135,-2.5317,-2.4518,-2.3999,-2.3347,-2.2545,-2.0844,-1.8988,0.0,0.0,0.0,0.0,0.0,0.0,0.0,0.0,0.0,0.0,0.0,-1.3444,0.0,0.0,0.0,0.0,-1.3493,-1.5066,-1.7274,-1.8051,0.0,0.0,0.0,0.0,0.0,0.0,0.0,-2.9285,-3.1697,-3.3633,-3.4639,-3.4219,-3.4058,-3.4699,-3.4772,-3.5166,-3.6195,0.0,-3.6832,-3.7947,-3.8149,-3.8258,-3.8302,-3.7483,-3.7194,-3.8221,-3.8415,-3.8435,-3.8435,-3.8415,-3.8415,-3.8415,-3.8415,-3.8118,-3.7111,-3.6047,-3.5431,-3.5825,-3.5655,-3.5441,-3.5421,-3.5421,-3.5421,-4.1274,-4.0123,-3.487,-3.3041,-3.364,-3.4383,-3.52,-3.5962,-3.598,-3.6352,-3.6928,-3.6203,-3.5367,-3.4401,-3.2878,0.0,-3.3324,-3.4123,-3.4922,-3.5702,-3.65,-3.6853,-3.6798,-3.6779,-3.676,-3.6668,-3.5925,-3.5163,-3.4364,-3.3566,-3.2451,-3.0987,-2.9293,-2.8851,-2.9509,-2.8702,-2.8717,-2.9574,-2.9611,-2.9556,-2.95,-2.8663,-2.7808,-2.6935,-2.6191,-2.5392,-2.4555,-2.45,-2.4111,-2.3333,-2.2598,-2.1123,-1.8795,0.0,0.0,0.0,0.0,0.0,0.0,0.0,0.0,0.0,0.0,0.0,0.0,0.0,0.0,0.0,-1.7928,0.0,-2.1339,-2.2893,0.0,0.0,0.0,-2.6631,-2.6949,-2.9649,-3.1815,-3.2705,0.0,0.0,-3.6483,-3.7185,-3.7718,-3.7776,-3.77,-3.7624,-3.77,-3.768,-3.7773,-3.8051,-3.8059,-3.8132,-3.8508,-3.844,-3.8491,-3.8645,-3.849,-3.8615,-3.8615,-3.8615,-3.8557,-3.8615,-3.8529,-3.8555,-3.8669,-3.8529,-3.8536,-3.8592,-3.8449,-3.839,-3.824,-3.8195,-3.8156,-4.2407,-4.2054,-4.0114,-3.9036,-3.8655,-3.8841,-3.938,-4.0141,-4.016,-3.9918,-3.9491,-3.9324,-3.8395,-3.6965,-3.598,-3.5646,-3.5869,-3.6649,-3.7132,-3.7373,-3.8154,-3.8209,-3.7615,-3.7615,-3.7281,-3.6705,-3.65,-3.6315,-3.6055,-3.5293,-3.4699,-3.4253,-3.2655,-3.134,-3.0358,-3.0113,-3.0411,-3.1247,-3.1206,-3.095,-3.0336,-2.9518,-2.8403,-2.6935,-2.6712,-2.5949,-2.4574,-2.45,-2.4407,-2.4202,-2.3386,-2.2365,-2.1176,-1.8217,0.0,0.0,0.0,0.0,0.0,0.0,0.0,0.0,0.0,-1.7943,-1.4005,0.0,-1.9482,0.0,-1.9633,-2.1566,-2.3878,-2.4447,0.0,0.0,-2.9071,-3.0037,-3.2576,-3.3562,-3.4339,-3.523,-3.6975,-3.8112,-3.8112,-3.8833,-3.9345,-3.9326,-3.8345,-3.7814,-3.8404,-3.8611,-3.8927,-3.9531,-3.9817,-4.0024,-4.001,-4.0178,-4.0209,-4.0286,-4.0266,-4.0286,-4.0286,-4.0286,-4.0286,-4.0286,-4.0305,-4.0305,-4.0276,-4.0296,-4.0276,-4.0247,-3.9285,-3.8366,-3.8435,-3.8412,-3.8393,-4.3336,-4.328,-4.2853,-4.2407,-4.1962,-4.1256,-4.1163,-4.159,-4.159,-4.1349,-4.0921,-4.094,-4.0401,-3.9547,-3.9082,-3.8878,-3.8915,-3.9342,-3.9361,-3.9045,-3.9454,-3.9231,-3.8432,-3.8432,-3.8191,-3.7764,-3.7392,-3.7225,-3.7188,-3.6408,-3.6017,-3.5999,-3.4736,-3.3658,-3.2767,-3.1689,-3.1545,-3.2321,-3.1968,-3.1433,-3.0634,-3.0169,-2.8961,-2.699,-2.6897,-2.6154,-2.4555,-2.45,-2.45,-2.45,-2.4036,-2.3388,-2.2553,-2.0121,-1.8191,0.0,0.0,0.0,0.0,0.0,0.0,0.0,0.0,0.0,0.0,0.0,-2.2249,-2.2059,-2.3916,-2.5982,-2.8085,-2.9317,-3.0758,-3.2653,-3.3089,-3.3847,-3.5325,-3.614,-3.6765,-3.7258,-3.8774,-3.9816,-3.9816,-4.0517,-4.1029,-4.101,-4.0295,-3.9616,-3.9332,-3.9356,-3.9586,-4.0081,-4.03,-4.0427,-4.0535,-4.0636,-4.0718,-4.0846,-4.0856,-4.0856,-4.0856,-4.0856,-4.0837,-4.0856,-4.0856,-4.0846,-4.0843,-4.0854,-4.0846,-4.0738,-4.0098,-3.9519,-3.9507,-3.9507,-3.9488,-4.4005,-4.4005,-4.4005,-4.4005,-4.3893,-4.25,-4.1906,-4.1906,-4.1906,-4.1906,-4.1906,-4.1794,-4.1757,-4.1757,-4.1646,-4.159,-4.159,-4.159,-4.1219,-4.0568,-4.055,-4.0104,-3.9268,-3.9268,-3.9212,-3.9064,-3.8395,-3.8061,-3.8024,-3.7243,-3.6853,-3.6816,-3.6036,-3.5646,-3.5535,-3.338,-3.2562,-3.312,-3.234,-3.1597,-3.0909,-3.0705,-2.9518,-2.7344,-2.7028,-2.621,-2.4741,-2.4648,-2.4648,-2.4648,-2.4648,-2.4314,-2.3537,-2.1888,-2.0571,0.0,-1.8421,0.0,0.0,0.0,0.0,0.0,0.0,0.0,0.0,-2.3763,-2.5186,-2.6854,-2.9204,-3.125,-3.2747,-3.487,-3.5988,-3.5495,-3.6689,-3.7315,-3.6822,-3.8054,-3.902,-3.9041,-4.0385,-4.1351,-4.1351,-4.1977,-4.2393,-4.2299,-4.2185,-4.1654,-4.0574,-4.0271,-4.0352,-4.0298,-4.0319,-4.0673,-4.0816,-4.0809,-4.0873,-4.104,-4.121,-4.1107,-4.1203,-4.1177,-4.117,-4.119,-4.1248,-4.1209,-4.1119,-4.119,-4.117,-4.1228,-4.119,-4.1033,-4.081,-4.0733,-4.0898,-4.4005,-4.4005,-4.4005,-4.4005,-4.3968,-4.367,-4.354,-4.354,-4.354,-4.354,-4.3485,-4.2872,-4.2575,-4.2519,-4.1887,-4.159,-4.159,-4.159,-4.1516,-4.1367,-4.1367,-4.0921,-4.0178,-4.016,-3.977,-3.912,-3.8952,-3.8878,-3.8841,-3.8061,-3.7671,-3.7652,-3.6853,-3.6463,-3.6408,0.0,0.0,0.0,-3.3175,-3.2692,-3.2507,-3.1284,-3.0076,-2.8961,-2.7622,0.0,-2.554,-2.5466,-2.5466,-2.5466,-2.5466,0.0,0.0,0.0,0.0,0.0,0.0,0.0,0.0,0.0,0.0,0.0,-2.5712,-2.5343,-2.4511,-2.7036,-2.9431,-3.1099,-3.2899,-3.4396,-3.5363,-3.5893,-3.6689,-3.7866,-3.8262,-3.8641,-3.9153,-4.01,-4.0726,-4.0745,-4.1579,-4.2185,-4.2204,-4.2337,-4.2431,-4.2488,-4.2412,-4.2299,-4.2014,-4.1882,-4.192,-4.1942,-4.1879,-4.2104,-4.2315,-4.2276,-4.2219,-4.2443,-4.2563,-4.2607,-4.2583,-4.2709,-4.2802,-4.2763,-4.2821,-4.2783,-4.2763,-4.2821,-4.2725,-4.2802,-4.2783,-4.2421,-4.1117,-4.0823,-4.0843,-4.4005,0.0,-4.4005,-4.4005,0.0,-4.4005,-4.4005,-4.4005,-4.4005,-4.4005,-4.3968,-4.3434,-4.3185,-4.3167,-4.276,-4.2511,-4.2382,-4.24,-4.2161,-4.1774,-4.1756,-4.1414,-4.0799,-4.0799,-4.0415,-3.9751,-3.9751,-3.951,-3.9101,-3.8692,-3.8488,-3.8488,-3.7689,-3.7299,-3.7262,-3.6482,-3.546,-3.4216,-3.3788,-3.3398,-3.299,-3.2191,-3.1002,-2.9463,-2.8589,0.0,0.0,0.0,0.0,0.0,0.0,0.0,0.0,0.0,0.0,-2.3693,-2.3693,-2.3929,-2.4441,-2.5204,-2.6581,-2.861,-2.9978,-3.0038,-2.8518,-3.0088,-3.1974,-3.3901,-3.5956,-3.7225,-3.7327,-3.7705,-3.8294,-3.9191,-3.9683,-4.01,-4.0555,-4.1275,-4.1787,-4.1882,-4.2545,-4.3057,-4.3038,-4.3436,-4.3625,-4.3644,-4.3644,-4.3606,-4.3549,-4.2924,-4.2393,-4.2375,-4.2196,-4.2229,-4.264,-4.2924,-4.2964,-4.2891,-4.2958,-4.306,-4.3096,-4.3202,-4.3305,-4.3305,-4.3305,-4.3305,-4.3305,-4.3305,-4.3305,-4.3305,-4.3305,-4.3086,-4.2163,-4.2054,-4.2022,-4.4005,-4.4005,-4.3955,-4.3942,-4.3942,-4.386,-4.386,-4.386,0.0,0.0,0.0,-4.3763,-4.3646,-4.3631,-4.3646,-4.3529,-4.3268,-4.3321,-4.2955,-4.2262,-4.2297,-4.1977,-4.1488,-4.147,-4.1188,-4.0624,-4.0606,-4.016,-3.9342,-3.9324,-3.925,-3.9064,-3.8432,-3.8061,-3.7856,-3.7217,-3.6122,-3.4699,-3.4494,-3.4011,-3.3231,-3.304,-3.2015,-3.003,-2.9635,-2.8775,-2.7301,-2.7202,-2.7167,-2.7043,-2.7039,-2.7078,-2.7046,-2.7038,-2.7019,-2.7046,-2.7278,-2.7747,-2.8417,-2.8643,-2.95,-3.1114,-3.331,-3.3994,-3.2604,-3.2994,-3.4147,-3.6062,-3.822,-3.9301,-3.8949,-3.95,-3.9995,-4.0239,-4.0923,-4.134,-4.1396,-4.2059,-4.2527,-4.2626,-4.3307,-4.3861,-4.388,-4.4397,-4.4895,-4.4876,-4.4762,-4.4895,-4.4743,-4.3758,-4.3,-4.2981,-4.2815,-4.2515,-4.293,-4.3361,-4.3456,-4.3347,-4.3406,-4.3472,-4.3522,-4.3616,-4.3722,-4.3885,-4.3769,-4.3808,-4.3788,-4.3866,-4.373,-4.375,-4.373,-4.373,-4.373,-4.375,-4.3614,-4.4005,-4.3955,-4.3744,-4.3646,-4.3612,-4.3391,-4.3304,-4.3339,-4.3795,-4.4005,-4.4005,-4.3955,-4.3828,-4.3612,-4.3828,-4.3795,-4.3563,-4.3795,-4.3804,-4.3693,-4.3725,-4.3299,-4.2569,-4.2569,-4.2173,-4.1479,-4.1441,-4.1014,-4.029,-4.0197,-3.9844,-3.9175,-3.8971,-3.8581,-3.7931,-3.7553,-3.7036,-3.6352,-3.5646,-3.4903,-3.403,-3.3173,-3.2594,-3.2207,-3.065,-2.982,-2.9669,-2.8892,-2.8521,-2.8717,-2.804,-2.8006,-2.8666,-2.7985,-2.7848,-2.8621,-2.9232,-2.9672,-2.9899,-3.0765,-3.1968,-3.3547,-3.4723,-3.4976,-3.4218,-3.5857,-3.7216,-3.7938,-3.8883,-3.9727,-4.0372,-4.056,-4.0898,-4.1543,-4.1807,-4.1882,-4.1901,-4.2615,-4.313,-4.3149,-4.3943,-4.4511,-4.4511,-4.4745,-4.487,-4.4895,-4.4895,-4.4895,-4.4857,-4.4724,-4.4554,-4.4554,-4.4497,-4.4478,-4.4412,-4.4578,-4.4521,-4.4621,-4.4693,-4.4766,-4.4863,-4.4987,-4.5102,-4.536,-4.5258,-4.5316,-4.5336,-4.5452,-4.5297,-4.5258,-4.5239,-4.5297,-4.5258,-4.5258,-4.491,-4.4005,-4.3974,-4.373,-4.3597,-4.3597,-4.3304,-4.3214,-4.3214,-4.3479,-4.3582,-4.3529,-4.3355,-4.3213,-4.3142,-4.3249,-4.3142,-4.2902,-4.2995,-4.3069,-4.3069,-4.3069,-4.2941,-4.2772,-4.2754,-4.2383,-4.1801,-4.1765,-4.1342,-4.0588,-4.011,-3.9706,-3.9301,-3.8927,-3.8523,-3.8191,-3.8053,-3.7649,-3.6922,-3.5708,-3.4934,-3.467,-3.3713,-3.2975,-3.2554,-3.1636,-3.0982,-3.0527,-3.0199,-3.0086,-3.0247,-2.982,-2.9783,-3.0192,-2.9923,-2.9868,-3.0192,-3.0686,-3.1204,-3.17,-3.3017,-3.4104,-3.4866,-3.6073,-3.6656,-3.6342,-3.6807,-3.7578,-3.8656,-3.9842,-4.0616,-4.0705,-4.1087,-4.1518,-4.1954,-4.2393,-4.2656,-4.275,-4.3407,-4.3914,-4.3951,-4.4307,-4.4578,-4.4578,-4.4659,-4.4738,-4.477,-4.4846,-4.4895,-4.4895,-4.4895,-4.4895,-4.4895,-4.4895,-4.4895,-4.4895,-4.4895,-4.4895,-4.4895,-4.508,-4.5213,-4.53,-4.5457,-4.5594,-4.5658,-4.5757,-4.58,-4.58,-4.58,-4.58,-4.58,-4.58,-4.58,-4.58,-4.58,-4.551,-4.4172,-4.3974,-4.3664,-4.3461,-4.3303,-4.3069,-4.3013,-4.2994,-4.2975,-4.3013,-4.2975,-4.2844,-4.2788,-4.2693,-4.2788,-4.2652,-4.2432,-4.2472,-4.253,-4.253,-4.2512,-4.2631,-4.2788,-4.2844,-4.2595,-4.2249,-4.2194,-4.1775,-4.0975,-4.0354,-3.9844,-3.9462,-3.8765,-3.8382,-3.8382,-3.835,-3.8008,-3.733,-3.5854,-3.5132,-3.5266,-3.429,-3.3484,-3.2892,-3.2573,-3.2107,-3.1379,-3.1283,-3.1293,-3.1374,-3.1165,-3.1147,-3.1374,-3.155,-3.1623,-3.1664,-3.1942,-3.249,-3.3456,-3.4922,-3.5832,-3.6036,-3.7169,-3.7968,-3.8098,-3.7596,-3.7819,-3.9268,-4.0568,-4.1258,-4.125,-4.1651,-4.2137,-4.2408,-4.2997,-4.3353,-4.3446,-4.3989,-4.4383,-4.4383,-4.4411,-4.4458,-4.444,-4.4468,-4.4551,-4.4659,-4.4745,-4.4796,-4.4796,-4.4796,-4.4796,-4.484,-4.4865,-4.4895,-4.4895,-4.4895,-4.4895,-4.4895,-4.5014,-4.5125,-4.5213,-4.5381,-4.5528,-4.558,-4.5677,-4.5757,-4.58,-4.58,-4.58,-4.58,-4.58,-4.58,-4.58,-4.58,-4.578,-4.4729,-4.3998,-4.3516,-4.292,-4.2472,-4.2409,-4.2391,-4.2409,-4.2391,-4.2351,-4.2432,-4.292,-4.2957,-4.2788,-4.2995,-4.292,-4.2673,-4.2957,-4.3087,-4.3068,-4.3123,-4.3123,-4.3087,-4.3123,-4.3124,-4.3032,-4.3014,-4.2523,-4.1759,-4.1631,-4.0884,-3.9589,-3.8765,-3.8401,-3.835,-3.8153,-3.8117,-3.8255,-3.6942,-3.6098,-3.5769,-3.4854,-3.4297,-3.4212,-3.3306,-3.288,-3.2889,-3.214,-3.1763,-3.1913,-3.1281,-3.1209,-3.1906,-3.1986,-3.2293,-3.2943,-3.3045,-3.3593,-3.4815,-3.5932,-3.6891,-3.7578,-3.7737,-3.8228,-3.8878,-3.8897,-3.9231,-4.016,-4.0661,-4.1489,-4.2437,-4.266,-4.2988,-4.3546,-4.3788,-4.3906,-4.3899,-4.398,-4.4036,-4.4036,-4.4207,-4.4314,-4.4296,-4.4401,-4.4487,-4.4515,-4.4551,-4.4578,-4.4578,-4.4578,-4.4578,-4.4624,-4.4738,-4.487,-4.487,-4.4895,-4.4895,-4.4895,-4.4919,-4.4991,-4.5148,-4.5235,-4.53,-4.5512,-4.5613,-4.5661,-4.5757,-4.58,-4.58,-4.58,-4.58,-4.58,-4.58,-4.58,-4.58,-4.5528,-4.4735,-4.4141,-4.3278,-4.2364,-4.2287,-4.2287,-4.2287,-4.2287,-4.2287,-4.2328,-4.2552,-4.2591,-4.2454,-4.2631,-4.2591,-4.2472,-4.2631,-4.267,-4.267,-4.267,-4.267,-4.267,-4.267,-4.267,-4.267,-4.267,-4.249,-4.2091,-4.1659,-4.0633,-3.9211,-3.8744,-3.8401,-3.7951,-3.7828,-3.781,-3.7915,-3.7399,-3.7023,-3.6766,-3.5567,-3.4855,-3.4784,-3.4056,-3.363,-3.3637,-3.2894,-3.2527,-3.2721,-3.229,-3.226,-3.2733,-3.2721,-3.3064,-3.3851,-3.4498,-3.5011,-3.5546,-3.6431,-3.7066,-3.7397,-3.7923,-3.8424,-3.8865,-3.9017,-3.964,-4.0958,-4.2054,-4.2779,-4.2853,-4.3225,-4.3652,-4.3949,-4.4005,-4.4005,-4.4005,-4.4005,-4.4005,-4.4005,-4.4067,-4.4097,-4.4128,-4.4266,-4.4373,-4.4401,-4.443,-4.4468,-4.4515,-4.4496,-4.4496,-4.4515,-4.4605,-4.4685,-4.4764,-4.477,-4.4796,-4.487,-4.4895,-4.4943,-4.501,-4.5148,-4.5256,-4.5361,-4.5493,-4.5596,-4.5661,-4.5771,-4.58,-4.58,-4.58,-4.58,-4.58,-4.58,-4.58,-4.616,-4.5284,-4.4565,-4.3508,-4.2328,-4.2287,-4.2287,-4.2287,-4.2287,-4.2287,-4.2287,-4.2287,-4.2287,-4.2287,-4.2287,-4.2287,-4.2287,-4.2287,-4.2287,-4.2287,-4.2287,-4.2287,-4.2287,-4.2287,-4.2287,-4.2287,-4.2328,-4.2328,-4.2198,-4.1484,-4.0521,-3.9539,-3.9236,-3.8719,-3.8005,-3.7933,-3.7809,-3.7631,-3.7577,-3.7577,-3.7452,-3.6453,-3.5757,-3.5507,-3.4793,-3.4401,-3.4383,-3.3847,-3.3573,-3.3746,-3.3605,-3.3605,-3.3746,-3.3746,-3.4015,-3.4641,-3.5602,-3.6194,-3.6255,-3.7095,-3.7595,-3.7692,-3.8273,-3.8756,-3.9102,-3.9147,-3.9974,-4.1739,-4.3188,-4.367,-4.3336,-4.3652,-4.3986,-4.4005,-4.4005,-4.4005,-4.4005,-4.4005,-4.4005,-4.4005,-4.4005,-4.4005,-4.4023,-4.4116,-4.4207,-4.4207,-4.4296,-4.4354,-4.4354,-4.4354,-4.4354,-4.4354,-4.4354,-4.4421,-4.4605,-4.4659,-4.4712,-4.4745,-4.477,-4.477,-4.4865,-4.4991,-4.5194,-4.5282,-4.5456,-4.5596,-4.5696,-4.5757,-4.58,-4.58,-4.58,-4.58,-4.58,-4.58,-4.58,-4.6507,-4.5421,-4.4367,-4.3328,-4.2305,-4.2287,-4.2287,-4.2287,-4.2287,-4.2287,-4.2287,-4.2287,-4.2287,-4.2287,-4.2287,-4.2287,-4.2287,-4.2287,-4.2287,-4.2287,-4.2287,-4.2287,-4.2287,-4.2287,-4.2287,-4.2287,-4.2287,-4.2287,-4.2234,-4.1538,-4.1074,-4.0931,-4.0217,-3.9504,-3.8843,-3.8701,-3.8344,-3.7755,-3.7612,-3.7577,-3.7577,-3.7487,-3.7041,-3.6345,-3.5578,-3.5168,-3.515,-3.5114,-3.5061,-3.5079,-3.5007,-3.5025,-3.5043,-3.5061,-3.5113,-3.5289,-3.6155,-3.6852,-3.7166,-3.8022,-3.8645,-3.8868,-3.8931,-3.9398,-3.9941,-3.9618,-4.0296,-4.2489,-4.3336,-4.3868,-4.3812,-4.3881,-4.4005,-4.4005,-4.4005,-4.4005,-4.4005,-4.4005,-4.4005,-4.4005,-4.4005,-4.4005,-4.4005,-4.4005,-4.4036,-4.4055,-4.4036,-4.4048,-4.4067,-4.4067,-4.4067,-4.4067,-4.4067,-4.4128,-4.4411,-4.4515,-4.4515,-4.4551,-4.4605,-4.4578,-4.4693,-4.4827,-4.5023,-4.522,-4.5438,-4.5601,-4.5715,-4.5791,-4.58,-4.58,-4.58,-4.58,-4.58,-4.58,-4.58,-4.7062,-4.587,-4.4484,-4.3558,-4.3036,-4.2519,-4.2287,-4.2287,-4.2287,-4.2287,-4.2287,-4.2287,-4.2287,-4.2287,-4.2287,-4.2287,-4.2287,-4.2287,-4.2287,-4.2287,-4.2287,-4.2287,-4.2287,-4.2287,-4.2287,-4.2287,-4.2287,-4.2287,-4.2269,-4.1984,-4.1591,-4.1127,-4.0824,-4.0289,-3.9575,-3.9058,-3.8647,-3.8344,-3.788,-3.7577,-3.7612,-3.7577,-3.7434,-3.7131,-3.6381,-3.5971,-3.5971,-3.5471,-3.5204,-3.5204,-3.5204,-3.5204,-3.5239,-3.5685,-3.5971,-3.6042,-3.6808,-3.7344,-3.7502,-3.799,-3.8252,-3.8186,-3.8967,-3.9465,-3.9707,-4.0145,-4.1031,-4.2069,-4.288,-4.332,-4.3529,-4.3763,-4.4005,-4.4005,-4.4005,-4.4005,-4.4005,-4.4005,-4.4005,-4.4005,-4.4005,-4.4005,-4.4005,-4.4005,-4.4005,-4.4005,-4.4005,-4.4005,-4.4005,-4.4005,-4.4005,-4.4005,-4.4005,-4.4036,-4.4128,-4.4296,-4.4401,-4.4487,-4.4496,-4.4515,-4.4605,-4.4745,-4.4929,-4.5023,-4.5262,-4.5566,-4.5684,-4.5776,-4.5786,-4.58,-4.58,-4.58,-4.58,-4.58,-4.58,-4.7048,-4.5996,-4.4677,-4.3888,-4.3429,-4.2644,-4.2287,-4.2287,-4.2287,-4.2287,-4.2287,-4.2287,-4.2287,-4.2287,-4.2287,-4.2287,-4.2287,-4.2287,-4.2287,-4.2287,-4.2287,-4.2287,-4.2287,-4.2287,-4.2287,-4.2287,-4.2287,-4.2287,-4.2287,-4.2287,-4.2002,-4.152,-4.1484,-4.1092,-4.0342,-3.9789,-3.945,-3.9093,-3.838,-3.7987,-3.7951,-3.7702,-3.7577,-3.7505,-3.7059,-3.6792,-3.6774,-3.6256,-3.5989,-3.5971,-3.5989,-3.5989,-3.6042,-3.647,-3.6774,-3.6845,-3.7273,-3.7649,-3.7757,-3.8132,-3.8346,-3.8294,-3.924,-3.994,-4.0093,-4.0818,-4.1506,-4.2196,-4.2741,-4.3142,-4.3375,-4.373,-4.3955,-4.391,-4.3942,-4.4005,-4.4005,-4.4005,-4.4005,-4.4005,-4.4005,-4.4005,-4.4005,-4.4005,-4.4005,-4.4005,-4.4005,-4.4005,-4.4005,-4.4005,-4.4005,-4.4005,-4.4005,-4.4005,-4.4036,-4.4147,-4.4207,-4.4266,-4.4325,-4.4354,-4.4468,-4.4667,-4.4802,-4.4881,-4.5094,-4.54,-4.5616,-4.5727,-4.5805,-4.58,-4.58,-4.58,-4.58,-4.58,-4.58,-4.6579,-4.5846,-4.4946,-4.4214,-4.3554,-4.2751,-4.2323,-4.2305,-4.2287,-4.2287,-4.2287,-4.2287,-4.2287,-4.2287,-4.2287,-4.2287,-4.2287,-4.2287,-4.2287,-4.2287,-4.2287,-4.2287,-4.2287,-4.2287,-4.2287,-4.2287,-4.2287,-4.2287,-4.2287,-4.2287,-4.2234,-4.2251,-4.218,-4.1805,-4.1109,-4.0931,-4.061,-3.9932,-3.9144,-3.877,-3.8719,-3.8094,-3.7719,-3.7666,-3.7541,-3.7487,-3.7505,-3.747,-3.738,-3.7416,-3.7434,-3.7541,-3.738,-3.747,-3.7523,-3.7487,-3.7559,-3.7721,-3.8059,-3.8706,-3.9155,-3.944,-4.0195,-4.0975,-4.1307,-4.1415,-4.1832,-4.2741,-4.3195,-4.3444,-4.3563,-4.3777,-4.3892,-4.3679,-4.386,-4.4005,-4.4005,-4.4005,-4.4005,-4.4005,-4.4005,-4.4005,-4.4005,-4.4005,-4.4005,-4.4005,-4.4005,-4.4005,-4.4005,-4.4005,-4.4005,-4.4005,-4.4005,-4.4005,-4.4005,-4.4005,-4.4005,-4.4036,-4.4067,-4.4128,-4.4277,-4.443,-4.4557,-4.4695,-4.5077,-4.5381,-4.5665,-4.5757,-4.5786,-4.58,-4.58,-4.58,-4.58,-4.58,-4.58,-4.6855,-4.6534,-4.5766,-4.4981,-4.4214,-4.3447,-4.284,-4.2305,-4.2287,-4.2287,-4.2287,-4.2287,-4.2287,-4.2287,-4.2287,-4.2287,-4.2287,-4.2287,-4.2287,-4.2287,-4.2287,-4.2287,-4.2287,-4.2287,-4.2287,-4.2287,-4.2287,-4.2287,-4.2287,-4.2287,-4.2287,-4.2287,-4.2287,-4.218,-4.1859,-4.1273,-4.077,-4.0642,-3.9828,-3.942,-3.9465,-3.8826,-3.8433,-3.8362,-3.7898,-3.7577,-3.7577,-3.7577,-3.7577,-3.7577,-3.7577,-3.7577,-3.7577,-3.7577,-3.7577,-3.7577,-3.7577,-3.7917,-3.8509,-3.896,-3.9409,-3.9914,-4.0818,-4.1325,-4.1481,-4.1915,-4.2334,-4.2808,-4.2902,-4.305,-4.3286,-4.3563,-4.3712,-4.386,-4.3923,-4.3974,-4.3974,-4.4005,-4.4005,-4.4005,-4.4005,-4.4005,-4.4005,-4.4005,-4.4005,-4.4005,-4.4005,-4.4005,-4.4005,-4.4005,-4.4005,-4.4005,-4.4005,-4.4005,-4.4005,-4.4005,-4.4005,-4.4005,-4.4005,-4.4005,-4.4128,-4.4229,-4.4365,-4.458,-4.4995,-4.5323,-4.561,-4.5757,-4.5805,-4.58,-4.58,-4.58,-4.58,-4.58,-4.58,-4.6998,-4.689,-4.6141,-4.5338,-4.4571,-4.3839,-4.3036,-4.2358,-4.2287,-4.2287,-4.2287,-4.2287,-4.2287,-4.2287,-4.2287,-4.2287,-4.2287,-4.2287,-4.2287,-4.2287,-4.2287,-4.2287,-4.2287,-4.2287,-4.2287,-4.2287,-4.2287,-4.2228,-4.2145,-4.2246,-4.2246,-4.2163,-4.2246,-4.2287,-4.2251,-4.17,-4.1416,-4.1372,-4.0588,-4.0121,-4.0121,-3.9533,-3.9017,-3.8734,-3.8308,-3.7916,-3.763,-3.7577,-3.7577,-3.7577,-3.7577,-3.7577,-3.7577,-3.7577,-3.7577,-3.763,-3.7898,-3.829,-3.879,-3.953,-4.0016,-4.0495,-4.1407,-4.1895,-4.1747,-4.2257,-4.2516,-4.2516,-4.2673,-4.2788,-4.2976,-4.3286,-4.3529,-4.3664,-4.3763,-4.3846,-4.3878,-4.3923,-4.4005,-4.4005,-4.4005,-4.4005,-4.4005,-4.4005,-4.4005,-4.4005,-4.4005,-4.4005,-4.4005,-4.4005,-4.4005,-4.4005,-4.4005,-4.4005,-4.4005,-4.4005,-4.4005,-4.4005,-4.4005,-4.4005,-4.4067,-4.414,-4.4221,-4.4493,-4.4858,-4.5165,-4.5417,-4.5696,-4.581,-4.5805,-4.5819,-4.58,-4.58,-4.58,-4.58,-4.6998,-4.689,-4.6141,-4.5356,-4.4553,-4.3822,-4.3054,-4.2358,-4.2287,-4.2287,-4.2287,-4.2287,-4.2287,-4.2287,-4.2287,-4.2287,-4.2287,-4.2287,-4.2287,-4.2287,-4.2287,-4.2287,-4.2287,-4.2228,-4.2246,-4.2246,-4.2246,-4.2103,-4.1917,-4.2061,-4.2145,-4.1934,-4.2121,-4.2246,-4.2145,-4.2228,-4.2074,-4.1932,-4.1215,-4.0878,-4.1029,-4.0179,-3.954,-3.9055,-3.8933,-3.8522,-3.7898,-3.7791,-3.7702,-3.7594,-3.7577,-3.7577,-3.7577,-3.7577,-3.7631,-3.7737,-3.8397,-3.8826,-3.9236,-4.0203,-4.1024,-4.1221,-4.1792,-4.2287,-4.2239,-4.2257,-4.2409,-4.2432,-4.2613,-4.275,-4.2826,-4.3032,-4.3232,-4.3178,-4.3426,-4.3563,-4.3631,-4.3828,-4.3942,-4.3974,-4.4005,-4.4005,-4.4005,-4.4005,-4.4005,-4.4005,-4.4005,-4.4005,-4.4005,-4.4005,-4.4005,-4.4005,-4.4005,-4.4005,-4.4005,-4.4005,-4.4005,-4.4005,-4.4005,-4.4005,-4.4005,-4.4048,-4.4162,-4.4438,-4.4682,-4.4973,-4.5246,-4.5526,-4.5731,-4.5795,-4.5791,-4.58,-4.58,-4.58,-4.58,-4.6998,-4.6908,-4.6141,-4.5338,-4.4571,-4.3822,-4.3054,-4.2341,-4.2287,-4.2287,-4.2287,-4.2287,-4.2287,-4.2287,-4.2287,-4.2287,-4.2287,-4.2287,-4.2287,-4.2287,-4.2287,-4.2287,-4.2246,-4.2103,-4.2019,-4.1977,-4.1909,-4.1719,-4.1692,-4.178,-4.1762,-4.1675,-4.178,-4.1805,-4.178,-4.1631,-4.1613,-4.1719,-4.1367,-4.1297,-4.1516,-4.0896,-4.0534,-4.0463,-3.9932,-3.9254,-3.8576,-3.8487,-3.8183,-3.763,-3.7577,-3.7577,-3.7684,-3.7684,-3.7933,-3.8451,-3.8736,-3.9379,-4.0307,-4.086,-4.1359,-4.1912,-4.2126,-4.2287,-4.2287,-4.2287,-4.2409,-4.2534,-4.2655,-4.2788,-4.2995,-4.3123,-4.3087,-4.292,-4.3087,-4.3356,-4.3545,-4.3646,-4.3763,-4.3974,-4.4005,-4.4005,-4.4005,-4.4005,-4.4005,-4.4005,-4.4005,-4.4005,-4.4005,-4.4005,-4.4005,-4.4005,-4.4005,-4.4005,-4.4005,-4.4005,-4.4005,-4.4005,-4.4005,-4.4005,-4.4005,-4.4036,-4.4181,-4.4355,-4.4553,-4.4853,-4.5101,-4.5381,-4.5545,-4.5765,-4.5795,-4.581,-4.5819,-4.58,-4.58,-4.6998,-4.6926,-4.6141,-4.5338,-4.4571,-4.3822,-4.3036,-4.2394,-4.2287,-4.2287,-4.2287,-4.2287,-4.2287,-4.2287,-4.2287,-4.2287,-4.2305,-4.2187,-4.2163,-4.2121,-4.2037,-4.2037,-4.2061,-4.1892,-4.1762,-4.1762,-4.1631,-4.1542,-4.1453,-4.156,-4.156,-4.1453,-4.156,-4.1604,-4.1604,-4.1453,-4.1453,-4.156,-4.1471,-4.1542,-4.1821,-4.151,-4.1191,-4.1087,-4.061,-4.0057,-3.9397,-3.9272,-3.8915,-3.8362,-3.838,-3.8576,-3.8576,-3.8576,-3.879,-3.9272,-3.9575,-4.0235,-4.0913,-4.1377,-4.1805,-4.218,-4.2287,-4.2287,-4.2287,-4.2287,-4.2391,-4.2494,-4.2516,-4.2613,-4.2786,-4.2824,-4.2729,-4.2613,-4.2709,-4.3013,-4.3391,-4.3511,-4.3712,-4.3892,-4.4005,-4.4005,-4.4005,-4.4005,-4.4005,-4.4005,-4.4005,-4.4005,-4.4005,-4.4005,-4.4005,-4.4005,-4.4005,-4.4005,-4.4005,-4.4005,-4.4005,-4.4005,-4.4005,-4.4005,-4.4005,-4.4005,-4.4079,-4.425,-4.4465,-4.4701,-4.4969,-4.5264,-4.5584,-4.5738,-4.577,-4.5815,-4.581,-4.5819,-4.5819,-4.6944,-4.6801,-4.5998,-4.5231,-4.441,-4.3697,-4.2912,-4.2376,-4.2287,-4.2287,-4.2287,-4.2287,-4.2287,-4.2287,-4.2287,-4.2269,-4.2246,-4.2002,-4.1934,-4.1849,-4.1719,-4.1675,-4.1744,-4.1631,-4.1542,-4.1542,-4.156,-4.1363,-4.1272,-4.1408,-4.1363,-4.1255,-4.1408,-4.1515,-4.1426,-4.1471,-4.1515,-4.1453,-4.1426,-4.1498,-4.1701,-4.1639,-4.1485,-4.1291,-4.1092,-4.0681,-4.0199,-4.0003,-3.9753,-3.9075,-3.9629,-3.9718,-3.9807,-3.986,-3.9968,-4.0092,-4.0556,-4.1002,-4.1306,-4.1895,-4.2234,-4.2287,-4.2287,-4.2287,-4.2287,-4.2287,-4.2328,-4.2351,-4.2287,-4.2351,-4.2351,-4.2328,-4.2369,-4.2369,-4.2369,-4.2591,-4.3087,-4.3426,-4.3646,-4.3942,-4.4005,-4.4005,-4.4005,-4.4005,-4.4005,-4.4005,-4.4005,-4.4005,-4.4005,-4.4005,-4.4005,-4.4005,-4.4005,-4.4005,-4.4005,-4.4005,-4.4005,-4.4005,-4.4005,-4.4005,-4.4005,-4.4005,-4.4005,-4.4109,-4.4279,-4.4519,-4.4806,-4.514,-4.5457,-4.5709,-4.5758,-4.577,-4.5815,-4.581,-4.5805,-4.6623,-4.5998,-4.5195,-4.4446,-4.3679,-4.2912,-4.2465,-4.2287,-4.2287,-4.2287,-4.2287,-4.2287,-4.2287,-4.2287,-4.2246,-4.2187,-4.2019,-4.1892,-4.1849,-4.1648,-4.1408,-4.13,-4.1328,-4.13,-4.13,-4.1272,-4.1105,-4.1012,-4.1012,-4.1059,-4.1012,-4.1012,-4.1059,-4.1059,-4.1059,-4.1105,-4.1059,-4.1059,-4.1059,-4.1226,-4.1328,-4.1436,-4.1525,-4.1605,-4.135,-4.1074,-4.0913,-4.0842,-4.077,-4.0556,-4.0217,-4.011,-4.0092,-4.0039,-4.0307,-4.077,-4.0985,-4.1395,-4.1895,-4.2144,-4.2287,-4.2287,-4.2287,-4.2287,-4.2287,-4.2287,-4.2287,-4.2287,-4.2287,-4.2287,-4.2287,-4.2287,-4.2287,-4.2287,-4.2328,-4.253,-4.305,-4.3286,-4.3495,-4.3878,-4.4005,-4.4005,-4.4005,-4.4005,-4.4005,-4.4005,-4.4005,-4.4005,-4.4005,-4.4005,-4.4005,-4.4005,-4.4005,-4.4005,-4.4005,-4.4005,-4.4005,-4.4005,-4.4005,-4.4005,-4.4005,-4.4005,-4.4005,-4.4005,-4.4048,-4.4346,-4.4676,-4.4896,-4.5201,-4.5457,-4.5709,-4.5758,-4.577,-4.5781,-4.581,-4.6195,-4.5695,-4.4589,-4.3875,-4.3411,-4.2644,-4.2287,-4.2287,-4.2287,-4.2287,-4.2287,-4.2287,-4.2246,-4.2103,-4.2103,-4.1977,-4.1762,-4.1613,-4.1436,-4.129,-4.1088,-4.1088,-4.1041,-4.1041,-4.1041,-4.1041,-4.0948,-4.0918,-4.0871,-4.0871,-4.0918,-4.0871,-4.0871,-4.0918,-4.0871,-4.0871,-4.0918,-4.0965,-4.0995,-4.1071,-4.1209,-4.1346,-4.1525,-4.1856,-4.1736,-4.1645,-4.1663,-4.1645,-4.1663,-4.1538,-4.1234,-4.1002,-4.102,-4.102,-4.1252,-4.1538,-4.1663,-4.1805,-4.2198,-4.2287,-4.2287,-4.2287,-4.2287,-4.2287,-4.2287,-4.2287,-4.2287,-4.2287,-4.2287,-4.2287,-4.2287,-4.2287,-4.2287,-4.2287,-4.2287,-4.2512,-4.2882,-4.3123,-4.341,-4.3846,-4.4005,-4.4005,-4.4005,-4.4005,-4.4005,-4.4005,-4.4005,-4.4005,-4.4005,-4.4005,-4.4005,-4.4005,-4.4005,-4.4005,-4.4005,-4.4005,-4.4005,-4.4005,-4.4005,-4.4005,-4.4005,-4.4005,-4.4005,-4.4036,-4.4048,-4.425,-4.4546,-4.4751,-4.4985,-4.5263,-4.5531,-4.5657,-4.5758,-4.577,-4.5781,-4.5552,-4.5356,-4.4036,-4.3465,-4.3233,-4.259,-4.2287,-4.2287,-4.2287,-4.2287,-4.2287,-4.2287,-4.2187,-4.2019,-4.1934,-4.1805,-4.1542,-4.13,-4.1088,-4.0965,-4.0965,-4.0918,-4.0918,-4.0918,-4.0918,-4.0871,-4.0871,-4.0871,-4.0871,-4.0871,-4.0871,-4.0871,-4.0871,-4.0871,-4.0871,-4.0871,-4.0871,-4.0918,-4.0995,-4.1071,-4.1134,-4.1318,-4.1542,-4.1813,-4.2092,-4.2162,-4.2162,-4.218,-4.2234,-4.2287,-4.2287,-4.2287,-4.2287,-4.2287,-4.2287,-4.2251,-4.218,-4.2216,-4.2234,-4.2287,-4.2287,-4.2287,-4.2287,-4.2287,-4.2287,-4.2287,-4.2287,-4.2287,-4.2287,-4.2287,-4.2287,-4.2287,-4.2287,-4.2287,-4.2287,-4.2432,-4.2691,-4.2957,-4.3321,-4.3795,-4.3974,-4.4005,-4.4005,-4.4005,-4.4005,-4.4005,-4.4005,-4.4005,-4.4005,-4.4005,-4.4005,-4.4005,-4.4005,-4.4005,-4.4005,-4.4005,-4.4005,-4.4005,-4.4005,-4.4005,-4.4005,-4.4005,-4.4005,-4.4048,-4.4121,-4.4279,-4.4457,-4.4669,-4.4915,-4.518,-4.5362,-4.5513,-4.5637,-4.5738,-4.577,-4.4446,-4.3875,-4.3607,-4.3126,-4.2537,-4.2341,-4.2287,-4.2287,-4.2287,-4.2287,-4.2287,-4.2287,-4.2246,-4.2145,-4.1959,-4.1657,-4.1318,-4.1088,-4.0965,-4.0871,-4.0871,-4.0871,-4.0871,-4.0871,-4.0871,-4.0871,-4.0871,-4.0871,-4.0871,-4.0871,-4.0871,-4.0871,-4.0871,-4.0871,-4.0871,-4.0871,-4.0871,-4.0871,-4.0965,-4.0965,-4.1012,-4.1105,-4.129,-4.1675,-4.2061,-4.2228,-4.2287,-4.2287,-4.2287,-4.2287,-4.2287,-4.2287,-4.2287,-4.2287,-4.2287,-4.2287,-4.2287,-4.2287,-4.2287,-4.2287,-4.2287,-4.2287,-4.2287,-4.2287,-4.2287,-4.2287,-4.2287,-4.2287,-4.2287,-4.2287,-4.2287,-4.2287,-4.2287,-4.2287,-4.2328,-4.2391,-4.2595,-4.2826,-4.3105,-4.3579,-4.3795,-4.4005,-4.4005,-4.4005,-4.4005,-4.4005,-4.4005,-4.4005,-4.4005,-4.4005,-4.4005,-4.4005,-4.4005,-4.4005,-4.4005,-4.4005,-4.4005,-4.4005,-4.4005,-4.4005,-4.4005,-4.4005,-4.4036,-4.4048,-4.4079,-4.4181,-4.4365,-4.4538,-4.4751,-4.4988,-4.5201,-4.5381,-4.5513,-4.5601,-4.5703,-4.3839,-4.3483,-4.3072,-4.2662,-4.2323,-4.2287,-4.2287,-4.2287,-4.2287,-4.2287,-4.2246,-4.2145,-4.2019,-4.1892,-4.1675,-4.1363,-4.1088,-4.0965,-4.0871,-4.0871,-4.0871,-4.0871,-4.0871,-4.0871,-4.0871,-4.0871,-4.0871,-4.0871,-4.0871,-4.0871,-4.0871,-4.0871,-4.0871,-4.0871,-4.0871,-4.0871,-4.0871,-4.0871,-4.0871,-4.0871,-4.0918,-4.1012,-4.1272,-4.1604,-4.1892,-4.2145,-4.2287,-4.2287,-4.2287,-4.2287,-4.2287,-4.2287,-4.2287,-4.2287,-4.2287,-4.2287,-4.2287,-4.2287,-4.2287,-4.2287,-4.2287,-4.2287,-4.2287,-4.2287,-4.2287,-4.2287,-4.2287,-4.2287,-4.2287,-4.2287,-4.2287,-4.2287,-4.2287,-4.2287,-4.2287,-4.2351,-4.2534,-4.2768,-4.3069,-4.3373,-4.3597,-4.3846,-4.4005,-4.4005,-4.4005,-4.4005,-4.4005,-4.4005,-4.4005,-4.4005,-4.4005,-4.4005,-4.4005,-4.4005,-4.4005,-4.4005,-4.4005,-4.4005,-4.4005,-4.4005,-4.4005,-4.4005,-4.4005,-4.4005,-4.4067,-4.4109,-4.4181,-4.4365,-4.4572,-4.4781,-4.4919,-4.5094,-4.5322,-4.5475,-4.5601,-4.3268,-4.3215,-4.2555,-4.2287,-4.2287,-4.2287,-4.2287,-4.2287,-4.2246,-4.2187,-4.2187,-4.1977,-4.1762,-4.1587,-4.1363,-4.1134,-4.0918,-4.0871,-4.0871,-4.0871,-4.0871,-4.0871,-4.0871,-4.0871,-4.0871,-4.0871,-4.0871,-4.0871,-4.0871,-4.0871,-4.0871,-4.0871,-4.0871,-4.0871,-4.0871,-4.0871,-4.0871,-4.0871,-4.0871,-4.0871,-4.0965,-4.1088,-4.13,-4.156,-4.1762,-4.2019,-4.2079,-4.2246,-4.2246,-4.2246,-4.2246,-4.2287,-4.2287,-4.2287,-4.2287,-4.2246,-4.2269,-4.2287,-4.2287,-4.2287,-4.2287,-4.2287,-4.2287,-4.2287,-4.2287,-4.2287,-4.2287,-4.2287,-4.2287,-4.2287,-4.2287,-4.2287,-4.2287,-4.2287,-4.2287,-4.2328,-4.2432,-4.267,-4.3013,-4.325,-4.3461,-4.3697,-4.3942,-4.4005,-4.4005,-4.4005,-4.4005,-4.4005,-4.4005,-4.4005,-4.4005,-4.4005,-4.4005,-4.4005,-4.4005,-4.4005,-4.4005,-4.4005,-4.4005,-4.4005,-4.4005,-4.4005,-4.4005,-4.4005,-4.4005,-4.4067,-4.4109,-4.414,-4.4279,-4.4457,-4.4617,-4.4868,-4.518,-4.5419,-4.5586,-4.243,-4.243,-4.2341,-4.2287,-4.2287,-4.2287,-4.2287,-4.2246,-4.2019,-4.1959,-4.1934,-4.1719,-4.1587,-4.1498,-4.1318,-4.1088,-4.0965,-4.0871,-4.0871,-4.0871,-4.0871,-4.0871,-4.0871,-4.0871,-4.0871,-4.0871,-4.0871,-4.0871,-4.0871,-4.0871,-4.0871,-4.0871,-4.0871,-4.0871,-4.0871,-4.0871,-4.0871,-4.0871,-4.0871,-4.0871,-4.0918,-4.1088,-4.1209,-4.1346,-4.1613,-4.1805,-4.1805,-4.2019,-4.2163,-4.1977,-4.2145,-4.2269,-4.2287,-4.2287,-4.2145,-4.2103,-4.2163,-4.2287,-4.2287,-4.2287,-4.2287,-4.2287,-4.2287,-4.2287,-4.2287,-4.2287,-4.2287,-4.2287,-4.2287,-4.2287,-4.2287,-4.2287,-4.2287,-4.2287,-4.2287,-4.2287,-4.2369,-4.2747,-4.305,-4.325,-4.3495,-4.373,-4.3974,-4.3974,-4.4005,-4.4005,-4.4005,-4.4005,-4.4005,-4.4005,-4.4005,-4.4005,-4.4005,-4.4005,-4.4005,-4.4005,-4.4005,-4.4005,-4.4005,-4.4005,-4.4005,-4.4005,-4.4005,-4.4005,-4.4005,-4.4005,-4.4036,-4.4067,-4.4036,-4.4151,-4.4393,-4.4751,-4.514,-4.5342,-4.5457,-4.1909,-4.1892,-4.1909,-4.1892,-4.1909,-4.1909,-4.1909,-4.1909,-4.1762,-4.1719,-4.1675,-4.148,-4.1318,-4.1244,-4.1041,-4.1012,-4.0918,-4.0871,-4.0871,-4.0871,-4.0871,-4.0871,-4.0871,-4.0871,-4.0871,-4.0871,-4.0871,-4.0871,-4.0871,-4.0871,-4.0871,-4.0871,-4.0871,-4.0871,-4.0871,-4.0871,-4.0871,-4.0871,-4.0871,-4.0871,-4.0918,-4.0995,-4.1071,-4.1209,-4.1436,-4.1542,-4.1631,-4.1736,-4.1866,-4.178,-4.1849,-4.1892,-4.1892,-4.1892,-4.1849,-4.1762,-4.1823,-4.1952,-4.2061,-4.2187,-4.2269,-4.2287,-4.2287,-4.2287,-4.2287,-4.2287,-4.2287,-4.2287,-4.2287,-4.2287,-4.2287,-4.2287,-4.2287,-4.2287,-4.2287,-4.2287,-4.2409,-4.2824,-4.3123,-4.3321,-4.3529,-4.3763,-4.3942,-4.3974,-4.4005,-4.4005,-4.4005,-4.4005,-4.4005,-4.4005,-4.4005,-4.4005,-4.4005,-4.4005,-4.4005,-4.4005,-4.4005,-4.4005,-4.4005,-4.4005,-4.4005,-4.4005,-4.4005,-4.4005,-4.4005,-4.4005,-4.4005,-4.4005,-4.4036,-4.4109,-4.4181,-4.4546,-4.4896,-4.5007,-4.518,-4.1426,-4.1426,-4.156,-4.1604,-4.1604,-4.1604,-4.1604,-4.1604,-4.1498,-4.1498,-4.1426,-4.1226,-4.1041,-4.0935,-4.0918,-4.0918,-4.0871,-4.0871,-4.0871,-4.0871,-4.0871,-4.0871,-4.0871,-4.0871,-4.0871,-4.0871,-4.0871,-4.0871,-4.0871,-4.0871,-4.0871,-4.0871,-4.0871,-4.0871,-4.0871,-4.0871,-4.0871,-4.0871,-4.0871,-4.0871,-4.0871,-4.0871,-4.0995,-4.1088,-4.1209,-4.1272,-4.1426,-4.1604,-4.1604,-4.1515,-4.1604,-4.1692,-4.1648,-4.1692,-4.1587,-4.1542,-4.1587,-4.1675,-4.1788,-4.1959,-4.2187,-4.2287,-4.2287,-4.2287,-4.2287,-4.2287,-4.2287,-4.2287,-4.2287,-4.2287,-4.2287,-4.2287,-4.2287,-4.2287,-4.2287,-4.2287,-4.2369,-4.2709,-4.305,-4.3268,-4.3495,-4.3795,-4.3942,-4.3974,-4.4005,-4.4005,-4.4005,-4.4005,-4.4005,-4.4005,-4.4005,-4.4005,-4.4005,-4.4005,-4.4005,-4.4005,-4.4005,-4.4005,-4.4005,-4.4005,-4.4005,-4.4005,-4.4005,-4.4005,-4.4005,-4.4005,-4.4005,-4.4005,-4.4005,-4.4079,-4.4181,-4.4365,-4.4591,-4.4726,-4.5007,-4.0918,-4.0982,-4.1426,-4.156,-4.156,-4.1604,-4.1604,-4.1515,-4.13,-4.1255,-4.1209,-4.1041,-4.0918,-4.0871,-4.0871,-4.0871,-4.0871,-4.0871,-4.0871,-4.0871,-4.0871,-4.0871,-4.0871,-4.0871,-4.0871,-4.0871,-4.0871,-4.0871,-4.0871,-4.0871,-4.0871,-4.0871,-4.0871,-4.0871,-4.0871,-4.0871,-4.0871,-4.0871,-4.0871,-4.0871,-4.0871,-4.0871,-4.0918,-4.0965,-4.1088,-4.1134,-4.1012,-4.1335,-4.1471,-4.1272,-4.1408,-4.1515,-4.1471,-4.1471,-4.1408,-4.1318,-4.1408,-4.1408,-4.148,-4.1701,-4.2019,-4.2205,-4.2287,-4.2287,-4.2287,-4.2287,-4.2287,-4.2287,-4.2287,-4.2287,-4.2287,-4.2287,-4.2287,-4.2287,-4.2287,-4.2287,-4.2369,-4.2512,-4.2844,-4.316,-4.3444,-4.373,-4.391,-4.3942,-4.4005,-4.4005,-4.4005,-4.4005,-4.4005,-4.4005,-4.4005,-4.4005,-4.4005,-4.4005,-4.4005,-4.4005,-4.4005,-4.4005,-4.4005,-4.4005,-4.4005,-4.4005,-4.4005,-4.4005,-4.4005,-4.4005,-4.4005,-4.4005,-4.4036,-4.4048,-4.4181,-4.4336,-4.4591,-4.4868,-4.514,-4.0871,-4.0918,-4.1088,-4.1152,-4.1152,-4.1152,-4.1134,-4.1152,-4.1059,-4.0995,-4.1012,-4.0918,-4.0871,-4.0871,-4.0871,-4.0871,-4.0871,-4.0871,-4.0871,-4.0871,-4.0871,-4.0871,-4.0871,-4.0871,-4.0871,-4.0871,-4.0871,-4.0871,-4.0871,-4.0871,-4.0871,-4.0871,-4.0871,-4.0871,-4.0871,-4.0871,-4.0871,-4.0871,-4.0871,-4.0871,-4.0871,-4.0871,-4.0871,-4.0918,-4.0918,-4.1012,-4.0935,-4.1059,-4.1105,-4.1105,-4.1134,-4.1198,-4.1198,-4.1198,-4.1152,-4.1041,-4.118,-4.118,-4.1272,-4.1542,-4.1823,-4.2037,-4.2205,-4.2287,-4.2287,-4.2287,-4.2287,-4.2287,-4.2287,-4.2287,-4.2287,-4.2287,-4.2287,-4.2287,-4.2287,-4.2287,-4.2369,-4.2472,-4.2652,-4.2957,-4.3303,-4.3646,-4.3795,-4.3892,-4.3942,-4.4005,-4.4005,-4.4005,-4.4005,-4.4005,-4.4005,-4.4005,-4.4005,-4.4005,-4.4005,-4.4005,-4.4005,-4.4005,-4.4005,-4.4005,-4.4005,-4.4005,-4.4005,-4.4005,-4.4005,-4.4005,-4.4005,-4.4005,-4.4036,-4.4067,-4.414,-4.4298,-4.4591,-4.4915,-4.5201,-4.0871,-4.0871,-4.0871,-4.0871,-4.0871,-4.0871,-4.0871,-4.0871,-4.0918,-4.0871,-4.0871,-4.0871,-4.0871,-4.0871,-4.0871,-4.0871,-4.0871,-4.0871,-4.0871,-4.0871,-4.0871,-4.0871,-4.0871,-4.0871,-4.0871,-4.0871,-4.0871,-4.0871,-4.0871,-4.0871,-4.0871,-4.0871,-4.0871,-4.0871,-4.0871,-4.0871,-4.0871,-4.0871,-4.0871,-4.0871,-4.0871,-4.0871,-4.0871,-4.0871,-4.0918,-4.0918,-4.0935,-4.0965,-4.0918,-4.0918,-4.0918,-4.0918,-4.0918,-4.0871,-4.0871,-4.0871,-4.0918,-4.0948,-4.1134,-4.1408,-4.1692,-4.1934,-4.2061,-4.2187,-4.2287,-4.2287,-4.2287,-4.2287,-4.2287,-4.2287,-4.2287,-4.2287,-4.2287,-4.2287,-4.2287,-4.2287,-4.2287,-4.2391,-4.2534,-4.275,-4.3069,-4.332,-4.3563,-4.3697,-4.386,-4.3942,-4.4005,-4.4005,-4.4005,-4.4005,-4.4005,-4.4005,-4.4005,-4.4005,-4.4005,-4.4005,-4.4005,-4.4005,-4.4005,-4.4005,-4.4005,-4.4005,-4.4005,-4.4005,-4.4005,-4.4005,-4.4005,-4.4005,-4.4005,-4.4005,-4.4109,-4.4181,-4.4457,-4.4776,-4.5094,-4.0871,-4.0871,-4.0871,-4.0871,-4.0871,-4.0871,-4.0871,-4.0871,-4.0871,-4.0871,-4.0871,-4.0871,-4.0871,-4.0871,-4.0871,-4.0871,-4.0871,-4.0871,-4.0871,-4.0871,-4.0871,-4.0871,-4.0871,-4.0871,-4.0871,-4.0871,-4.0871,-4.0871,-4.0871,-4.0871,-4.0871,-4.0871,-4.0823,-4.0823,-4.0871,-4.0871,-4.0871,-4.0871,-4.0871,-4.0871,-4.0871,-4.0871,-4.0871,-4.0871,-4.0871,-4.0871,-4.0871,-4.0871,-4.0871,-4.0871,-4.0871,-4.0871,-4.0871,-4.0871,-4.0871,-4.0871,-4.0871,-4.0918,-4.0918,-4.1335,-4.1587,-4.1762,-4.1831,-4.1977,-4.2205,-4.2246,-4.2246,-4.2187,-4.2287,-4.2287,-4.2287,-4.2287,-4.2287,-4.2287,-4.2287,-4.2287,-4.2287,-4.2287,-4.2454,-4.2555,-4.2673,-4.2846,-4.316,-4.3461,-4.373,-4.386,-4.3974,-4.4005,-4.4005,-4.4005,-4.4005,-4.4005,-4.4005,-4.4005,-4.4005,-4.4005,-4.4005,-4.4005,-4.4005,-4.4005,-4.4005,-4.4005,-4.4005,-4.4005,-4.4005,-4.4005,-4.4005,-4.4005,-4.4005,-4.4005,-4.4005,-4.4109,-4.4374,-4.4624,-4.4896,-4.0871,-4.0871,-4.0871,-4.0871,-4.0871,-4.0871,-4.0871,-4.0871,-4.0871,-4.0871,-4.0871,-4.0871,-4.0871,-4.0871,-4.0871,-4.0871,-4.0871,-4.0871,-4.0871,-4.0871,-4.0871,-4.0871,-4.0871,-4.0871,-4.0871,-4.0871,-4.0871,-4.0871,-4.0871,-4.0871,-4.0871,-4.0871,-4.0631,-4.068,-4.0823,-4.0871,-4.0871,-4.0871,-4.0871,-4.0871,-4.0871,-4.0871,-4.0871,-4.0871,-4.0871,-4.0871,-4.0871,-4.0871,-4.0871,-4.0871,-4.0871,-4.0871,-4.0871,-4.0871,-4.0871,-4.0871,-4.0871,-4.0871,-4.0918,-4.1105,-4.1209,-4.1391,-4.1613,-4.1719,-4.1805,-4.1934,-4.1977,-4.2103,-4.2246,-4.2287,-4.2287,-4.2287,-4.2287,-4.2287,-4.2287,-4.2287,-4.2287,-4.2287,-4.2351,-4.2472,-4.2534,-4.2806,-4.3105,-4.3339,-4.3597,-4.3795,-4.391,-4.3974,-4.4005,-4.4005,-4.4005,-4.4005,-4.4005,-4.4005,-4.4005,-4.4005,-4.4005,-4.4005,-4.4005,-4.4005,-4.4005,-4.4005,-4.4005,-4.4005,-4.4005,-4.4005,-4.4005,-4.4005,-4.4005,-4.4005,-4.4005,-4.4079,-4.4308,-4.4465,-4.4624,-4.0871,-4.0871,-4.0871,-4.0871,-4.0871,-4.0871,-4.0871,-4.0871,-4.0871,-4.0871,-4.0871,-4.0871,-4.0871,-4.0871,-4.0871,-4.0871,-4.0871,-4.0871,-4.0871,-4.0871,-4.0871,-4.0871,-4.0871,-4.0871,-4.0871,-4.0871,-4.0888,-4.084,-4.0631,-4.068,-4.0566,-4.0353,-4.0204,-4.0204,-4.0353,-4.05,-4.0728,-4.0823,-4.0871,-4.0871,-4.0871,-4.0871,-4.0871,-4.0871,-4.0871,-4.0871,-4.0871,-4.0871,-4.0871,-4.0871,-4.0871,-4.0871,-4.0871,-4.0871,-4.0871,-4.0871,-4.0871,-4.0871,-4.0918,-4.0918,-4.1041,-4.1134,-4.1318,-4.1515,-4.1587,-4.1744,-4.1831,-4.1977,-4.2145,-4.2246,-4.2287,-4.2287,-4.2287,-4.2287,-4.2287,-4.2287,-4.2287,-4.2287,-4.2287,-4.2391,-4.2432,-4.2747,-4.3013,-4.3268,-4.3479,-4.3664,-4.3828,-4.391,-4.4005,-4.4005,-4.4005,-4.4005,-4.4005,-4.4005,-4.4005,-4.4005,-4.4005,-4.4005,-4.4005,-4.4005,-4.4005,-4.4005,-4.4005,-4.4005,-4.4005,-4.4005,-4.4005,-4.4005,-4.4005,-4.4005,-4.4005,-4.4109,-4.425,-4.4346,-4.4438,-4.0871,-4.0871,-4.0871,-4.0871,-4.0871,-4.0871,-4.0871,-4.0871,-4.0871,-4.0871,-4.0871,-4.0871,-4.0871,-4.0871,-4.0871,-4.0871,-4.0871,-4.0871,-4.0823,-4.0823,-4.0793,-4.0776,-4.084,-4.084,-4.084,-4.0888,-4.084,-4.0648,-4.0355,-4.0271,-4.0054,-3.9714,-3.961,-3.9662,-3.9782,-4.0003,-4.037,-4.0631,-4.0776,-4.0776,-4.0871,-4.0871,-4.0871,-4.0871,-4.0871,-4.0871,-4.0871,-4.0871,-4.0871,-4.0871,-4.0871,-4.0871,-4.0871,-4.0871,-4.0871,-4.0871,-4.0871,-4.0871,-4.0871,-4.0871,-4.0871,-4.0965,-4.1088,-4.1318,-4.1453,-4.1542,-4.1613,-4.1788,-4.1977,-4.2103,-4.2246,-4.2246,-4.2246,-4.2287,-4.2287,-4.2287,-4.2287,-4.2287,-4.2287,-4.2328,-4.2328,-4.2512,-4.2729,-4.2995,-4.3375,-4.3548,-4.373,-4.3942,-4.4005,-4.4005,-4.4005,-4.4005,-4.4005,-4.4005,-4.4005,-4.4005,-4.4005,-4.4005,-4.4005,-4.4005,-4.4005,-4.4005,-4.4005,-4.4005,-4.4005,-4.4005,-4.4005,-4.4005,-4.4005,-4.4005,-4.4005,-4.4036,-4.4151,-4.4221,-4.4346,-4.0871,-4.0871,-4.0871,-4.0871,-4.0871,-4.0871,-4.0871,-4.0871,-4.0871,-4.0871,-4.0871,-4.0871,-4.0871,-4.0871,-4.0871,-4.0871,-4.0871,-4.0871,-4.068,-4.0583,-4.0551,-4.0485,-4.0485,-4.0485,-4.0648,-4.0697,-4.0583,-4.0387,-4.0238,-4.002,-3.9592,-3.9276,-3.9169,-3.9169,-3.9222,-3.9345,-3.9867,-4.0271,-4.0436,-4.0631,-4.0823,-4.0871,-4.0871,-4.0871,-4.0871,-4.0871,-4.0871,-4.0871,-4.0871,-4.0871,-4.0871,-4.0871,-4.0871,-4.0871,-4.0871,-4.0871,-4.0871,-4.0871,-4.0871,-4.0871,-4.0871,-4.0871,-4.0965,-4.1012,-4.1105,-4.1198,-4.1318,-4.1525,-4.1657,-4.1805,-4.2019,-4.2103,-4.2187,-4.2287,-4.2287,-4.2287,-4.2287,-4.2287,-4.2287,-4.2287,-4.2287,-4.2328,-4.2534,-4.292,-4.3304,-4.3444,-4.3649,-4.3878,-4.4005,-4.4005,-4.4005,-4.4005,-4.4005,-4.4005,-4.4005,-4.4005,-4.4005,-4.4005,-4.4005,-4.4005,-4.4005,-4.4005,-4.4005,-4.4005,-4.4005,-4.4005,-4.4005,-4.4005,-4.4005,-4.4005,-4.4005,-4.4005,-4.4036,-4.4121,-4.4162,-4.0871,-4.0871,-4.0871,-4.0871,-4.0871,-4.0871,-4.0871,-4.0871,-4.0871,-4.0871,-4.0871,-4.0871,-4.0871,-4.0871,-4.0888,-4.084,-4.0631,-4.0583,-4.0436,-4.0104,-4.0205,-4.0121,-4.0121,-4.0188,-4.0271,-4.032,-4.0154,-3.9901,-3.9764,-3.9382,-3.8952,-3.8821,-3.8766,-3.875,-3.875,-3.8876,-3.9131,-3.9661,-4.007,-4.0387,-4.0631,-4.0823,-4.0871,-4.0871,-4.0871,-4.0871,-4.0871,-4.0871,-4.0871,-4.0871,-4.0871,-4.0871,-4.0871,-4.0871,-4.0871,-4.0871,-4.0871,-4.0871,-4.0871,-4.0871,-4.0871,-4.0871,-4.0871,-4.0918,-4.0918,-4.1012,-4.1088,-4.1255,-4.1318,-4.1453,-4.1701,-4.1917,-4.2103,-4.2287,-4.2287,-4.2287,-4.2287,-4.2287,-4.2287,-4.2287,-4.2287,-4.2287,-4.2512,-4.292,-4.3232,-4.3375,-4.3615,-4.391,-4.4005,-4.4005,-4.4005,-4.4005,-4.4005,-4.4005,-4.4005,-4.4005,-4.4005,-4.4005,-4.4005,-4.4005,-4.4005,-4.4005,-4.4005,-4.4005,-4.4005,-4.4005,-4.4005,-4.4005,-4.4005,-4.4005,-4.4005,-4.4005,-4.4005,-4.4036,-4.4048,-4.0871,-4.0871,-4.0871,-4.0871,-4.0871,-4.0871,-4.0871,-4.0888,-4.0823,-4.084,-4.0823,-4.0823,-4.0776,-4.0614,-4.0614,-4.0468,-4.032,-4.0221,-4.0003,-3.961,-3.9867,-3.9867,-3.9747,-3.9901,-3.9901,-3.9714,-3.9506,-3.9435,-3.8969,-3.8766,-3.86,-3.8391,-3.8448,-3.8504,-3.8504,-3.8504,-3.8766,-3.9077,-3.9661,-4.0138,-4.0387,-4.0631,-4.0871,-4.0871,-4.0871,-4.0871,-4.0871,-4.0871,-4.0871,-4.0871,-4.0871,-4.0871,-4.0871,-4.0871,-4.0871,-4.0871,-4.0871,-4.0871,-4.0871,-4.0871,-4.0871,-4.0871,-4.0871,-4.0871,-4.0871,-4.0871,-4.0995,-4.1041,-4.1134,-4.1363,-4.1631,-4.1805,-4.1934,-4.2163,-4.2287,-4.2287,-4.2287,-4.2287,-4.2287,-4.2287,-4.2287,-4.2287,-4.2409,-4.2786,-4.2995,-4.3232,-4.3548,-4.3878,-4.3942,-4.3942,-4.3974,-4.3974,-4.4005,-4.4005,-4.4005,-4.4005,-4.4005,-4.4005,-4.4005,-4.4005,-4.4005,-4.4005,-4.4005,-4.4005,-4.4005,-4.4005,-4.4005,-4.4005,-4.4005,-4.4005,-4.4005,-4.4005,-4.4005,-4.4005,-4.4005,-4.0871,-4.0871,-4.0871,-4.0871,-4.0871,-4.0871,-4.0871,-4.0871,-4.06,-4.0453,-4.0453,-4.0387,-4.0254,-4.002,-4.0037,-3.9935,-3.9833,-3.9747,-3.954,-3.9276,-3.9345,-3.9398,-3.9169,-3.9329,-3.9435,-3.947,-3.9312,-3.8969,-3.8655,-3.8448,-3.8391,-3.8391,-3.8391,-3.8391,-3.8391,-3.8391,-3.8504,-3.8672,-3.9077,-3.9713,-4.0138,-4.0337,-4.0534,-4.0776,-4.0871,-4.0871,-4.0871,-4.0871,-4.0871,-4.0871,-4.0871,-4.0871,-4.0871,-4.0871,-4.0871,-4.0871,-4.0871,-4.0871,-4.0871,-4.0871,-4.0871,-4.0871,-4.0871,-4.0871,-4.0871,-4.0871,-4.0918,-4.0918,-4.1059,-4.1272,-4.1498,-4.1631,-4.1805,-4.2061,-4.2287,-4.2287,-4.2287,-4.2287,-4.2287,-4.2287,-4.2287,-4.2328,-4.2409,-4.2552,-4.2729,-4.305,-4.3408,-4.3679,-4.3763,-4.3795,-4.391,-4.391,-4.4005,-4.4005,-4.4005,-4.4005,-4.4005,-4.4005,-4.4005,-4.4005,-4.4005,-4.4005,-4.4005,-4.4005,-4.4005,-4.4005,-4.4005,-4.4005,-4.4005,-4.4005,-4.4005,-4.4005,-4.4005,-4.4005,-4.4005,-4.0871,-4.0871,-4.0871,-4.0776,-4.0631,-4.0631,-4.0517,-4.0303,-4.0104,-3.9901,-3.9764,-3.985,-3.9833,-3.961,-3.961,-3.9401,-3.9348,-3.9365,-3.9061,-3.886,-3.886,-3.886,-3.886,-3.8914,-3.8914,-3.9007,-3.886,-3.86,-3.8391,-3.8391,-3.8391,-3.8391,-3.8391,-3.8391,-3.8391,-3.8391,-3.8391,-3.8391,-3.8655,-3.9077,-3.9781,-4.0037,-4.0337,-4.0631,-4.0776,-4.0823,-4.0871,-4.0871,-4.0871,-4.0871,-4.0871,-4.0871,-4.0871,-4.0871,-4.0871,-4.0871,-4.0871,-4.0871,-4.0871,-4.0871,-4.0871,-4.0871,-4.0871,-4.0871,-4.0871,-4.0871,-4.0871,-4.0918,-4.0918,-4.1134,-4.1363,-4.1498,-4.1719,-4.1977,-4.2187,-4.2287,-4.2287,-4.2287,-4.2287,-4.2287,-4.2287,-4.2287,-4.2409,-4.2552,-4.2729,-4.2826,-4.3178,-4.3373,-4.3477,-4.3597,-4.3697,-4.3846,-4.3878,-4.3974,-4.4005,-4.4005,-4.4005,-4.4005,-4.4005,-4.4005,-4.4005,-4.4005,-4.4005,-4.4005,-4.4005,-4.4005,-4.4005,-4.4005,-4.4005,-4.4005,-4.4005,-4.4005,-4.4005,-4.4005,-4.4005,-4.0728,-4.0728,-4.071,-4.0534,-4.0238,-4.0238,-4.0003,-3.9662,-3.9558,-3.9382,-3.9131,-3.9312,-3.9454,-3.9454,-3.9454,-3.9206,-3.9007,-3.8969,-3.8655,-3.86,-3.8766,-3.8655,-3.8655,-3.8711,-3.8711,-3.86,-3.8504,-3.8448,-3.8391,-3.8391,-3.8391,-3.8391,-3.8391,-3.8391,-3.8391,-3.8391,-3.8391,-3.8391,-3.8504,-3.8616,-3.9131,-3.9661,-3.9969,-4.0271,-4.0534,-4.0728,-4.071,-4.071,-4.071,-4.0776,-4.0728,-4.0728,-4.0728,-4.0728,-4.0823,-4.0823,-4.0871,-4.0871,-4.0871,-4.0871,-4.0871,-4.0871,-4.0871,-4.0871,-4.0871,-4.0871,-4.0871,-4.0871,-4.0871,-4.1012,-4.1226,-4.1436,-4.1657,-4.1874,-4.2103,-4.2287,-4.2287,-4.2287,-4.2287,-4.2287,-4.2287,-4.2287,-4.2391,-4.2573,-4.2652,-4.2729,-4.2882,-4.3032,-4.3178,-4.3321,-4.3426,-4.3597,-4.373,-4.3814,-4.3974,-4.4005,-4.4005,-4.4005,-4.4005,-4.4005,-4.4005,-4.4005,-4.4005,-4.4005,-4.4005,-4.4005,-4.4005,-4.4005,-4.4005,-4.4005,-4.4005,-4.4005,-4.4005,-4.4005,-4.4005,-3.9868,-3.9868,-3.9868,-3.9833,-3.9714,-3.9731,-3.9662,-3.9558,-3.9222,-3.9077,-3.8914,-3.8655,-3.8639,-3.8639,-3.8639,-3.8544,-3.8655,-3.8616,-3.856,-3.8448,-3.856,-3.8448,-3.8448,-3.856,-3.8448,-3.8391,-3.8391,-3.8391,-3.8391,-3.8391,-3.8391,-3.8391,-3.8391,-3.8391,-3.8391,-3.8391,-3.8391,-3.8391,-3.8391,-3.8504,-3.856,-3.9023,-3.9365,-3.9627,-3.9817,-3.9868,-3.9868,-3.9868,-4.0104,-4.0288,-4.0453,-4.0436,-4.0485,-4.0485,-4.0631,-4.0823,-4.0871,-4.0871,-4.0871,-4.0871,-4.0871,-4.0871,-4.0871,-4.0871,-4.0871,-4.0871,-4.0871,-4.0871,-4.0918,-4.1012,-4.118,-4.1408,-4.1648,-4.1849,-4.2061,-4.2205,-4.2246,-4.2287,-4.2287,-4.2287,-4.2287,-4.2287,-4.2328,-4.2391,-4.2391,-4.2512,-4.2652,-4.2768,-4.2844,-4.2995,-4.3142,-4.3321,-4.3495,-4.3781,-4.3942,-4.4005,-4.4005,-4.4005,-4.4005,-4.4005,-4.4005,-4.4005,-4.4005,-4.4005,-4.4005,-4.4005,-4.4005,-4.4005,-4.4005,-4.4005,-4.4005,-4.4005,-4.4005,-4.4005,-4.4005]}]]